[[{"header":{"parameterUnit":"m.s-1","parameterCategory":1,"la1":31.0,"la2":29.5877,"lo1":-88.7671,"lo2":-86.6584,"dy":0.0162,"dx":0.0185,"nx":115,"ny":88,"refTime":"2024-02-18T06:00:00:Z","depth":0,"parameterNumber":2,"parameterNumberName":"U-component_of_WINDS"},"data":[0.0,0.0,0.0,0.0,0.0,0.0,0.0,0.0,0.0,0.0,0.0,0.0,0.0,0.0,0.0,0.0,0.0,0.0,0.0,0.0,0.0,0.0,0.0,0.0,0.0,0.0,0.0,0.0,0.0,0.0,0.0,0.0,0.0,0.0,0.0,0.0,0.0,0.0,0.0,0.0,0.0,0.0,0.0,0.0,0.0,0.0,0.0,0.0,0.0,0.0,0.0,0.0,0.0,0.0,0.0,0.0,0.0,0.0,0.0,0.0,0.0,0.0,0.0,0.0,0.0,0.0,0.0,0.0,0.0,0.0,0.0,0.0,0.0,0.0,0.0,0.0,0.0,0.0,0.0,0.0,0.0,0.0,0.0,0.0,0.0,0.0,0.0,0.0,0.0,0.0,0.0,0.0,0.0,0.0,0.0,0.0,0.0,0.0,0.0,0.0,0.0,0.0,0.0,0.0,0.0,0.0,0.0,0.0,0.0,0.0,0.0,0.0,0.0,0.0,0.0,0.0,0.0,0.0,0.0,0.0,0.0,0.0,0.0,0.0,0.0,0.0,0.0,0.0,0.0,0.0,0.0,0.0,0.0,0.0,0.0,0.0,0.0,0.0,0.0,0.0,0.0,0.0,0.0,0.0,0.0,0.0,0.0,0.0,0.0,0.0,0.0,0.0,0.0,0.0,0.0,0.0,0.0,0.0,0.0,0.0,0.0,0.0,0.0,0.0,0.0,0.0,0.0,0.0,0.0,0.0,0.0,0.0,0.0,0.0,0.0,0.0,0.0,0.0,0.0,0.0,0.0,0.0,0.0,0.0,0.0,0.0,0.0,0.0,0.0,0.0,0.0,0.0,0.0,0.0,0.0,0.0,0.0,0.0,0.0,0.0,0.0,0.0,0.0,0.0,0.0,0.0,0.0,0.0,0.0,0.0,0.0,0.0,0.0,0.0,0.0,0.0,0.0,0.0,0.0,0.0,0.0,0.0,0.0,0.0,0.0,0.0,0.0,0.0,0.0,0.0,0.0,0.0,0.0,0.0,0.0,0.0,0.0,0.0,0.0,0.0,0.0,0.0,0.0,0.0,0.0,0.0,0.0,0.0,0.0,0.0,0.0,0.0,0.0,0.0,0.0,0.0,0.0,0.0,0.0,0.0,0.0,0.0,0.0,0.0,0.0,0.0,0.0,0.0,0.0,0.0,0.0,0.0,0.0,0.0,0.0,0.0,0.0,0.0,0.0,0.0,0.0,0.0,0.0,0.0,0.0,0.0,0.0,0.0,0.0,0.0,0.0,0.0,0.0,0.0,0.0,0.0,0.0,0.0,0.0,0.0,0.0,0.0,0.0,0.0,0.0,0.0,0.0,0.0,0.0,0.0,0.0,0.0,0.0,0.0,0.0,0.0,0.0,0.0,0.0,0.0,0.0,0.0,0.0,0.0,0.0,0.0,0.0,0.0,0.0,0.0,0.0,0.0,0.0,0.0,0.0,0.0,0.0,0.0,0.0,0.0,0.0,0.0,0.0,0.0,0.0,0.0,0.0,0.0,0.0,0.0,0.0,0.0,0.0,0.0,0.0,0.0,0.0,0.0,0.0,0.0,0.0,0.0,0.0,0.0,0.0,0.0,0.0,0.0,0.0,0.0,0.0,0.0,0.0,0.0,0.0,0.0,0.0,0.0,0.0,0.0,0.0,0.0,0.0,0.0,0.0,0.0,0.0,0.0,0.0,0.0,0.0,0.0,0.0,0.0,0.0,0.0,0.0,0.0,0.0,0.0,0.0,0.0,0.0,0.0,0.0,0.0,0.0,0.0,0.0,0.0,0.0,0.0,0.0,0.0,0.0,0.0,0.0,0.0,0.0,0.0,0.0,0.0,0.0,0.0,0.0,0.0,0.0,0.0,0.0,0.0,0.0,0.0,0.0,0.0,0.0,0.0,0.0,0.0,0.0,0.0,0.0,0.0,0.0,0.0,0.0,0.0,0.0,0.0,0.0,0.0,0.0,0.0,0.0,0.0,0.0,0.0,0.0,0.0,0.0,0.0,0.0,0.0,0.0,0.0,0.0,0.0,0.0,0.0,0.0,0.0,0.0,0.0,0.0,0.0,0.0,0.0,0.0,0.0,0.0,0.0,0.0,0.0,0.0,0.0,0.0,0.0,0.0,0.0,0.0,0.0,0.0,0.0,0.0,0.0,0.0,0.0,0.0,0.0,0.0,0.0,0.0,0.0,0.0,0.0,0.0,0.0,0.0,0.0,0.0,0.0,0.0,0.0,0.0,0.0,0.0,0.0,0.0,0.0,0.0,0.0,0.0,0.0,0.0,0.0,0.0,0.0,0.0,0.0,0.0,0.0,0.0,0.0,0.0,0.0,0.0,0.0,0.0,0.0,0.0,0.0,0.0,0.0,0.0,0.0,0.0,0.0,0.0,0.0,0.0,0.0,0.0,0.0,0.0,0.0,0.0,0.0,0.0,0.0,0.0,0.0,0.0,0.0,0.0,0.0,0.0,0.0,0.0,0.0,0.0,0.0,0.0,0.0,0.0,0.0,0.0,0.0,0.0,0.0,0.0,0.0,0.0,0.0,0.0,0.0,0.0,0.0,0.0,0.0,0.0,0.0,0.0,0.0,0.0,0.0,0.0,0.0,0.0,0.0,0.0,0.0,0.0,0.0,0.0,0.0,0.0,0.0,0.0,0.0,0.0,0.0,0.0,0.0,0.0,0.0,0.0,0.0,0.0,0.0,0.0,0.0,0.0,0.0,0.0,0.0,0.0,0.0,0.0,0.0,0.0,0.0,0.0,0.0,0.0,0.0,0.0,0.0,0.0,0.0,0.0,0.0,0.0,0.0,0.0,0.0,0.0,0.0,0.0,0.0,0.0,0.0,0.0,0.0,0.0,0.0,0.0,0.0,0.0,0.0,0.0,0.0,0.0,0.0,0.0,0.0,0.0,0.0,0.0,0.0,0.0,0.0,0.0,0.0,0.0,0.0,0.0,0.0,0.0,0.0,0.0,0.0,0.0,0.0,0.0,0.0,0.0,0.0,0.0,0.0,0.0,0.0,0.0,0.0,0.0,0.0,0.0,0.0,0.0,0.0,0.0,0.0,0.0,0.0,0.0,0.0,0.0,0.0,0.0,0.0,0.0,0.0,0.0,0.0,0.0,0.0,0.0,0.0,0.0,0.0,0.0,0.0,0.0,0.0,0.0,0.0,0.0,0.0,0.0,0.0,0.0,0.0,0.0,0.0,0.0,0.0,0.0,0.0,0.0,0.0,0.0,0.0,0.0,0.0,0.0,0.0,0.0,0.0,0.0,0.0,0.0,0.0,0.0,0.0,0.0,0.0,0.0,0.0,0.0,0.0,0.0,0.0,0.0,0.0,0.0,0.0,0.0,0.0,0.0,0.0,0.0,0.0,0.0,0.0,0.0,0.0,0.0,0.0,0.0,0.0,0.0,0.0,0.0,0.0,0.0,0.0,0.0,0.0,0.0,0.0,0.0,0.0,0.0,0.0,0.0,0.0,0.0,0.0,0.0,0.0,0.0,0.0,0.0,0.0,0.0,0.0,0.0,0.0,0.0,0.0,0.0,0.0,0.0,0.0,0.0,0.0,0.0,0.0,0.0,0.0,0.0,0.0,0.0,0.0,0.0,0.0,0.0,0.0,0.0,0.0,0.0,0.0,0.0,0.0,0.0,0.0,0.0,0.0,0.0,0.0,0.0,0.0,0.0,0.0,0.0,0.0,0.0,0.0,0.0,0.0,0.0,0.0,0.0,0.0,0.0,0.0,0.0,0.0,0.0,0.0,0.0,0.0,0.0,0.0,0.0,0.0,0.0,0.0,0.0,0.0,0.0,0.0,0.0,0.0,0.0,0.0,0.0,0.0,0.0,0.0,0.0,0.0,0.0,0.0,0.0,0.0,0.0,0.0,0.0,0.0,0.0,0.0,0.0,0.0,0.0,0.0,0.0,0.0,0.0,0.0,0.0,0.0,0.0,0.0,0.0,0.0,0.0,0.0,0.0,0.0,0.0,0.0,0.0,0.0,0.0,0.0,0.0,0.0,0.0,0.0,0.0,0.0,0.0,0.0,0.0,0.0,0.0,0.0,0.0,0.0,0.0,0.0,0.0,0.0,0.0,0.0,0.0,0.0,0.0,0.0,0.0,0.0,0.0,0.0,0.0,0.0,0.0,0.0,0.0,0.0,0.0,0.0,0.0,0.0,0.0,0.0,0.0,0.0,0.0,0.0,0.0,0.0,0.0,0.0,0.0,0.0,0.0,0.0,0.7248,0.0,0.0,0.0,0.0,0.0,0.0,0.0,0.0,0.0,0.0,0.0,0.0,0.0,0.0,0.0,0.0,0.0,0.0,0.0,0.0,0.0,0.0,0.0,0.0,0.0,0.0,0.0,0.0,0.0,0.0,0.0,0.0,0.0,0.0,0.0,0.0,0.0,0.0,0.0,0.0,0.0,0.0,0.0,0.0,0.0,0.0,0.0,0.0,0.0,0.0,0.0,0.0,0.0,0.0,0.0,0.0,0.0,0.0,0.0,0.0,0.0,0.0,0.0,0.0,0.0,0.0,0.0,0.0,0.0,0.0,0.0,0.0,0.0,0.0,0.0,0.0,0.0,0.0,0.0,0.0,0.0,0.0,0.0,0.0,0.0,0.0,0.0,0.0,0.0,0.0,0.0,0.0,0.0,0.0,0.0,0.0,0.0,0.0,0.0,0.0,0.0,0.0,0.0,0.0,0.0,0.0,0.0,0.0,0.0,0.0,0.7171,0.73,0.7377,0.7469,0.756,0.0,0.0,0.0,0.0,0.0,0.0,0.0,0.0,0.0,0.0,0.0,0.0,0.0,0.0,0.0,0.0,0.0,0.0,0.0,0.0,0.0,0.0,0.0,0.0,0.0,0.0,0.0,0.0,0.0,0.0,0.0,0.0,0.0,0.0,0.0,0.0,0.0,0.0,0.0,0.0,0.0,0.0,0.0,0.0,0.0,0.0,0.0,0.0,0.0,0.0,0.0,0.0,0.0,0.0,0.0,0.0,0.0,0.0,0.0,0.0,0.0,0.0,0.0,0.0,0.0,0.0,0.0,0.0,0.0,0.0,0.0,0.0,0.0,0.0,0.0,0.0,0.0,0.0,0.0,0.0,0.0,0.0,0.0,0.0,0.0,0.0,0.0,0.0,0.0,0.0,0.0,0.0,0.0,0.0,0.0,0.0,0.0,0.0,0.0,0.0,0.0,0.0,0.0,0.0,0.0,0.0,0.0,0.0,0.0,0.0,0.0,0.0,0.7853,0.7944,0.7975,0.0,0.0,0.0,0.0,0.0,0.0,0.0,0.0,0.0,0.0,0.0,0.0,0.0,0.0,0.0,0.0,0.0,0.0,0.0,0.0,0.0,0.0,0.0,0.0,0.0,0.0,0.0,0.0,0.0,0.0,0.0,0.0,0.0,0.0,0.0,0.0,0.0,0.0,0.0,0.0,0.0,0.0,0.0,0.0,0.0,0.0,0.0,0.0,0.0,0.0,0.0,0.0,0.0,0.0,0.0,0.0,0.0,0.0,0.0,0.0,0.0,0.0,0.0,0.0,0.0,0.0,0.0,0.0,0.0,0.0,0.0,0.0,0.0,0.0,0.0,0.0,0.0,0.0,0.0,0.0,0.0,0.0,0.0,0.0,0.0,0.0,0.0,0.0,0.0,0.0,0.0,0.0,0.0,0.0,0.0,0.0,0.0,0.0,0.0,0.0,0.0,0.0,0.0,0.0,0.0,0.0,0.0,0.0,0.0,0.0,0.7895,0.8737,0.8671,0.0,0.8738,0.0,0.0,0.0,0.0,0.0,0.0,0.0,0.0,0.0,0.0,0.0,0.0,0.0,0.0,0.0,0.0,0.0,0.0,0.0,0.0,0.0,0.0,0.0,0.0,0.0,0.0,0.0,0.0,0.0,0.0,0.0,0.0,0.0,0.0,0.0,0.0,0.0,0.0,0.0,0.0,0.0,0.0,0.0,0.0,0.0,0.0,0.0,0.0,0.0,0.0,0.0,0.0,0.0,0.0,0.0,0.0,0.0,0.0,0.0,0.0,0.0,0.0,0.0,0.0,0.0,0.0,0.0,0.0,0.0,0.0,0.0,0.0,0.0,0.0,0.0,0.0,0.0,0.0,0.0,0.0,0.0,0.0,0.0,0.0,0.0,0.0,0.0,0.0,0.0,0.0,0.0,0.0,0.0,0.0,0.0,0.0,0.0,0.0,0.0,0.0,0.0,0.0,0.0,0.0,0.0,0.0,0.0,0.0,0.0,0.0,0.8063,0.8875,0.8874,0.8772,0.0,0.0,0.0,0.0,0.0,0.0,0.0,0.0,0.0,0.0,0.0,0.0,0.0,0.0,0.0,0.0,0.0,0.0,0.0,0.0,0.0,0.0,0.0,0.0,0.0,0.0,0.0,0.0,0.0,0.0,0.0,0.0,0.0,0.0,0.0,0.0,0.0,0.0,0.0,0.0,0.0,0.0,0.0,0.0,0.0,0.0,0.0,0.0,0.0,0.0,0.0,0.0,0.0,0.0,0.0,0.0,0.0,0.0,0.0,0.0,0.0,0.0,0.0,0.0,0.0,0.0,0.0,0.0,0.0,0.0,0.0,0.0,0.0,0.0,0.0,0.0,0.0,0.0,0.0,0.0,0.0,0.0,0.0,0.0,0.0,0.0,0.0,0.0,0.0,0.0,0.0,0.0,0.0,0.0,0.0,0.0,0.0,0.0,0.0,0.0,0.0,0.0,0.0,0.0,0.0,0.0,0.0,0.0,0.0,0.0,0.8035,0.8169,0.8845,0.8804,0.8666,0.8432,0.0,0.0,0.0,0.0,0.0,0.0,0.0,0.0,0.0,0.0,0.0,0.0,0.0,0.0,0.0,0.0,0.0,0.0,0.0,0.0,0.0,0.0,0.0,0.0,0.0,0.0,0.0,0.0,0.0,0.0,0.0,0.0,0.0,0.0,0.0,0.0,0.0,0.0,0.0,0.0,0.0,0.0,0.0,0.0,0.0,0.0,0.0,0.0,0.0,0.0,0.0,0.0,0.0,0.0,0.0,0.0,0.0,0.0,0.0,0.0,0.0,0.0,0.0,0.0,0.0,0.0,0.0,0.0,0.0,0.0,0.0,0.0,0.0,0.0,0.0,0.0,0.0,0.0,0.0,0.0,0.0,0.0,0.0,0.0,0.0,0.0,0.0,0.0,0.0,0.0,0.0,0.0,0.0,0.0,0.0,0.0,0.0,0.0,0.0,0.0,0.0,0.0,0.0,0.0,0.0,0.0,0.0,0.0,0.965,0.8528,0.8214,0.8831,0.8406,0.8431,0.0,0.0,0.0,0.0,0.0,0.0,0.0,0.0,0.0,0.0,0.0,0.0,0.0,0.0,0.0,0.0,0.0,0.0,0.0,0.0,0.0,0.0,0.0,0.0,0.0,0.0,0.0,0.0,0.0,0.0,0.0,0.0,0.0,0.0,0.0,0.0,0.0,0.0,0.0,0.0,0.0,0.0,0.0,0.0,0.0,0.0,0.0,0.0,0.0,0.0,0.0,0.0,0.0,0.0,0.0,0.0,0.0,0.0,0.0,0.0,0.0,0.0,0.0,0.0,0.0,0.0,0.0,0.0,0.0,0.0,0.0,0.0,0.0,0.0,0.0,0.0,0.0,0.0,0.0,0.0,0.0,0.0,0.0,0.0,0.0,0.0,0.0,0.0,0.0,0.0,0.0,0.0,0.0,0.0,0.0,0.0,0.0,0.0,0.0,0.0,0.0,0.0,0.0,0.0,0.0,0.0,0.0,0.0,0.0,0.8018,0.8071,0.804,0.796,0.8625,0.895,0.0,0.0,0.0,0.0,0.0,0.0,0.0,0.0,0.0,0.0,0.0,0.0,0.0,0.0,0.0,0.0,0.0,0.0,0.0,0.0,0.0,0.0,0.0,0.0,0.0,0.0,0.0,0.0,0.0,0.0,0.0,0.0,0.0,0.0,0.0,0.0,0.0,0.0,0.0,0.0,0.0,0.0,0.0,0.0,0.0,0.0,0.0,0.0,0.0,0.0,0.0,0.0,0.0,0.0,0.0,0.0,0.0,0.0,0.0,0.0,0.0,0.0,0.0,0.0,0.0,0.0,0.0,0.0,0.0,0.0,0.0,0.0,0.0,0.0,0.0,0.0,0.0,0.0,0.0,0.0,0.0,0.0,0.0,0.0,0.0,0.0,0.0,0.0,0.0,0.0,0.0,0.0,0.0,0.0,0.0,0.0,0.0,0.0,0.0,0.0,0.0,0.0,0.0,0.0,0.0,0.0,0.0,0.0,0.0,0.7058,0.0,0.8185,0.7704,0.8663,0.9062,0.0,0.0,0.0,0.0,0.0,0.0,0.0,0.0,0.0,0.0,0.0,0.0,0.0,0.0,0.0,0.0,0.0,0.0,0.0,0.0,0.0,0.0,0.0,0.0,0.0,0.0,0.0,0.0,0.0,0.0,0.0,0.0,0.0,0.0,0.0,0.0,0.0,0.0,0.0,0.0,0.0,0.0,0.0,0.0,0.0,0.0,0.0,0.0,0.0,0.0,0.0,0.0,0.0,0.0,0.0,0.0,0.0,0.0,0.0,0.0,0.0,0.0,0.0,0.0,0.0,0.0,0.0,0.0,0.0,0.0,0.0,0.0,0.0,0.0,0.0,0.0,0.0,0.0,0.0,0.0,0.0,0.0,0.0,0.0,0.0,0.0,0.0,0.0,0.0,0.0,0.0,0.0,0.0,0.0,0.0,0.0,0.0,0.0,0.0,0.0,0.0,0.0,0.0,0.0,0.0,0.0,0.0,0.0,0.7015,0.7058,0.8285,0.8649,0.8131,0.8441,0.8665,0.0,0.0,0.0,0.0,0.0,0.0,0.0,0.0,0.0,0.0,0.0,0.0,0.0,0.0,0.0,0.0,0.0,0.0,0.0,0.0,0.0,0.0,0.0,0.0,0.0,0.0,0.0,0.0,0.0,0.0,0.0,0.0,0.0,0.0,0.0,0.0,0.0,0.0,0.0,0.0,0.0,0.0,0.0,0.0,0.0,0.0,0.0,0.0,0.0,0.0,0.0,0.0,0.0,0.0,0.0,0.0,0.0,0.0,0.0,0.0,0.0,0.0,0.0,0.0,0.0,0.0,0.0,0.0,0.0,0.0,0.0,0.0,0.0,0.0,0.0,0.0,0.0,0.0,0.0,0.0,0.0,0.0,0.0,0.0,0.0,0.0,0.0,0.0,0.0,0.0,0.0,0.0,0.0,0.0,0.0,0.0,0.0,0.0,0.0,0.0,0.0,0.0,0.0,0.0,0.0,0.0,0.0,0.0,0.0,0.7174,0.776,0.8257,0.8567,0.8719,0.9069,0.0,0.0,0.0,0.0,0.0,0.0,0.0,0.0,0.0,0.0,0.0,0.0,0.0,0.0,0.0,0.0,0.0,0.0,0.0,0.0,0.0,0.0,0.0,0.0,0.0,0.0,0.0,0.0,0.0,0.0,0.0,0.0,0.0,0.0,0.0,0.0,0.0,0.0,0.0,0.0,0.0,0.0,0.0,0.0,0.0,0.0,0.0,0.0,0.0,0.0,0.0,0.0,0.0,0.0,0.0,0.0,0.0,0.0,0.0,0.0,0.0,0.0,0.0,0.0,0.0,0.0,0.0,0.0,0.0,0.0,0.0,0.0,0.0,0.0,0.0,0.0,0.0,0.0,0.0,0.0,0.0,0.0,0.0,0.0,0.0,0.0,0.0,0.0,0.0,0.0,0.0,0.0,0.0,0.0,0.0,0.0,0.0,0.0,0.0,0.0,0.0,0.0,0.0,0.0,0.0,0.0,0.0,0.0,0.0,0.8113,0.8029,0.8381,0.9164,0.8963,0.9089,0.9557,0.0,0.0,0.0,0.0,0.0,0.0,0.0,0.0,0.0,0.0,0.0,0.0,0.0,0.0,0.0,0.0,0.0,0.0,0.0,0.0,0.0,0.0,0.0,0.0,0.0,0.0,0.0,0.0,0.0,0.0,0.0,0.0,0.0,0.0,0.0,0.0,0.0,0.0,0.0,0.0,0.0,0.0,0.0,0.0,0.0,0.0,0.0,0.0,0.0,0.0,0.0,0.0,0.0,0.0,0.0,0.0,0.0,0.0,0.0,0.0,0.0,0.0,0.0,0.0,0.0,0.0,0.0,0.0,0.0,0.0,0.0,0.0,0.0,0.0,0.0,0.0,0.0,0.0,0.0,0.0,0.0,0.0,0.0,0.0,0.0,0.0,0.0,0.0,0.0,0.0,0.0,0.0,0.0,0.0,0.0,0.0,0.0,0.0,0.0,0.0,0.0,0.0,0.0,0.0,0.0,0.0,0.0,0.0,0.9618,0.8973,0.9052,0.9828,0.9226,0.8891,0.0,0.0,0.0,0.0,0.0,0.0,0.0,0.0,0.0,0.0,0.0,0.0,0.0,0.0,0.0,0.0,0.0,0.0,0.0,0.0,0.0,0.0,0.0,0.0,0.0,0.0,0.0,0.0,0.0,0.0,0.0,0.0,0.0,0.0,0.0,0.0,0.0,0.0,0.0,0.0,0.0,0.0,0.0,0.0,0.0,0.0,0.0,0.0,0.0,0.0,0.0,0.0,0.0,0.0,0.0,0.0,0.0,0.0,0.0,0.0,0.0,0.0,0.0,0.0,0.0,0.0,0.0,0.0,0.0,0.0,0.0,0.0,0.0,0.0,0.0,0.0,0.0,0.0,0.0,0.0,0.0,0.0,0.0,0.0,0.0,0.0,0.0,0.0,0.0,0.0,0.0,0.0,0.0,0.0,0.0,0.0,0.0,0.0,0.0,0.0,0.0,0.0,0.0,0.0,0.0,0.0,0.0,0.0,0.0,0.9681,1.0106,1.0458,1.067,1.0038,0.9684,0.0,0.0,0.0,0.0,0.0,0.0,0.0,0.0,0.0,0.0,0.0,0.0,0.0,0.0,0.0,0.0,0.0,0.0,0.0,0.0,0.0,0.0,0.0,0.0,0.0,0.0,0.0,0.0,0.0,0.0,0.0,0.0,0.0,0.0,0.0,0.0,0.0,0.0,0.0,0.0,0.0,0.0,0.0,0.0,0.0,0.0,0.0,0.0,0.0,0.0,0.0,0.0,0.0,0.0,0.0,0.0,0.0,0.0,0.0,0.0,0.0,0.0,0.0,0.0,0.0,0.0,0.0,0.0,0.0,0.0,0.0,0.0,0.0,0.0,0.0,0.0,0.0,0.0,0.0,0.0,0.0,0.0,0.0,0.0,0.0,0.0,0.0,0.0,0.0,0.0,0.0,0.0,0.0,0.0,0.0,0.0,0.0,0.0,0.0,0.0,0.0,0.0,0.0,0.0,0.0,0.0,0.0,0.0,1.0156,1.0184,1.1371,1.1864,1.1561,1.1169,1.0822,0.0,0.0,0.0,0.0,0.0,0.0,0.0,0.0,0.0,0.0,0.0,0.0,0.0,0.0,0.0,0.0,0.0,0.0,0.0,0.0,0.0,0.0,0.0,0.0,0.0,0.0,0.0,0.0,0.0,0.0,0.0,0.0,0.0,0.0,0.0,0.0,0.0,0.0,0.0,0.0,0.0,0.0,0.0,0.0,0.0,0.0,0.0,0.0,0.0,0.0,0.0,0.0,0.0,0.0,0.0,0.0,0.0,0.0,0.0,0.0,0.0,0.0,0.0,0.0,0.0,0.0,0.0,0.0,0.0,0.0,0.0,0.0,0.0,0.0,0.0,0.0,0.0,0.0,0.0,0.0,0.0,0.0,0.0,0.0,0.0,0.0,0.0,0.0,0.0,0.0,0.0,0.0,0.0,0.0,0.0,0.0,0.0,0.0,0.0,0.0,0.0,0.0,0.0,0.0,0.0,0.0,0.0,0.0,1.0869,1.0825,1.2505,1.3074,1.2432,1.2348,1.195,0.0,0.0,0.0,0.0,0.0,0.0,0.0,0.0,0.0,0.0,0.0,0.0,0.0,0.0,0.0,0.0,0.0,0.0,0.0,0.0,0.0,0.0,0.0,0.0,0.0,0.0,0.0,0.0,0.0,0.0,0.0,0.0,0.0,0.0,0.0,0.0,0.0,0.0,0.0,0.0,0.0,0.0,0.0,0.0,0.0,0.0,0.0,0.0,0.0,0.0,0.0,0.0,0.0,0.0,0.0,0.0,0.0,0.0,0.0,0.0,0.0,0.0,0.0,0.0,0.0,0.0,0.0,0.0,0.0,0.0,0.0,0.0,0.0,0.0,0.0,0.0,0.0,0.0,0.0,0.0,0.0,0.0,0.0,0.0,0.0,0.0,0.0,0.0,0.0,0.0,0.0,0.0,0.0,0.0,0.0,0.0,0.0,0.0,0.0,0.0,0.0,0.0,0.0,0.0,0.0,0.0,0.0,0.0,1.0839,1.0914,1.2521,1.3312,1.3143,1.2601,1.1669,0.0,0.0,0.0,0.0,0.0,0.0,0.0,0.0,0.0,0.0,0.0,0.0,0.0,0.0,0.0,0.0,0.0,0.0,0.0,0.0,0.0,0.0,0.0,0.0,0.0,0.0,0.0,0.0,0.0,0.0,0.0,0.0,0.0,0.0,0.0,0.0,0.0,0.0,0.0,0.0,0.0,0.0,0.0,0.0,0.0,0.0,0.0,0.0,0.957,0.0,0.0,0.0,0.0,0.0,0.0,0.0,0.0,0.0,0.0,0.0,0.0,0.0,0.0,0.0,0.0,0.0,0.0,0.0,0.0,0.0,0.0,0.0,0.0,0.0,0.0,0.0,0.0,0.0,0.0,0.0,0.0,0.0,0.0,0.0,0.0,0.0,0.0,0.0,0.0,0.0,0.0,0.0,0.0,0.0,0.0,0.0,0.0,0.0,0.0,0.0,0.0,0.0,0.0,0.0,0.0,0.0,0.0,0.0,1.0987,1.1349,1.2673,1.3396,1.3362,1.2686,1.2092,0.0,0.0,0.0,0.0,0.0,0.0,0.0,0.0,0.0,0.0,0.0,0.0,0.0,0.0,0.0,0.0,0.0,0.0,0.0,0.0,0.0,0.0,0.0,0.0,0.0,0.0,0.0,0.0,0.0,0.0,0.0,0.0,0.0,0.0,0.0,0.0,0.0,0.0,0.0,0.0,0.0,0.0,0.0,0.0,0.0,0.0,0.0,0.0,0.0,0.0,0.0,0.0,0.0,0.0,0.0,0.0,0.0,0.0,0.0,0.0,0.0,0.0,0.0,0.0,0.0,0.0,0.0,0.0,0.0,0.0,0.0,0.0,0.0,0.0,0.0,0.0,0.0,0.0,0.0,0.0,0.0,0.0,0.0,0.0,0.0,0.0,0.0,0.0,0.0,0.0,0.0,0.0,0.0,0.0,0.0,0.0,0.0,0.0,0.0,0.0,0.0,0.0,0.0,0.0,0.0,0.0,0.0,1.0394,1.1251,1.2006,1.2908,1.3396,1.3396,1.2787,1.2784,1.3443,0.0,0.0,0.0,0.0,0.0,0.0,0.0,0.0,0.0,0.0,0.0,0.0,0.0,0.0,0.0,0.0,0.0,0.0,0.0,0.0,0.0,0.0,0.0,0.0,0.0,0.0,0.0,0.0,0.0,0.0,0.0,0.0,0.0,0.0,0.0,0.0,0.0,0.0,0.8394,1.0499,0.0,0.0,0.0,0.0,0.0,0.0,0.0,0.0,1.2364,0.0,0.0,0.0,0.0,0.0,0.0,0.0,0.0,0.0,0.0,0.0,0.0,0.0,0.0,0.0,0.0,0.0,0.0,0.0,0.0,0.0,0.0,0.0,0.0,0.0,0.0,0.0,0.0,0.0,0.0,0.0,0.0,0.0,0.0,0.0,0.0,0.0,0.0,0.0,0.0,0.0,0.0,0.0,0.0,0.0,0.0,0.0,0.0,0.0,0.0,0.0,0.0,0.0,0.0,0.0,0.0,1.0908,1.0865,1.1497,1.2851,1.321,1.3396,1.3396,1.3295,1.3278,1.3328,0.0,0.0,0.0,0.0,0.0,0.0,0.0,0.0,0.0,0.0,0.0,0.0,0.0,0.0,0.0,0.0,0.0,0.0,0.0,0.0,0.0,0.0,0.0,0.0,0.0,0.0,0.0,0.0,0.0,0.0,0.0,0.0,0.0,0.0,0.0,0.0,0.0,0.0,0.0,1.3014,1.451,0.0,0.0,0.0,0.0,0.0,0.0,0.0,0.0,1.2382,0.0,0.0,0.0,0.0,0.0,0.0,0.0,0.0,0.0,0.0,0.0,0.0,0.0,0.0,0.0,0.0,0.0,0.0,0.0,0.0,0.0,0.0,0.0,0.0,0.0,0.0,0.0,0.0,0.0,0.0,0.0,0.0,0.0,0.0,0.0,0.0,0.0,0.0,0.0,0.0,0.0,0.0,0.0,0.0,0.0,0.0,0.0,0.0,0.0,0.0,0.0,0.0,0.0,0.0,0.0,1.0025,1.0096,1.0636,1.1811,1.2071,1.2165,1.2211,1.2211,1.2397,0.0,0.0,0.0,0.0,0.0,0.0,0.0,0.0,0.0,0.0,0.0,0.0,0.0,0.0,0.0,0.0,0.0,0.0,0.0,0.0,0.0,0.0,0.0,0.0,0.0,0.0,0.0,0.0,0.0,0.0,0.0,0.0,0.0,0.0,0.0,0.0,0.0,0.0,0.0,0.0,1.361,1.4599,1.426,0.0,0.0,0.0,0.0,0.0,0.0,1.4246,1.4333,0.0,0.0,0.0,0.0,0.0,0.0,0.0,0.0,0.0,0.0,0.0,0.0,0.0,0.0,0.0,0.0,0.0,0.0,0.0,0.0,0.0,0.0,0.0,0.0,0.0,0.0,0.0,0.0,0.0,0.0,0.0,0.0,0.0,0.0,0.0,0.0,0.0,0.0,0.0,0.0,0.0,0.0,0.0,0.0,0.0,0.0,0.0,0.0,0.0,0.0,0.0,0.0,0.0,0.0,0.0,0.9282,0.9417,0.9866,1.0699,1.0926,1.1056,1.1113,1.1265,1.1637,0.0,0.0,0.0,0.0,0.0,0.0,0.0,0.0,0.0,0.0,0.0,0.0,0.0,0.0,0.0,0.0,0.0,0.0,0.0,0.0,0.0,0.0,0.0,0.0,0.0,0.0,0.0,0.0,0.0,0.0,0.0,0.0,0.0,0.0,0.0,0.0,0.0,0.0,0.0,0.0,0.0,1.4881,1.4684,1.5475,0.0,0.0,0.0,0.0,1.5239,1.654,0.0,0.0,0.0,0.0,0.0,0.0,0.0,0.0,0.0,0.0,0.0,0.0,0.0,0.0,0.0,0.0,0.0,0.0,0.0,0.0,0.0,0.0,0.0,0.0,0.0,0.0,0.0,0.0,0.0,0.0,0.0,0.0,0.0,0.0,0.0,0.0,0.0,0.0,0.0,0.0,0.0,0.0,0.0,0.0,0.0,0.0,0.0,0.0,0.0,0.0,0.0,0.0,0.0,0.0,0.0,0.0,1.0319,0.9922,1.0055,1.0834,1.1011,1.1096,1.1113,1.1789,1.2195,0.0,0.0,0.0,0.0,0.0,0.0,0.0,0.0,0.0,0.0,0.0,0.0,0.0,0.0,0.0,0.0,0.0,0.0,0.0,0.0,0.0,0.0,0.0,0.0,0.0,0.0,0.0,0.0,0.0,0.0,0.0,0.0,0.0,0.0,0.0,0.0,0.0,0.0,0.0,0.0,0.0,1.7034,1.5663,1.6794,1.7532,0.0,0.0,0.0,1.7385,1.8886,0.0,0.0,0.0,0.0,0.0,0.0,0.0,0.0,0.0,0.0,0.0,0.0,0.0,0.0,0.0,0.0,0.0,0.0,0.0,0.0,0.0,0.0,0.0,0.0,0.0,0.0,0.0,0.0,0.0,0.0,0.0,0.0,0.0,0.0,0.0,0.0,0.0,0.0,0.0,0.0,0.0,0.0,0.0,0.0,0.0,0.0,0.0,0.0,0.0,0.0,0.0,0.0,0.0,0.0,0.0,0.8701,0.9686,0.9274,0.9229,0.9627,0.976,1.0009,1.047,1.1214,1.184,0.0,0.0,0.0,0.0,0.0,0.0,0.0,0.0,0.0,0.0,0.0,0.0,0.0,0.0,0.0,0.0,0.0,0.0,0.0,0.0,0.0,0.0,0.0,0.0,0.0,0.0,0.0,0.0,0.0,0.0,0.0,0.0,0.0,0.0,0.0,0.0,0.0,0.0,0.0,0.0,0.0,0.0,1.7105,1.8045,0.0,0.0,0.0,1.8739,1.8629,0.0,0.0,0.0,0.0,0.0,0.0,0.0,0.0,0.0,0.0,0.0,0.0,0.0,0.0,0.0,0.0,0.0,0.0,0.0,0.0,0.0,0.0,0.0,0.0,0.0,0.0,0.0,0.0,0.0,0.0,0.0,0.0,0.0,0.0,0.0,0.0,0.0,0.0,0.0,0.0,0.0,0.0,0.0,0.0,0.0,0.0,0.0,0.0,0.0,0.0,0.0,0.0,0.0,0.0,0.0,0.0,0.0,0.9483,0.8877,0.8608,0.8729,0.8978,0.9378,0.9984,1.0893,0.0,0.0,0.0,0.0,0.0,0.0,0.0,0.0,0.0,0.0,0.0,0.0,0.0,0.0,0.0,0.0,0.0,0.0,0.0,0.0,0.0,0.0,0.0,0.0,0.0,0.0,0.0,0.7907,0.0,0.0,0.0,0.0,0.0,0.0,0.0,0.0,0.0,0.0,0.0,0.0,0.0,0.0,1.8126,1.8372,1.9271,1.9929,0.0,0.0,2.0079,1.9675,2.0335,2.2196,0.0,0.0,0.0,0.0,0.0,0.0,0.0,0.0,0.0,0.0,0.0,0.0,0.0,0.0,0.0,0.0,0.0,0.0,0.0,0.0,0.0,0.0,0.0,0.0,0.0,0.0,0.0,0.0,0.0,0.0,0.0,0.0,0.0,0.0,0.0,0.0,0.0,0.0,0.0,0.0,0.0,0.0,0.0,0.0,0.0,0.0,0.0,0.0,0.0,0.0,0.0,0.0,0.0,0.0,0.0,1.0565,0.936,0.8729,0.8816,0.9542,0.995,1.0018,1.1434,1.2246,0.0,0.0,0.0,0.0,0.0,0.0,0.0,0.0,0.0,0.0,0.0,0.0,0.0,0.0,0.0,0.0,0.0,0.0,0.0,0.0,0.0,0.0,0.0,0.0,0.0,0.0,0.0,0.0,0.0,0.0,0.0,0.0,0.0,0.0,0.0,0.0,0.0,0.0,0.0,0.0,0.0,1.8372,1.9106,2.0609,2.1637,0.0,0.0,2.2226,2.0649,2.3199,2.4136,2.0559,0.0,0.0,0.0,0.0,0.0,0.0,0.0,0.0,0.0,0.0,0.0,0.0,0.0,0.0,0.0,0.0,0.0,0.0,0.0,0.0,0.0,0.0,0.0,0.0,0.0,0.0,0.0,0.0,0.0,0.0,0.0,0.0,0.0,0.0,0.0,0.0,0.0,0.0,0.0,0.0,0.0,0.0,0.0,0.0,0.0,0.0,0.0,0.0,0.0,0.0,0.0,0.0,0.0,0.9278,1.0761,0.9902,0.9463,0.9576,1.0275,1.0927,1.1417,1.1992,1.2517,0.0,0.0,0.0,0.0,0.0,0.0,0.0,0.0,0.0,0.0,0.0,0.0,0.0,0.0,0.0,0.0,0.0,0.0,0.0,0.0,0.0,0.0,0.0,0.0,0.0,0.0,0.0,0.0,0.8272,0.891,0.9348,0.0,0.0,0.0,0.0,0.0,0.0,0.0,0.0,0.0,0.0,1.9413,2.131,2.2134,0.0,0.0,2.3125,2.2978,2.2813,2.3364,2.2795,1.9785,2.1377,0.0,0.0,0.0,0.0,0.0,0.0,0.0,0.0,0.0,0.0,0.0,0.0,0.0,0.0,0.0,0.0,0.0,0.0,0.0,0.0,0.0,0.0,0.0,0.0,0.0,0.0,0.0,0.0,0.0,0.0,0.0,0.0,0.0,0.0,0.0,0.0,0.0,0.0,0.0,0.0,0.0,0.0,0.0,0.0,0.0,0.0,0.0,0.0,0.0,0.0,0.0,0.0,0.9955,1.1007,1.0522,1.0356,1.0573,1.1158,1.1722,1.228,1.25,1.2888,0.0,0.0,0.0,0.0,0.0,0.0,0.0,0.0,0.0,0.0,0.0,0.0,0.0,0.0,0.0,0.0,0.0,0.0,0.0,0.0,0.0,0.0,0.0,0.0,0.0,0.0,0.0,0.0,0.9007,0.9806,1.0315,0.0,0.0,0.0,0.0,0.0,0.0,0.0,0.0,0.0,0.0,2.0365,2.2667,2.3198,2.3547,2.4116,2.3731,2.34,2.3456,2.3254,2.2225,1.9703,0.0,0.0,0.0,0.0,0.0,0.0,0.0,0.0,0.0,0.0,0.0,0.0,0.0,0.0,0.0,0.0,0.0,0.0,0.0,0.0,0.0,0.0,0.0,0.0,0.0,0.0,0.0,0.0,0.0,0.0,0.0,0.0,0.0,0.0,0.0,0.0,0.0,0.0,0.0,0.0,0.0,0.0,0.0,0.0,0.0,0.0,0.0,0.0,0.0,0.0,0.0,0.0,0.0,1.1082,1.1564,1.1248,1.1321,1.1809,1.2135,1.228,1.2331,1.3007,1.3379,1.3396,0.0,0.0,0.0,0.0,0.0,0.0,0.0,0.0,0.0,0.0,0.0,0.0,0.0,0.0,0.0,0.0,0.0,0.0,0.0,0.0,0.0,0.0,0.0,0.0,0.0,0.0,1.1356,1.0714,1.0291,0.0,0.0,0.0,0.0,0.0,0.0,0.0,0.0,0.0,0.0,1.9906,2.109,2.2776,2.3676,2.4153,2.419,2.4171,2.3639,2.2188,2.3162,2.3051,0.0,0.0,0.0,0.0,0.0,0.0,0.0,0.0,0.0,0.0,0.0,0.0,0.0,0.0,0.0,0.0,0.0,0.0,0.0,0.0,0.0,0.0,0.0,0.0,0.0,0.0,0.0,0.0,0.0,0.0,0.0,0.0,0.0,0.0,0.0,0.0,0.0,0.0,0.0,0.0,1.3226,1.2444,0.0,0.0,0.0,0.0,0.0,0.0,0.0,0.0,0.0,0.0,0.0,0.0,1.1194,1.1773,1.1738,1.1766,1.1908,1.2635,1.3024,1.3041,1.3261,1.3396,1.3396,0.0,0.0,0.0,0.0,0.0,0.0,0.0,0.0,0.0,0.0,0.0,0.0,0.0,0.0,0.0,0.0,0.0,0.0,0.0,0.0,0.0,0.0,0.0,0.0,0.0,1.2697,0.0,0.0,0.0,0.0,0.0,0.0,0.0,0.0,0.0,0.0,0.0,1.834,1.9118,2.0416,2.1696,2.285,2.3676,2.419,0.0,0.0,0.0,0.0,0.0,0.0,0.0,0.0,0.0,0.0,0.0,0.0,0.0,0.0,2.3547,1.9966,1.8702,1.8372,1.8827,0.0,0.0,0.0,0.0,0.0,0.0,0.0,0.0,0.0,0.0,0.0,0.0,0.0,0.0,0.0,0.0,1.2239,0.0,0.0,0.0,0.0,0.0,0.0,0.0,0.0,1.34,1.36,1.3769,1.2889,1.2481,0.0,1.3144,1.3374,0.0,0.0,0.0,0.0,0.0,0.0,0.0,0.0,1.1955,1.2306,1.2439,1.2471,1.2436,1.3058,1.3396,1.3396,1.3396,1.3396,1.3396,1.3396,1.2939,0.0,0.0,0.0,0.0,0.0,0.0,0.0,0.0,0.0,0.0,0.0,0.0,0.0,0.0,0.0,0.0,0.0,0.0,0.0,0.0,0.0,0.0,0.0,1.3258,0.0,0.0,0.0,0.0,0.0,0.0,0.0,0.0,0.0,1.6022,1.7769,1.9545,2.0831,2.1677,2.2447,2.329,0.0,0.0,0.0,0.0,0.0,0.0,0.0,2.2611,2.2502,2.2612,2.3474,2.5912,2.6055,2.5713,2.5458,0.0,0.0,2.2171,2.1253,2.1125,2.1492,2.1694,2.1804,2.1804,2.106,2.0716,0.0,0.0,0.0,0.0,0.0,0.0,0.0,0.0,1.2394,1.2991,0.0,0.0,0.0,0.0,0.0,0.0,0.0,0.0,0.0,0.0,1.4558,1.4528,1.4004,1.3893,1.3844,0.0,1.5154,1.5088,1.3867,1.2941,0.0,0.0,0.0,0.0,0.0,0.0,1.3344,1.3168,1.3361,1.3481,1.3515,1.3464,1.343,1.3396,1.3396,1.3396,1.3396,1.3396,1.3396,1.3379,1.3379,0.0,0.0,0.0,0.0,0.0,0.0,0.0,0.0,0.0,0.0,0.0,0.0,0.0,0.0,0.0,0.0,0.0,0.0,0.0,0.0,1.3927,0.0,0.0,0.0,0.0,0.0,0.0,0.0,0.0,0.0,0.0,1.8717,1.9107,2.0493,2.3731,0.0,0.0,0.0,0.0,2.4208,2.4245,2.4887,2.5146,2.441,2.4281,2.3216,2.0174,0.0,0.0,2.6264,2.6355,2.6465,2.5676,2.6245,2.6521,2.5952,2.4887,2.452,2.5456,2.4905,2.4355,2.4263,2.3617,2.323,1.1462,0.0,0.0,0.0,0.0,1.1836,1.2525,1.3249,1.3678,1.4092,1.4498,1.4303,0.0,0.0,0.0,0.0,0.0,0.0,1.4779,1.5259,1.5889,1.6308,1.6547,1.565,1.5206,1.5267,1.5622,1.5609,1.5188,1.399,1.3412,1.342,0.0,0.0,0.0,0.0,1.4291,1.4393,1.4532,1.4883,1.5449,1.4637,1.3921,1.3413,1.3396,1.3396,1.3396,1.3396,1.3396,1.3396,1.3396,0.0,0.0,0.0,0.0,0.0,0.0,0.0,0.0,0.0,0.0,0.0,0.0,0.0,0.0,0.0,0.0,0.0,0.0,0.0,1.4286,1.4096,1.403,0.0,0.0,0.0,0.0,0.0,0.0,0.0,0.0,0.0,2.0153,2.0661,2.1716,0.0,0.0,2.3731,2.3382,2.3841,2.4392,2.4961,0.0,0.0,0.0,2.5915,2.5601,2.4659,2.7037,2.8795,2.8172,2.8205,2.8246,2.7989,2.8172,2.8264,2.804,2.6906,2.6227,2.6741,2.6833,2.6759,2.6759,2.6918,2.7024,1.2988,1.2877,1.219,1.1914,1.1995,1.2766,1.348,1.4133,1.4494,1.4986,1.5474,1.5418,1.5166,1.4781,1.4653,0.0,0.0,0.0,1.5919,1.6563,1.6921,1.7309,1.7637,1.6913,1.6547,1.6579,1.7089,1.7061,1.6533,1.5485,1.4777,1.449,0.0,0.0,1.3889,1.4479,1.4837,1.4886,1.5155,1.5529,1.5981,1.5037,1.4293,1.3853,1.3549,1.3396,1.3396,1.3396,1.3396,1.3396,1.3396,1.2954,0.0,0.0,0.0,0.0,0.0,0.0,0.0,0.0,0.0,0.0,0.0,1.2051,0.0,0.0,0.0,0.0,1.4195,1.441,1.3743,1.4364,0.0,0.0,0.0,0.0,0.0,0.0,0.0,1.907,1.9749,2.0368,2.1147,2.1789,2.2648,2.4025,2.419,2.4025,2.3547,0.0,2.487,2.5329,2.5935,2.6465,2.6869,2.7291,2.7526,2.7567,2.8327,2.8956,2.8998,2.8975,2.8975,2.8975,2.8975,2.8975,2.8975,2.8187,2.764,2.7989,2.8172,2.8282,2.8282,2.8663,2.8851,1.4353,1.4713,1.3261,1.2622,1.2705,1.3861,1.4521,1.4756,1.5036,1.5626,1.6424,1.635,1.6317,1.6352,1.6069,0.0,0.0,1.6846,1.7189,1.7757,1.7817,1.7879,1.7847,1.7879,1.7847,1.7909,1.9098,1.9067,1.7867,1.7115,1.6488,1.5858,1.4867,1.4378,1.4374,1.4883,1.5107,1.4963,1.5466,1.5729,1.567,1.5031,1.4631,1.4477,1.3836,1.3464,1.3396,1.3396,1.343,1.3481,1.343,1.29,1.1771,0.0,0.0,0.0,0.0,0.0,0.0,0.0,0.0,0.0,0.0,0.0,0.0,0.0,0.0,0.0,1.5,0.0,1.3082,1.4853,0.0,0.0,0.0,1.701,1.806,1.8717,1.919,1.9437,0.0,0.0,0.0,0.0,2.3382,2.4098,2.419,2.419,2.419,2.4777,2.5329,2.5384,2.6631,2.753,2.7402,2.8187,2.8828,2.8828,2.8975,2.8998,2.8975,2.8975,2.8975,2.8975,2.8975,2.8975,2.8975,2.892,2.8975,2.892,2.8938,2.8957,2.8938,2.8975,2.8975,1.4287,1.4249,1.4563,1.4523,1.4349,1.4739,1.5066,1.5312,1.5558,1.5829,1.619,1.6397,1.6684,1.7067,1.6987,1.7116,1.7473,1.8014,1.8328,1.8508,1.8986,1.9211,1.9211,1.9226,1.9211,1.9246,1.9558,1.9519,1.9189,1.8052,1.713,1.6488,1.6248,1.5615,1.4747,1.5568,1.58,1.5374,1.6385,1.6753,1.6433,1.6264,1.5629,1.453,1.4309,1.3971,1.3413,1.3396,1.3667,1.4191,1.3684,1.3769,1.4517,1.0985,0.0,0.0,0.0,0.0,0.0,0.0,0.0,0.0,0.0,1.4477,1.33,0.0,1.4688,0.0,1.4972,1.6248,1.5702,1.6171,0.0,0.0,1.6751,1.7478,1.9501,1.9406,1.9855,2.1586,2.23,2.2905,2.3547,2.3804,2.3969,2.4171,2.419,2.419,2.4208,2.4337,2.4705,2.5329,2.5952,2.6539,2.731,2.8301,2.8998,2.8975,2.8975,2.8975,2.8975,2.8975,2.8975,2.8975,2.8975,2.8975,2.8975,2.8975,2.8975,2.8975,2.8975,2.8975,2.8975,2.8975,2.8975,1.4541,1.4809,1.5301,1.5452,1.5401,1.5633,1.5794,1.5981,1.6205,1.6362,1.6478,1.6875,1.7339,1.7863,1.7956,1.8168,1.8505,1.8952,1.9136,1.9166,1.951,1.9705,1.9705,1.9705,1.9705,1.9726,1.9718,1.9728,1.9632,1.8665,1.7802,1.716,1.6861,1.6204,1.5304,1.5952,1.6146,1.5883,1.6813,1.7226,1.7098,1.6826,1.6309,1.5511,1.5155,1.48,1.4377,1.4395,1.4563,1.4936,1.458,1.4446,1.4616,1.3515,1.2883,0.0,0.0,0.0,0.0,0.0,0.0,0.0,0.0,0.0,0.0,0.0,1.6985,0.0,0.0,0.0,1.7034,1.7305,1.7824,1.8627,1.8478,1.9155,2.1279,2.1132,2.1513,2.3125,2.3437,2.3694,2.4135,2.419,2.419,2.419,2.419,2.419,2.4245,2.4483,2.4907,2.5348,2.6025,2.6594,2.7034,2.8147,2.8997,2.898,2.8975,2.8975,2.8975,2.8975,2.8975,2.8975,2.8975,2.8975,2.8975,2.8975,2.8975,2.8975,2.8975,2.8975,2.8975,2.8975,2.8975,1.4909,1.5606,1.5612,1.576,1.6032,1.6411,1.6584,1.6522,1.6735,1.6927,1.7021,1.7512,1.8072,1.8686,1.8821,1.9075,1.9382,1.9678,1.9728,1.9654,1.9779,1.9765,1.9705,1.9705,1.9705,1.9705,1.9705,1.9705,1.9711,1.9106,1.8493,1.7802,1.7249,1.6607,1.5948,1.6202,1.6354,1.6351,1.6873,1.7264,1.7549,1.7103,1.68,1.6682,1.6052,1.568,1.5595,1.5595,1.5646,1.5731,1.5646,1.5088,1.4091,1.6407,1.6727,0.0,1.4051,0.0,0.0,0.0,0.0,0.0,0.0,0.0,0.0,1.8616,1.9125,1.9218,1.9235,1.8859,1.7933,1.8536,1.9267,1.9937,2.0282,2.1134,2.274,2.2978,2.3271,2.4116,2.419,2.417,2.4208,2.419,2.419,2.419,2.419,2.419,2.4245,2.476,2.5126,2.5256,2.6227,2.6502,2.6374,2.7364,2.8196,2.8287,2.8425,2.8627,2.848,2.8645,2.881,2.881,2.8906,2.8975,2.8975,2.8975,2.8975,2.8975,2.8975,2.8975,2.8975,2.8975,2.8975,1.4767,1.505,1.5622,1.5901,1.6069,1.6891,1.6948,1.6522,1.6565,1.6946,1.7555,1.7643,1.8241,1.9125,1.8919,1.9002,1.9327,1.987,1.9809,1.9332,2.0147,2.0213,1.972,1.9705,1.9705,1.9705,1.9705,1.9705,1.969,1.957,1.9166,1.8523,1.8388,1.7712,0.0,0.0,0.0,0.0,1.6355,1.6597,1.7311,1.7524,1.732,1.6733,1.6563,0.0,1.5646,1.5595,1.5883,1.6424,1.5933,0.0,0.0,0.0,0.0,0.0,0.0,0.0,0.0,0.0,0.0,0.0,1.7276,1.7466,1.7727,1.8569,1.9613,2.0862,2.1024,2.0641,1.9777,2.0499,2.077,2.0191,2.0788,2.1679,2.2702,2.281,2.3119,2.4079,2.4112,2.4074,2.417,2.419,2.419,2.419,2.419,2.419,2.419,2.4355,2.4428,2.4465,2.4814,2.4832,2.4667,2.5018,2.5424,2.5236,2.6282,2.6811,2.6704,2.7438,2.8026,2.8099,2.8558,2.8975,2.8975,2.8975,2.8975,2.8975,2.8975,2.8975,2.8975,2.8975,2.8975,1.4854,0.0,1.5369,1.5819,0.0,0.0,1.7279,1.735,1.735,1.7559,1.7915,1.7961,1.8331,1.9021,1.8941,1.9071,1.9402,2.0004,2.016,1.9962,2.0681,2.0727,2.0183,1.9842,1.9715,1.9705,1.9705,1.9705,1.9705,1.9705,1.9346,1.8702,1.8702,1.8208,1.7219,1.7189,1.691,1.6371,1.6213,1.6492,1.7183,1.7432,1.7451,1.7253,0.0,0.0,0.0,0.0,0.0,0.0,0.0,0.0,0.0,0.0,0.0,1.7772,1.7169,1.6826,1.6944,1.6927,1.7142,1.7644,1.7872,1.8057,1.8235,1.8592,1.9219,2.0228,2.1025,2.0953,1.9687,1.9939,2.0354,2.064,2.1111,2.1874,2.3022,2.3256,2.3438,2.3826,2.3994,2.4016,2.4036,2.4151,2.419,2.419,2.419,2.419,2.419,2.419,2.419,2.419,2.419,2.4208,2.419,2.419,2.419,2.4337,2.4864,2.5575,2.6109,2.6958,2.775,2.8246,2.8741,2.8975,2.8975,2.8975,2.8851,2.8407,2.8627,2.8517,2.7801,2.8223,2.8893,1.5031,1.522,1.5203,1.5612,1.6339,1.6907,1.7617,1.8371,0.0,0.0,0.0,1.8342,1.8535,1.8918,1.9001,1.9179,1.9498,2.0108,2.0387,2.0413,2.1046,2.1108,2.0578,1.9979,1.9723,1.9707,1.972,1.9705,1.9705,1.9705,1.9405,1.8912,1.8882,1.8538,1.7891,1.7742,1.7254,1.6451,1.645,1.668,1.7002,1.7248,1.7479,1.7749,1.7789,1.7789,1.7789,1.7789,1.7789,1.7789,1.7789,1.7789,1.7789,1.7789,1.7789,1.7789,1.7789,1.7789,1.7789,1.7789,1.7951,1.8254,1.8505,1.8669,1.8806,1.8637,1.8743,1.9291,2.0371,2.0496,1.9305,1.9254,1.9811,2.118,2.1452,2.2159,2.35,2.3774,2.3735,2.3689,2.3834,2.3937,2.3937,2.4075,2.419,2.419,2.419,2.419,2.419,2.419,2.419,2.419,2.419,2.419,2.419,2.419,2.419,2.4208,2.424,2.4728,2.6015,2.679,2.753,2.8484,2.8778,2.8833,2.8938,2.8815,2.8429,2.7585,2.775,2.7732,2.6429,2.7016,2.7938,1.5288,1.524,1.5478,1.5584,1.5639,1.678,1.7953,1.8985,1.846,1.8468,1.8907,1.887,1.9158,1.9598,1.9392,1.9285,1.9368,2.0007,1.9853,0.0,2.0812,2.1135,2.0255,1.9888,1.9713,1.9729,1.9715,1.9705,1.9705,1.9705,1.963,1.954,1.954,1.9211,1.8568,1.7966,1.764,1.7477,1.7449,1.7153,1.6691,1.7264,1.7589,1.7635,1.7726,1.7789,1.7789,1.7789,1.7789,1.7789,1.7789,1.7789,1.7789,1.7789,1.7789,1.7789,1.7789,1.7789,1.7789,1.7789,1.815,1.8961,1.9075,1.9017,1.8822,1.8686,1.907,2.0114,1.9784,1.9644,2.0489,2.0852,2.1039,2.1324,2.1998,2.2775,2.3476,2.3642,2.3664,2.3562,2.371,2.3878,2.3976,2.4112,2.419,2.419,2.419,2.419,2.419,2.419,2.419,2.419,2.419,2.419,2.419,2.419,2.419,2.419,2.4189,2.4536,2.5583,2.6156,2.682,2.7787,2.8136,2.8338,2.881,2.8223,2.7787,2.7402,2.6484,2.5419,2.5585,2.5493,2.5605,1.536,1.5308,1.5459,1.572,1.6072,1.7046,1.8024,1.885,1.86,1.8844,1.9434,1.9447,1.9572,1.9773,1.9649,1.9585,1.9585,2.0119,2.017,1.9973,2.0862,2.1211,2.1063,2.1535,2.1074,1.9851,2.0457,2.0407,1.9805,2.005,2.0049,1.972,1.9705,1.954,1.9241,1.8942,1.8612,1.8253,1.785,1.7496,1.718,1.7444,1.7625,1.7606,1.7658,1.7743,1.7789,1.7789,1.7789,1.7789,1.7789,1.7789,1.7789,1.7789,1.7789,1.7789,1.7789,1.7789,1.7789,1.8183,1.8625,1.9161,1.9578,1.9803,1.971,1.9092,1.9475,2.1241,2.0984,2.0683,2.0758,2.0898,2.1104,2.1481,2.1936,2.2478,2.3193,2.3481,2.3553,2.3602,2.3792,2.3917,2.3996,2.4113,2.419,2.419,2.419,2.419,2.419,2.419,2.419,2.419,2.419,2.419,2.419,2.419,2.419,2.419,2.419,2.4722,2.5825,2.6749,2.769,2.8287,2.8448,2.8594,2.8938,2.8627,2.8117,2.7343,2.6502,2.5658,2.5089,2.4502,2.4924,1.542,1.542,1.542,1.5806,1.6436,1.7079,1.7797,1.8447,1.8608,1.9097,1.9656,1.9747,1.9798,1.9798,1.9798,1.9798,1.9862,2.0105,2.0332,2.0486,2.0725,2.1066,2.1538,2.2897,2.2544,2.0892,2.166,2.1594,2.0712,2.0699,2.0363,1.9801,1.9705,1.9705,1.9705,1.9705,1.9435,1.8927,1.8433,1.8017,1.7733,1.7773,1.7802,1.7739,1.7745,1.7756,1.7789,1.7789,1.7789,1.7789,1.7789,1.7789,1.7789,1.7789,1.7789,1.7805,1.798,1.8132,1.8295,1.8826,1.928,1.9645,2.0174,2.06,2.0798,2.0114,2.0291,2.197,2.2226,2.182,2.096,2.0587,2.0842,2.1644,2.1766,2.2194,2.3017,2.3342,2.3458,2.3594,2.381,2.3937,2.3976,2.4094,2.419,2.419,2.419,2.419,2.419,2.419,2.419,2.419,2.419,2.419,2.419,2.419,2.419,2.419,2.419,2.4685,2.5878,2.7524,2.8559,2.8489,2.8539,2.8443,2.8484,2.8393,2.7934,2.7108,2.6465,2.5878,2.4575,2.4263,2.4667,1.542,1.542,1.542,1.5642,1.5989,1.6425,1.7045,1.782,1.8394,1.8951,1.9396,1.9708,1.9798,1.9798,1.9798,1.9798,1.9798,1.985,1.9762,1.9605,2.0371,2.0681,2.0675,2.2556,2.3463,2.3152,2.3295,2.3207,2.2946,2.1484,2.0378,1.9765,1.9705,1.972,1.972,1.9705,1.9681,1.96,1.9525,1.9034,1.816,1.8359,1.8381,1.8075,1.8189,1.8104,1.7884,1.7789,1.7805,1.7789,1.7805,1.7789,1.7789,1.7789,1.7805,1.7856,1.8437,1.908,1.9697,1.9849,2.0213,2.0916,2.1061,2.1383,2.1993,2.2004,2.2004,2.231,2.2327,2.1987,2.1396,2.0891,2.1022,2.1885,2.2019,2.2295,2.3023,2.336,2.343,2.3265,2.362,2.3816,2.3876,2.4054,2.4208,2.419,2.419,2.419,2.419,2.419,2.419,2.419,2.419,2.419,2.419,2.419,2.419,2.419,2.419,2.4482,2.5289,2.6893,2.8618,2.7497,2.7512,2.7677,2.7218,2.6833,2.6741,2.6521,2.608,2.5603,2.4538,2.419,2.4667,1.542,1.542,1.542,1.5478,1.5633,1.5806,1.6255,1.6989,1.7246,1.7907,1.8727,1.9044,1.9371,1.9798,1.9798,1.9798,1.9798,1.9798,1.9736,1.9611,1.9834,2.0152,2.062,2.0642,2.173,2.3466,2.3583,2.3598,2.332,2.2018,2.1141,2.0857,2.0498,2.0288,2.0273,1.9884,1.9705,1.9705,1.9705,1.9491,1.9084,1.891,1.8718,1.8575,1.8702,1.8884,1.8943,1.9058,1.8887,1.8504,1.8437,1.8251,1.7845,1.8217,1.8657,1.9056,1.936,1.9681,1.9985,2.045,2.0856,2.1204,2.16,2.2006,2.226,2.2327,2.2327,2.2327,2.2327,2.2224,2.2089,2.1885,2.196,2.2429,2.2432,2.2579,2.3122,2.3247,2.3295,2.3458,2.3664,2.3813,2.3852,2.4049,2.4186,2.4189,2.419,2.419,2.419,2.419,2.419,2.419,2.419,2.419,2.419,2.419,2.419,2.419,2.419,2.4337,2.5515,2.5439,2.6103,2.6465,2.7016,2.7145,2.6759,2.6612,2.6502,2.6282,2.619,2.5878,2.4483,2.419,2.4447,1.542,1.542,1.542,1.542,1.542,1.542,1.5806,1.6379,1.6482,1.7079,1.8015,1.8501,1.8992,1.9475,1.9695,1.9798,1.9798,1.9798,1.9798,1.9761,1.9547,1.9835,2.0393,1.9655,2.0315,2.2278,2.2908,2.3068,2.3011,2.2394,2.1874,2.165,2.1201,2.0902,2.0677,2.0183,1.9869,1.9705,1.9705,1.9705,1.9651,1.9351,1.9096,1.898,1.9228,1.9463,1.9595,1.9857,1.9773,1.9232,1.9198,1.8775,1.789,1.8674,1.9536,2.0247,2.0331,2.0424,2.061,2.1177,2.1481,2.1532,2.2023,2.2327,2.2327,2.2327,2.2327,2.2327,2.2327,2.2349,2.2487,2.2497,2.2605,2.2773,2.2659,2.2738,2.3052,2.3126,2.323,2.3504,2.366,2.381,2.3889,2.3987,2.4069,2.4112,2.4151,2.417,2.419,2.419,2.419,2.419,2.419,2.419,2.419,2.419,2.419,2.419,2.4208,2.4761,2.6202,2.5443,2.5016,2.6573,2.6888,2.6961,2.6759,2.6667,2.6888,2.6833,2.6631,2.619,2.5291,2.4685,2.4502,1.542,1.542,1.542,1.542,1.542,1.542,1.5642,1.6104,1.6379,1.6765,1.7357,1.8167,1.8715,1.8821,1.9423,1.9798,1.9798,1.9798,1.9798,1.9798,1.9786,1.9786,1.9825,1.9774,1.987,2.0411,2.1541,2.1963,2.1961,2.2401,2.2308,2.1769,2.1695,2.135,2.0887,2.0737,2.0348,1.9824,1.9765,1.9705,1.969,1.9681,1.9481,1.9271,1.9641,1.978,1.9597,1.9839,2.0002,1.9951,1.9951,1.9309,1.8126,1.9191,2.0382,2.1025,2.1126,2.1431,2.2006,2.2158,2.2192,2.2226,2.226,2.2327,2.2327,2.2327,2.2327,2.2327,2.2327,2.2327,2.2338,2.2394,2.246,2.2632,2.2623,2.2712,2.2876,2.307,2.3151,2.3199,2.3481,2.3721,2.3792,2.3816,2.3876,2.3976,2.4014,2.4054,2.4151,2.419,2.419,2.419,2.419,2.419,2.419,2.419,2.419,2.4208,2.4337,2.4761,2.5772,2.6526,2.6612,2.6775,2.749,2.7622,2.7053,2.7016,2.7383,2.7273,2.6612,2.608,2.5419,2.485,2.5052,1.5118,1.541,1.542,1.542,1.542,1.542,1.5468,1.5642,1.5748,1.6093,1.6539,1.709,1.7743,1.8489,1.8886,1.9371,1.9798,1.9798,1.9798,1.9849,2.0175,2.0351,2.0363,2.0476,2.0232,2.0075,2.1323,2.2125,2.2376,2.2834,2.3033,2.2892,2.2503,2.2188,2.1934,2.1545,2.1006,2.0408,2.0348,2.0139,1.9735,1.9705,1.9641,1.9591,2.0205,2.0604,2.0619,2.1189,2.1235,2.0788,2.0771,2.0314,1.9495,2.0627,2.1573,2.1854,2.1904,2.2023,2.2276,2.2327,2.2327,2.2327,2.2327,2.2327,2.2327,2.2327,2.2327,2.2327,2.2327,2.2327,2.2338,2.2422,2.2552,2.2738,2.2685,2.2659,2.2842,2.2868,2.2893,2.3077,2.3383,2.3611,2.3721,2.3747,2.375,2.3855,2.3858,2.3937,2.4054,2.4074,2.413,2.4189,2.419,2.419,2.419,2.419,2.4208,2.4207,2.439,2.5127,2.6048,2.7509,2.7893,2.7034,2.775,2.7805,2.709,2.7328,2.7695,2.7328,2.6686,2.6447,2.5254,2.5291,2.63,1.5204,1.5527,1.5469,1.5498,1.5605,1.5469,1.542,1.542,1.542,1.5584,1.5874,1.6322,1.7045,1.7918,1.8447,1.9153,1.9803,1.9847,1.9886,2.01,2.0542,2.0819,2.0966,2.1187,2.0933,2.0511,2.1028,2.1722,2.237,2.2889,2.3246,2.355,2.3161,2.2862,2.2637,2.2233,2.168,2.1141,2.0827,2.0468,2.0034,1.9779,1.9705,1.9797,2.0398,2.0926,2.1214,2.1781,2.1945,2.1606,2.1549,2.1295,2.0914,2.1708,2.2327,2.2327,2.231,2.2327,2.2327,2.2327,2.2327,2.2327,2.2327,2.2327,2.2327,2.2327,2.2327,2.2327,2.2327,2.2327,2.2338,2.2405,2.2569,2.2659,2.2579,2.2552,2.2703,2.2649,2.2764,2.307,2.3354,2.3539,2.3629,2.3634,2.3638,2.3685,2.3747,2.3813,2.3955,2.4251,2.4419,2.4592,2.4924,2.474,2.4685,2.474,2.5831,2.5994,2.4551,2.5269,2.6694,2.8175,2.8618,2.768,2.7328,2.7346,2.7475,2.7714,2.76,2.7383,2.7585,2.764,2.6778,2.6135,2.7071,1.5644,1.5918,1.5586,1.5625,1.5869,1.5566,1.542,1.542,1.542,1.541,1.5584,1.6151,1.6662,1.7234,1.8193,1.9144,1.9824,1.994,2.0238,2.0706,2.0819,2.1066,2.1493,2.1819,2.1794,2.1362,2.0451,2.0627,2.1938,2.2605,2.3214,2.3569,2.3684,2.3385,2.2772,2.2727,2.2368,2.1754,2.1201,2.0812,2.0647,2.0168,1.9854,1.9837,2.0181,2.0579,2.0975,2.1399,2.1836,2.2186,2.2243,2.2293,2.2141,2.2276,2.2327,2.2327,2.2327,2.2327,2.2327,2.2327,2.2327,2.2327,2.2327,2.2327,2.2327,2.2327,2.2327,2.2327,2.2327,2.2327,2.2327,2.231,2.2321,2.231,2.2338,2.2366,2.2394,2.2487,2.2712,2.302,2.3289,2.3471,2.3494,2.3539,2.3539,2.3544,2.3634,2.3765,2.3967,2.452,2.5132,2.5397,2.5676,2.5676,2.5511,2.5586,2.7103,2.7975,2.5947,2.5317,2.7356,2.8953,2.8942,2.8264,2.8264,2.8264,2.8246,2.8425,2.8517,2.8425,2.8682,2.8627,2.8081,2.7475,2.753,1.5195,1.5605,1.5469,1.5478,1.5596,1.5469,1.542,1.542,1.542,1.542,1.5468,1.5633,1.6093,1.686,1.798,1.8969,1.9756,2.0543,2.1066,2.128,2.1606,2.1857,2.2096,2.2543,2.2518,2.202,2.1319,2.1557,2.2549,2.3301,2.399,2.4543,2.4403,2.4179,2.3954,2.3565,2.2996,2.2428,2.2173,2.1874,2.144,2.1171,2.0857,2.0438,2.0526,2.0589,2.0563,2.1228,2.1748,2.2073,2.2237,2.2327,2.2327,2.2327,2.2327,2.2327,2.2327,2.2327,2.2327,2.2327,2.2327,2.2327,2.2327,2.2327,2.2327,2.2327,2.2327,2.2327,2.2327,2.2327,2.2327,2.2327,2.2327,2.2327,2.2327,2.2327,2.2327,2.2366,2.2515,2.2773,2.2975,2.3177,2.3412,2.3494,2.3494,2.3494,2.3544,2.3611,2.3829,2.4556,2.5056,2.5251,2.592,2.6756,2.6741,2.6796,2.7684,2.8467,2.7105,2.614,2.8015,2.9001,2.8989,2.9003,2.8998,2.8975,2.8975,2.8975,2.8975,2.8975,2.8883,2.8847,2.8883,2.8718,2.8503,1.5501,1.6123,1.5967,1.6006,1.6113,1.5977,1.5801,1.5674,1.5654,1.5566,1.5459,1.5586,1.5949,1.6643,1.7687,1.8839,1.991,2.0856,2.1537,2.2033,2.2171,2.241,2.2611,2.289,2.2777,2.2289,2.2108,2.2411,2.3028,2.3664,2.4348,2.4974,2.4819,2.4552,2.4522,2.3954,2.337,2.3041,2.2787,2.2514,2.2099,2.1829,2.1395,2.0812,2.0707,2.0518,2.032,2.0926,2.1477,2.1807,2.2135,2.2299,2.2327,2.2327,2.2327,2.2327,2.2327,2.2327,2.2327,2.2327,2.2327,2.2344,2.2547,2.2564,2.2412,2.2327,2.2327,2.2327,2.2327,2.2327,2.2327,2.2327,2.2327,2.2327,2.2327,2.2327,2.2327,2.2327,2.2366,2.2535,2.2643,2.293,2.333,2.3501,2.3501,2.3489,2.3494,2.3517,2.3827,2.4681,2.5149,2.5841,2.6907,2.7559,2.793,2.8172,2.8411,2.8466,2.815,2.7907,2.8768,2.8971,2.8998,2.8998,2.8975,2.8975,2.8975,2.8975,2.8975,2.8975,2.8975,2.8957,2.8938,2.8957,2.8792,1.6429,1.7285,1.6894,1.6875,1.7139,1.6816,1.6436,1.6143,1.6103,1.5898,1.5693,1.5957,1.6286,1.6648,1.748,1.8736,2.0208,2.083,2.1753,2.2555,2.2686,2.2648,2.2952,2.304,2.279,2.2318,2.271,2.3046,2.3218,2.3708,2.4182,2.5116,2.4951,2.4612,2.4522,2.3939,2.358,2.3445,2.3026,2.2798,2.2697,2.2203,2.159,2.0991,2.0946,2.0775,2.0492,2.0798,2.1183,2.1615,2.2077,2.2327,2.2327,2.2327,2.2327,2.2446,2.2395,2.2513,2.2462,2.253,2.2479,2.253,2.2953,2.3088,2.2462,2.2327,2.2327,2.2327,2.2327,2.2327,2.2327,2.2327,2.2327,2.2327,2.2327,2.2327,2.2327,2.2327,2.2338,2.2332,2.2361,2.2565,2.3253,2.3347,2.3443,2.346,2.343,2.3453,2.383,2.4703,2.5891,2.6772,2.7465,2.8182,2.8521,2.8558,2.8741,2.8682,2.859,2.8741,2.8911,2.8962,2.8975,2.8975,2.8975,2.8975,2.8975,2.8975,2.8975,2.8975,2.8975,2.8975,2.8975,2.8975,2.8975,1.5956,1.6821,1.6787,1.6797,1.6885,1.6768,1.6617,1.6562,1.6553,1.6475,1.6416,1.6504,1.6615,1.677,1.7843,1.8949,2.0098,2.1124,2.2104,2.293,2.2952,2.2927,2.3113,2.3125,2.299,2.2827,2.2971,2.3366,2.3811,2.4505,2.5131,2.561,2.5453,2.5091,2.4567,2.3984,2.3625,2.3595,2.3475,2.334,2.3295,2.3176,2.2802,2.2233,2.2113,2.1824,2.1363,2.1404,2.1601,2.1869,2.2118,2.2327,2.2361,2.2395,2.2615,2.297,2.3105,2.3342,2.363,2.3393,2.3139,2.3105,2.3376,2.3071,2.2395,2.2327,2.2327,2.2327,2.2327,2.2299,2.2299,2.2327,2.2327,2.2327,2.2327,2.2327,2.2327,2.2327,2.2327,2.2293,2.2307,2.2459,2.2651,2.2987,2.3203,2.333,2.3336,2.3336,2.3732,2.4741,2.5971,2.668,2.7432,2.8375,2.8938,2.8938,2.8962,2.8943,2.8883,2.8865,2.8962,2.898,2.8975,2.8975,2.8975,2.8975,2.8975,2.8975,2.8975,2.8975,2.8975,2.8975,2.8975,2.8975,2.8975,1.6259,1.7266,1.7266,1.7266,1.7266,1.7275,1.7178,1.7031,1.7002,1.6885,1.6807,1.6943,1.7002,1.7086,1.8119,1.9157,2.0216,2.114,2.2165,2.3005,2.3113,2.3125,2.3125,2.3125,2.3125,2.3125,2.3125,2.3551,2.4218,2.5036,2.5626,2.6089,2.6056,2.5689,2.5015,2.4388,2.3849,2.3655,2.3595,2.3595,2.3595,2.3595,2.3251,2.2802,2.2709,2.2409,2.1931,2.2003,2.2125,2.2205,2.2279,2.2429,2.2767,2.3088,2.3274,2.346,2.3663,2.3981,2.3981,2.3866,2.3731,2.363,2.3866,2.3917,2.3477,2.3228,2.3169,2.2852,2.2529,2.2315,2.2316,2.2327,2.2327,2.2327,2.2327,2.2327,2.2327,2.2327,2.2327,2.2321,2.2326,2.2303,2.231,2.2712,2.2995,2.3168,2.3241,2.3223,2.3389,2.4718,2.5829,2.6483,2.7313,2.826,2.8883,2.8975,2.8975,2.8975,2.8975,2.8975,2.8975,2.8975,2.8975,2.8975,2.8975,2.8975,2.8975,2.8975,2.8975,2.8975,2.8975,2.8975,2.8975,2.8975,2.8975,1.695,1.8008,1.8008,1.8008,1.7969,1.7988,1.7744,1.749,1.7441,1.7256,1.7061,1.7295,1.7441,1.7517,1.8137,1.9254,2.0534,2.0943,2.1946,2.2772,2.3125,2.3125,2.3125,2.3125,2.3125,2.3125,2.3125,2.3649,2.4368,2.5106,2.5781,2.6211,2.6367,2.6045,2.527,2.4717,2.4193,2.3699,2.3595,2.3595,2.3595,2.358,2.3355,2.2996,2.2933,2.2656,2.2382,2.2499,2.271,2.2654,2.2548,2.287,2.3485,2.4123,2.4222,2.3968,2.4306,2.4438,2.4019,2.4475,2.4404,2.4103,2.4932,2.5253,2.4577,2.4464,2.4399,2.3579,2.2916,2.2794,2.2726,2.2632,2.2733,2.2801,2.2682,2.2581,2.2496,2.2412,2.2327,2.2327,2.231,2.231,2.2411,2.2664,2.2998,2.3119,2.3168,2.3168,2.3565,2.4635,2.5542,2.6141,2.7066,2.8091,2.8599,2.8975,2.8975,2.8975,2.8975,2.8975,2.8975,2.8975,2.8975,2.8975,2.8975,2.8975,2.8975,2.8975,2.8975,2.8975,2.8975,2.8975,2.8975,2.8975,2.8975,1.695,1.8008,1.8008,1.8008,1.8008,1.8008,1.7959,1.7861,1.7871,1.7773,1.7754,1.7832,1.7852,1.7861,1.8138,1.9027,2.0504,2.09,2.1596,2.2967,2.3125,2.3125,2.3125,2.3125,2.3125,2.3125,2.3125,2.359,2.4439,2.5092,2.5612,2.5973,2.6066,2.5525,2.4881,2.4418,2.3789,2.361,2.3595,2.3595,2.3595,2.3595,2.352,2.334,2.3355,2.3098,2.2783,2.311,2.3441,2.3562,2.362,2.3779,2.407,2.4397,2.4712,2.5,2.5203,2.5507,2.5778,2.5473,2.5304,2.5118,2.5321,2.5287,2.4678,2.5559,2.5441,2.4611,2.4115,2.4,2.3836,2.3968,2.3883,2.3816,2.3849,2.3883,2.3799,2.2987,2.2462,2.2395,2.2378,2.2327,2.2327,2.2637,2.2886,2.3063,2.3119,2.3119,2.376,2.4575,2.5327,2.5991,2.7144,2.8164,2.8654,2.8975,2.8975,2.8975,2.8975,2.8975,2.8975,2.8975,2.8975,2.8975,2.8975,2.8975,2.8975,2.8975,2.8975,2.8975,2.8975,2.8975,2.8975,2.8975,2.8975,1.701,1.8008,1.8008,1.8008,1.8008,1.8008,1.8008,1.8008,1.8008,1.8008,1.8008,1.8008,1.8008,1.8046,1.8282,1.9144,2.0493,2.1479,2.2237,2.3005,2.3125,2.3125,2.3125,2.3125,2.3125,2.3125,2.3125,2.3649,2.4394,2.498,2.552,2.6182,2.6267,2.5964,2.5164,2.4657,2.4223,2.3699,2.3595,2.3595,2.3595,2.3595,2.3595,2.3595,2.3595,2.34,2.3215,2.3723,2.4084,2.4286,2.4539,2.4744,2.4845,2.5208,2.5575,2.5575,2.5998,2.6015,2.6116,2.615,2.5947,2.5642,2.5896,2.5879,2.571,2.6319,2.6099,2.5423,2.5206,2.5324,2.4611,2.4506,2.4523,2.4523,2.454,2.4388,2.3951,2.3257,2.2885,2.2936,2.2936,2.2649,2.2598,2.298,2.2929,2.3168,2.3119,2.3137,2.3404,2.4235,2.5231,2.6123,2.7313,2.8218,2.875,2.8975,2.8975,2.8975,2.8975,2.8975,2.8975,2.8975,2.8975,2.8975,2.8975,2.8975,2.8975,2.8975,2.8975,2.8975,2.8975,2.8975,2.8975,2.8975,2.8975,1.7088,1.8008,1.8008,1.8008,1.8008,1.8008,1.8008,1.8008,1.8008,1.8008,1.8008,1.8008,1.8008,1.8065,1.8461,1.9394,2.0819,2.2175,2.3005,2.3065,2.3125,2.3125,2.3125,2.3125,2.3125,2.3125,2.3125,2.359,2.4168,2.4797,2.5563,2.6453,2.6924,2.6362,2.5732,2.5405,2.4717,2.3729,2.3595,2.3595,2.3595,2.3595,2.3595,2.3595,2.3595,2.3623,2.3719,2.4168,2.4623,2.4735,2.5294,2.5501,2.573,2.6118,2.6471,2.5828,2.6336,2.6387,2.6201,2.6319,2.6387,2.5812,2.6268,2.6623,2.664,2.6573,2.637,2.6234,2.6099,2.6099,2.5031,2.5048,2.4966,2.4963,2.4913,2.4526,2.4052,2.3799,2.3782,2.3596,2.3427,2.3156,2.3362,2.3705,2.3465,2.3247,2.3175,2.3249,2.351,2.4193,2.5362,2.6459,2.7687,2.8351,2.8865,2.8975,2.8975,2.8975,2.8975,2.8975,2.8975,2.8975,2.8975,2.8975,2.8975,2.8975,2.8975,2.8975,2.8975,2.8975,2.8975,2.8975,2.8975,2.8975,2.8975,1.7442,1.8008,1.8008,1.8008,1.8008,1.8008,1.8008,1.8008,1.8008,1.8008,1.8008,1.8008,1.8008,1.8104,1.8556,1.9705,2.1232,2.2531,2.3125,2.3125,2.3125,2.3125,2.3125,2.3125,2.3125,2.3125,2.3125,2.3289,2.3703,2.4603,2.5494,2.6115,2.6593,2.6311,2.5657,2.5091,2.4552,2.3744,2.3595,2.3595,2.3595,2.3595,2.3595,2.3595,2.3595,2.3724,2.3979,2.4369,2.4815,2.523,2.5486,2.5799,2.6114,2.6505,2.659,2.6522,2.6573,2.6573,2.6488,2.6556,2.664,2.6556,2.6623,2.6674,2.6708,2.6708,2.659,2.6573,2.6539,2.6539,2.6404,2.6099,2.6251,2.6268,2.615,2.6065,2.5795,2.5253,2.4543,2.4198,2.393,2.4011,2.4522,2.4597,2.4101,2.3788,2.3488,2.3686,2.4042,2.4878,2.6039,2.7115,2.8153,2.8612,2.8975,2.8975,2.8975,2.8975,2.8975,2.8975,2.8975,2.8975,2.8975,2.8975,2.8975,2.8975,2.8975,2.8975,2.8975,2.8975,2.8975,2.8975,2.8975,2.8975,2.8975,1.752,1.8008,1.8008,1.8008,1.8008,1.8008,1.8008,1.8008,1.8008,1.8008,1.8008,1.8008,1.8008,1.8142,1.872,1.9916,2.1483,2.2615,2.3053,2.3125,2.3125,2.3125,2.3125,2.3125,2.3125,2.3125,2.3125,2.3144,2.3249,2.4275,2.5329,2.6065,2.6476,2.6308,2.5732,2.533,2.4537,2.3879,2.3595,2.3595,2.3595,2.3595,2.3595,2.3595,2.3595,2.3681,2.3894,2.4369,2.4735,2.5153,2.5626,2.6063,2.633,2.6556,2.6708,2.6708,2.6708,2.6708,2.6708,2.6708,2.6691,2.6691,2.6708,2.6708,2.6708,2.6708,2.6708,2.6708,2.6708,2.6708,2.664,2.6708,2.6708,2.6708,2.6691,2.6522,2.6167,2.571,2.53,2.49,2.4953,2.5309,2.6162,2.5863,2.4958,2.4375,2.3925,2.4159,2.4612,2.5517,2.6609,2.7476,2.8383,2.8727,2.8975,2.8975,2.8975,2.8975,2.8975,2.8975,2.8975,2.8975,2.8975,2.8975,2.8975,2.8975,2.8975,2.8975,2.8975,2.8975,2.8975,2.8975,2.8975,2.8975,2.8975,1.7588,1.8008,1.8008,1.8008,1.8008,1.8008,1.8008,1.8008,1.8008,1.8008,1.8008,1.8008,1.8076,1.8382,1.9243,2.0499,2.1932,2.2807,2.3053,2.3125,2.3125,2.3125,2.3125,2.3125,2.3125,2.3125,2.3125,2.317,2.3651,2.4385,2.5217,2.604,2.6549,2.6402,2.5744,2.554,2.4747,2.4014,2.3595,2.3595,2.3595,2.3595,2.3595,2.3595,2.3595,2.3696,2.3952,2.4343,2.4815,2.5269,2.5775,2.6225,2.6382,2.6607,2.6708,2.6708,2.6708,2.6708,2.6708,2.6708,2.6708,2.6708,2.6708,2.6708,2.6708,2.6708,2.6708,2.6708,2.6708,2.6708,2.6708,2.6708,2.6708,2.6708,2.6657,2.6522,2.6184,2.593,2.6029,2.59,2.6027,2.6407,2.7061,2.6705,2.568,2.5376,2.4941,2.5141,2.5579,2.6051,2.697,2.7783,2.8466,2.8805,2.8975,2.8975,2.8975,2.8975,2.8975,2.8975,2.8975,2.8975,2.8975,2.8975,2.8975,2.8975,2.8975,2.8975,2.8975,2.8975,2.8975,2.8975,2.8975,2.8975,2.8975,1.794,1.8008,1.8008,1.8008,1.8008,1.8008,1.8008,1.8008,1.8008,1.8008,1.8008,1.8046,1.824,1.8992,2.0417,2.1596,2.2445,2.2895,2.3125,2.3125,2.3125,2.3125,2.3125,2.3125,2.3125,2.3125,2.3125,2.3633,2.4197,2.4935,2.5508,2.6162,2.6828,2.6897,2.5821,2.5764,2.4911,2.3879,2.3655,2.3625,2.3595,2.3595,2.3595,2.3595,2.3638,2.3824,2.4245,2.4549,2.4895,2.5642,2.5974,2.6241,2.6417,2.6607,2.6674,2.6708,2.6708,2.6708,2.6708,2.6708,2.6708,2.6708,2.6708,2.6708,2.6708,2.6708,2.6708,2.6708,2.6708,2.6708,2.6708,2.6708,2.6708,2.6708,2.6691,2.6674,2.6471,2.6268,2.6368,2.6629,2.6674,2.7056,2.7607,2.7023,2.6458,2.6233,2.6088,2.6236,2.6523,2.6995,2.7427,2.8237,2.8599,2.8902,2.8975,2.8975,2.8975,2.8975,2.8975,2.8975,2.8975,2.8975,2.8975,2.8975,2.8975,2.8975,2.8975,2.8975,2.8975,2.8975,2.8975,2.8975,2.8975,2.8994,2.903,1.8008,1.8008,1.8008,1.8008,1.8008,1.8008,1.8008,1.8008,1.8008,1.8008,1.8017,1.7972,1.8651,1.9874,2.1202,2.2137,2.2836,2.3078,2.3125,2.3125,2.3125,2.3125,2.3125,2.3125,2.3125,2.3125,2.3258,2.3891,2.4629,2.5089,2.5494,2.6336,2.6938,2.7006,2.6168,2.6138,2.5615,2.4926,2.4403,2.3984,2.3699,2.3595,2.3595,2.3595,2.3595,2.3894,2.4245,2.4549,2.4895,2.5513,2.5791,2.6082,2.6435,2.6674,2.6708,2.6708,2.6708,2.6708,2.6708,2.6708,2.6708,2.6708,2.6708,2.6708,2.6708,2.6708,2.6708,2.6708,2.6708,2.6708,2.6708,2.6708,2.6708,2.6708,2.6708,2.6708,2.6708,2.6725,2.6723,2.7036,2.7324,2.76,2.7836,2.7639,2.7154,2.681,2.6718,2.6864,2.7283,2.7845,2.8273,2.875,2.8902,2.8957,2.8975,2.8975,2.8975,2.8975,2.8975,2.8975,2.8975,2.8975,2.8975,2.8975,2.8975,2.8975,2.8975,2.8975,2.8975,2.8975,2.8975,2.9255,2.9457,2.914,2.9269,1.7812,1.8008,1.8008,1.8008,1.8008,1.8008,1.8008,1.8008,1.8008,1.7949,1.7984,1.8222,1.9304,2.0719,2.1711,2.2469,2.3065,2.3125,2.3125,2.3125,2.3125,2.3125,2.3125,2.3125,2.3125,2.3138,2.3501,2.421,2.4919,2.5439,2.5823,2.6654,2.685,2.6822,2.6673,2.6482,2.6108,2.548,2.4821,2.4328,2.3984,2.3684,2.3625,2.3595,2.3638,2.3794,2.4204,2.4517,2.4958,2.5476,2.5584,2.5917,2.6383,2.6624,2.6708,2.6708,2.6708,2.6708,2.6708,2.6708,2.6708,2.6708,2.6708,2.6708,2.6708,2.6708,2.6708,2.6708,2.6708,2.6708,2.6708,2.6708,2.6708,2.6708,2.6708,2.6708,2.6708,2.6742,2.6758,2.6923,2.7244,2.7736,2.794,2.8126,2.7879,2.7433,2.736,2.7486,2.7937,2.8492,2.8686,2.8975,2.8975,2.8975,2.8975,2.8975,2.8975,2.8975,2.8975,2.8975,2.8975,2.8975,2.8975,2.8975,2.9072,2.8975,2.8975,2.8975,2.8975,2.8975,2.9145,2.9787,2.9971,2.9672,2.9415,1.7285,1.8008,1.7998,1.7988,1.8008,1.8008,1.8008,1.7949,1.7998,1.786,1.7885,1.8743,2.0028,2.1253,2.2176,2.2787,2.3125,2.3125,2.3125,2.3125,2.3125,2.3125,2.3125,2.3125,2.3125,2.3258,2.385,2.474,2.5328,2.5739,2.6332,2.7071,2.7015,2.6762,2.6692,2.6737,2.6393,2.5809,2.5179,2.4761,2.4343,2.4014,2.367,2.361,2.3638,2.3894,2.4508,2.4719,2.5153,2.5754,2.5749,2.5824,2.626,2.6556,2.6691,2.6708,2.6708,2.6708,2.6708,2.6708,2.6708,2.6708,2.6759,2.681,2.6708,2.6708,2.6708,2.6708,2.6708,2.6708,2.6708,2.6708,2.6708,2.6708,2.6708,2.6708,2.6708,2.6708,2.6758,2.6825,2.7181,2.7659,2.8014,2.8154,2.8237,2.7826,2.8008,2.8148,2.8385,2.8824,2.886,2.8975,2.8975,2.8975,2.8975,2.8975,2.8975,2.8975,2.8975,2.8975,2.8975,2.8975,2.8994,2.9237,2.9329,2.9163,2.8994,2.903,2.903,2.8994,2.9274,2.9879,3.0687,3.0907,3.0283,1.6914,1.7217,1.7227,1.7529,1.8008,1.8008,1.7861,1.7695,1.7891,1.8278,1.8627,1.9723,2.0745,2.1716,2.2542,2.2957,2.3078,2.3125,2.3125,2.3125,2.3125,2.3125,2.3125,2.3088,2.3135,2.3395,2.4379,2.5474,2.6198,2.6083,2.6541,2.6988,2.7195,2.726,2.72,2.7096,2.6767,2.6333,2.5899,2.5508,2.4597,2.4373,2.4029,2.361,2.3595,2.4006,2.4623,2.4823,2.5384,2.5828,2.5937,2.6099,2.6241,2.6521,2.6657,2.6708,2.6708,2.6708,2.6708,2.6708,2.6708,2.681,2.7046,2.7215,2.6894,2.6759,2.6708,2.6708,2.6826,2.6962,2.6742,2.6725,2.6708,2.6708,2.6708,2.6708,2.6742,2.6776,2.7046,2.7263,2.7414,2.7659,2.794,2.8182,2.8264,2.8291,2.8543,2.8761,2.8905,2.8975,2.8975,2.8975,2.8975,2.8975,2.8975,2.8975,2.8994,2.8994,2.8994,2.9159,2.9232,2.8994,2.9067,2.9365,2.9732,2.9787,2.9641,2.925,2.914,2.9237,2.9512,2.9934,3.0815,3.177,3.1329,1.6432,1.6699,1.6592,1.7031,1.7773,1.7822,1.7734,1.7627,1.7858,1.8561,1.9489,2.016,2.107,2.2054,2.2745,2.3065,2.3078,2.3125,2.3125,2.3062,2.2975,2.2924,2.2899,2.3005,2.3119,2.3528,2.4953,2.6232,2.6856,2.6321,2.6725,2.7318,2.756,2.753,2.753,2.753,2.732,2.6976,2.6557,2.6108,2.5046,2.4672,2.4253,2.3714,2.3595,2.3979,2.4558,2.4879,2.5346,2.5921,2.626,2.633,2.6418,2.6521,2.6674,2.6708,2.6708,2.6708,2.6708,2.6708,2.681,2.7131,2.7452,2.7554,2.7487,2.747,2.7876,2.7572,2.7555,2.7503,2.7385,2.7351,2.7199,2.7215,2.6776,2.6725,2.686,2.6945,2.7384,2.7753,2.8007,2.8465,2.8415,2.8684,2.8505,2.8549,2.8612,2.881,2.8929,2.8975,2.8975,2.8975,2.8975,2.8975,2.8975,2.9049,2.9122,2.8997,2.9088,2.9538,2.9599,2.9525,2.9751,3.0265,3.0558,3.0558,3.0228,2.9751,2.9586,2.9531,3.0228,3.1182,3.0889,3.1751,3.2082,1.5957,1.6641,1.624,1.6582,1.7324,1.7393,1.7559,1.7713,1.776,1.8575,1.9728,1.9904,2.0878,2.2249,2.2792,2.284,2.3,2.3025,2.2987,2.2824,2.2623,2.2422,2.248,2.2718,2.2911,2.3646,2.5314,2.694,2.7457,2.7078,2.7327,2.7479,2.756,2.756,2.756,2.756,2.7545,2.744,2.6901,2.6303,2.5644,2.5076,2.4448,2.3939,2.364,2.3994,2.4639,2.4902,2.5406,2.6137,2.6487,2.659,2.6624,2.6657,2.6708,2.6708,2.6708,2.6708,2.6708,2.6708,2.7012,2.7537,2.7875,2.8147,2.8761,2.9168,2.9316,2.8963,2.92,2.918,2.8822,2.8264,2.7943,2.7689,2.7283,2.7182,2.7385,2.7589,2.8117,2.852,2.9169,2.9691,2.9449,2.9242,2.8943,2.8811,2.8767,2.8852,2.9007,2.9053,2.9049,2.9274,2.931,2.9457,2.9494,2.9287,2.9208,2.9082,2.9448,3.0143,3.084,3.1256,3.1397,3.1464,3.1384,3.1384,3.0815,3.0191,3.0503,3.0999,3.2063,3.2687,3.2118,3.177,3.2228,1.5576,1.584,1.5684,1.5967,1.6514,1.6836,1.6894,1.6835,1.7318,1.8419,1.984,2.0041,2.0899,2.1972,2.2168,2.2284,2.2548,2.2573,2.2498,2.2096,2.2171,2.2322,2.2329,2.2217,2.2519,2.3734,2.5674,2.7302,2.7543,2.7461,2.7488,2.7575,2.756,2.756,2.756,2.756,2.756,2.758,2.729,2.6931,2.6273,2.56,2.4956,2.4298,2.3894,2.4166,2.491,2.5068,2.5577,2.6297,2.6657,2.6674,2.6708,2.6708,2.6708,2.6708,2.6708,2.6708,2.6708,2.6759,2.7046,2.7689,2.8281,2.8655,2.9064,3.0129,3.0383,3.0455,3.0417,3.0057,2.9144,2.8839,2.8586,2.8586,2.8366,2.8366,2.8486,2.8732,2.9059,2.9329,2.9872,3.0166,3.0131,3.0142,2.989,2.9602,2.9569,2.9265,2.9269,2.9219,2.9219,2.9586,2.9787,2.9971,3.0081,3.0338,2.9856,2.9484,3.0314,3.1434,3.209,3.2569,3.2525,3.2309,3.2247,3.2155,3.1788,3.1604,3.2082,3.2724,3.3201,3.3495,3.3073,3.2669,3.2687,1.542,1.542,1.542,1.5566,1.5889,1.6309,1.6503,1.6727,1.7408,1.8632,1.9849,2.0148,2.0791,2.1599,2.1732,2.1606,2.202,2.202,2.1958,2.1543,2.182,2.1945,2.1845,2.1807,2.2399,2.3809,2.5901,2.7609,2.7586,2.7569,2.7575,2.7575,2.756,2.756,2.756,2.756,2.756,2.756,2.7425,2.7186,2.6617,2.6093,2.563,2.5017,2.4684,2.4683,2.5187,2.5512,2.5726,2.6383,2.6624,2.664,2.6674,2.6708,2.6708,2.6708,2.6708,2.6708,2.6708,2.6708,2.7199,2.8213,2.8738,2.9211,2.9651,3.0632,3.0954,3.1089,3.119,3.07,2.9922,2.9634,2.9364,2.9364,2.9144,2.911,2.9149,2.9329,2.9728,3.004,3.0552,3.079,3.0903,3.098,3.093,3.0654,3.0392,3.0064,2.9769,2.9751,2.9843,3.021,3.0467,3.0668,3.1182,3.1825,3.1174,3.0028,3.0885,3.2169,3.2912,3.3316,3.3235,3.3154,3.3062,3.2981,3.2999,3.3073,3.3109,3.3128,3.3275,3.3532,3.3733,3.355,3.322,1.542,1.542,1.542,1.541,1.5557,1.6118,1.6845,1.7658,1.8328,1.9118,1.994,1.9995,2.0533,2.1312,2.1405,2.1393,2.1455,2.1468,2.1343,2.1405,2.1493,2.1587,2.1655,2.1678,2.2544,2.419,2.6117,2.7602,2.7604,2.7575,2.7575,2.756,2.756,2.756,2.756,2.756,2.756,2.756,2.753,2.7275,2.6856,2.6557,2.6234,2.5787,2.5542,2.5612,2.5895,2.5982,2.6122,2.6347,2.6453,2.6556,2.664,2.6708,2.6708,2.6708,2.6708,2.6708,2.6725,2.6725,2.7537,2.8552,2.8991,2.9837,3.0581,3.1021,3.1123,3.119,3.119,3.119,3.097,3.0548,3.0142,2.9905,2.9583,2.9516,2.9485,2.9765,3.027,3.0817,3.1481,3.1786,3.1809,3.1838,3.1745,3.181,3.1618,3.1638,3.1304,3.0834,3.0944,3.1182,3.1384,3.1421,3.2008,3.2761,3.2606,3.1516,3.1524,3.2504,3.3283,3.3823,3.3632,3.3558,3.3697,3.3678,3.3495,3.3513,3.366,3.366,3.3513,3.3587,3.3807,3.3807,3.3605,1.542,1.542,1.542,1.5594,1.6056,1.7175,1.7846,1.8123,1.855,1.9114,1.9828,1.988,2.0295,2.0853,2.0489,2.0602,2.0778,2.084,2.0589,2.0702,2.1277,2.1754,2.2011,2.2055,2.3071,2.4766,2.6526,2.7571,2.7604,2.756,2.756,2.756,2.756,2.756,2.756,2.756,2.756,2.756,2.756,2.741,2.7156,2.6871,2.6768,2.675,2.6346,2.6441,2.6613,2.6629,2.6673,2.6589,2.6607,2.6674,2.6674,2.6708,2.6708,2.6708,2.6708,2.6708,2.6776,2.7199,2.7943,2.8907,2.9431,3.0192,3.0886,3.119,3.119,3.119,3.119,3.119,3.119,3.0903,3.07,3.0514,3.0294,3.0277,3.0264,3.05,3.1011,3.1373,3.2074,3.2225,3.2322,3.2457,3.2408,3.2661,3.283,3.2793,3.2661,3.2111,3.1953,3.2173,3.2228,3.2247,3.2761,3.3458,3.3421,3.3211,3.2991,3.2863,3.3421,3.3834,3.3807,3.3807,3.3807,3.3807,3.377,3.3807,3.3807,3.3807,3.3715,3.377,3.3807,3.3807,3.3807,1.542,1.542,1.542,1.5806,1.6708,1.7895,1.8555,1.8738,1.8992,1.9423,1.9798,1.9811,1.9999,2.0238,2.0024,2.0024,2.0313,2.0313,2.0162,2.0328,2.124,2.199,2.2338,2.3017,2.4051,2.555,2.6681,2.7604,2.756,2.756,2.756,2.756,2.756,2.756,2.756,2.756,2.756,2.756,2.756,2.756,2.738,2.722,2.7461,2.7612,2.7188,2.7134,2.7367,2.7292,2.6889,2.6725,2.6708,2.6708,2.6708,2.6708,2.6708,2.6708,2.6708,2.6928,2.7199,2.7537,2.8366,2.9194,2.9854,3.0412,3.0869,3.119,3.119,3.119,3.119,3.119,3.119,3.1173,3.1173,3.114,3.114,3.114,3.1278,3.1414,3.1696,3.1969,3.2247,3.2411,3.2602,3.2782,3.2955,3.3033,3.3172,3.3305,3.3241,3.301,3.2881,3.3036,3.3036,3.3054,3.3568,3.3807,3.3715,3.3623,3.3568,3.355,3.3807,3.3807,3.3807,3.3807,3.3807,3.3807,3.3807,3.3807,3.3807,3.3807,3.3807,3.3807,3.3807,3.3807,3.3807,1.541,1.5468,1.5584,1.6312,1.7368,1.834,1.9016,1.942,1.9604,1.9798,1.9798,1.9798,1.9836,1.9911,1.9823,1.9811,1.9936,1.9936,2.0001,1.99,2.1432,2.2392,2.3363,2.4454,2.5222,2.5954,2.6748,2.756,2.756,2.756,2.756,2.756,2.756,2.756,2.756,2.756,2.756,2.756,2.756,2.756,2.756,2.763,2.7864,2.8295,2.7952,2.7566,2.7855,2.752,2.6776,2.6793,2.6708,2.6725,2.6708,2.6708,2.6708,2.681,2.686,2.7199,2.7655,2.806,2.8873,2.96,3.0176,3.0598,3.1004,3.119,3.119,3.119,3.119,3.119,3.119,3.119,3.119,3.119,3.119,3.119,3.1269,3.1483,3.1839,3.2092,3.2313,3.2477,3.2727,3.2921,3.2983,3.316,3.3327,3.353,3.3597,3.3515,3.3542,3.3623,3.3532,3.3458,3.3623,3.3807,3.3807,3.3788,3.3807,3.3807,3.3807,3.3807,3.3807,3.3807,3.3807,3.3807,3.3807,3.3807,3.3807,3.3807,3.3807,3.3807,3.3807,3.3807,3.3807,1.5526,1.5874,1.6765,1.7534,1.807,1.891,1.9303,1.942,1.9656,1.9798,1.9798,1.9798,1.9798,1.9798,1.9798,1.9798,1.9798,1.9798,1.9914,2.0386,2.1472,2.2782,2.3812,2.524,2.6236,2.6982,2.7479,2.756,2.756,2.756,2.756,2.756,2.756,2.756,2.761,2.7595,2.747,2.7595,2.735,2.744,2.756,2.776,2.7997,2.8575,2.8554,2.8592,2.8649,2.8205,2.774,2.752,2.6945,2.6759,2.6708,2.6708,2.6708,2.6793,2.7182,2.7588,2.8078,2.8738,2.96,3.0057,3.0548,3.0903,3.114,3.1173,3.119,3.119,3.119,3.119,3.119,3.119,3.119,3.119,3.119,3.119,3.123,3.1559,3.1929,3.2162,3.2362,3.2563,3.283,3.293,3.3024,3.3147,3.3286,3.3462,3.3671,3.3688,3.367,3.3733,3.3752,3.3733,3.3807,3.3807,3.3807,3.3807,3.3807,3.3807,3.3807,3.3807,3.3807,3.3807,3.3807,3.3807,3.3807,3.3807,3.3807,3.3807,3.3807,3.3807,3.3807,3.3807,3.3807,1.57,1.6046,1.7313,1.8081,1.8555,1.9291,1.9565,1.9604,1.9759,1.9798,1.9798,1.9798,1.9798,1.9798,1.9798,1.9798,1.9798,1.9798,2.0105,2.0628,2.1603,2.3009,2.4383,2.5818,2.6766,2.755,2.7595,2.756,2.756,2.756,2.756,2.756,2.756,2.761,2.758,2.7415,2.7385,2.758,2.7126,2.7175,2.754,2.7929,2.8496,2.908,2.9205,2.9263,2.887,2.8433,2.7807,2.7385,2.6843,2.6742,2.6708,2.6708,2.6708,2.6911,2.7334,2.7977,2.8569,2.9347,3.026,3.0615,3.0818,3.1157,3.1157,3.119,3.119,3.119,3.119,3.119,3.119,3.119,3.119,3.119,3.1269,3.1291,3.1504,3.1821,3.2179,3.2555,3.2699,3.2731,3.2898,3.2898,3.2993,3.3165,3.3286,3.3433,3.3615,3.378,3.3807,3.3807,3.3807,3.3807,3.3807,3.3807,3.3807,3.3807,3.3807,3.3807,3.3807,3.3807,3.3807,3.3917,3.3917,3.3807,3.3807,3.399,3.3862,3.3807,3.3807,3.3807,3.3807,3.3807,3.3807,1.5918,1.6358,1.7699,1.8459,1.8874,1.9527,1.9798,1.9798,1.9798,1.9798,1.9798,1.9798,1.9798,1.9798,1.9798,1.9798,1.9901,2.0055,2.0409,2.1014,2.204,2.3174,2.4539,2.6054,2.6722,2.7285,2.751,2.755,2.756,2.756,2.756,2.756,2.756,2.756,2.7395,2.7171,2.7145,2.7295,2.7115,2.6939,2.7455,2.8161,2.8779,2.9219,2.9435,2.9237,2.9013,2.8332,2.7588,2.7215,2.6945,2.6725,2.6962,2.7063,2.708,2.73,2.7994,2.8602,2.9161,2.9888,3.0548,3.0987,3.114,3.119,3.119,3.119,3.119,3.119,3.119,3.119,3.119,3.119,3.119,3.123,3.1291,3.1428,3.1731,3.2003,3.242,3.282,3.2884,3.2916,3.2916,3.2916,3.2979,3.3165,3.3316,3.3433,3.3577,3.3726,3.3807,3.3807,3.3807,3.3807,3.3807,3.3807,3.3807,3.3807,3.3807,3.3807,3.3807,3.3807,3.3917,3.4156,3.4119,3.4247,3.4302,3.4486,3.4266,3.4009,3.3825,3.3825,3.3807,3.3807,3.3807,1.6248,1.7754,1.8632,1.9214,1.9592,1.9747,1.9798,1.9798,1.9798,1.9798,1.9798,1.9798,1.9798,1.9798,1.9798,1.985,1.9952,2.0258,2.0696,2.1256,2.2258,2.3249,2.4282,2.5461,2.5914,2.6549,2.7169,2.7519,2.728,2.738,2.7545,2.755,2.756,2.756,2.7545,2.735,2.731,2.7375,2.7418,2.7367,2.7668,2.8186,2.8465,2.889,2.9277,2.9879,2.9938,2.8735,2.8416,2.8044,2.7385,2.686,2.7046,2.7588,2.7858,2.7841,2.8569,2.9296,2.9888,3.0446,3.1004,3.1106,3.119,3.119,3.119,3.119,3.119,3.119,3.119,3.119,3.119,3.119,3.119,3.1291,3.1351,3.162,3.1896,3.2162,3.2488,3.2737,3.2884,3.2916,3.2916,3.2916,3.2916,3.3073,3.3226,3.3375,3.3559,3.3698,3.378,3.3807,3.3807,3.3807,3.3807,3.3807,3.3807,3.3807,3.3807,3.3807,3.3807,3.3807,3.3954,3.4137,3.4706,3.5055,3.511,3.4743,3.478,3.4504,3.4027,3.3825,3.3825,3.388,3.3917]},{"header":{"parameterUnit":"m.s-1","parameterCategory":1,"la1":31.0,"la2":29.5877,"lo1":-88.7671,"lo2":-86.6584,"dy":0.0162,"dx":0.0185,"nx":115,"ny":88,"refTime":"2024-02-18T06:00:00:Z","depth":0,"parameterNumber":3,"parameterNumberName":"V-component_of_WINDS"},"data":[0.0,0.0,0.0,0.0,0.0,0.0,0.0,0.0,0.0,0.0,0.0,0.0,0.0,0.0,0.0,0.0,0.0,0.0,0.0,0.0,0.0,0.0,0.0,0.0,0.0,0.0,0.0,0.0,0.0,0.0,0.0,0.0,0.0,0.0,0.0,0.0,0.0,0.0,0.0,0.0,0.0,0.0,0.0,0.0,0.0,0.0,0.0,0.0,0.0,0.0,0.0,0.0,0.0,0.0,0.0,0.0,0.0,0.0,0.0,0.0,0.0,0.0,0.0,0.0,0.0,0.0,0.0,0.0,0.0,0.0,0.0,0.0,0.0,0.0,0.0,0.0,0.0,0.0,0.0,0.0,0.0,0.0,0.0,0.0,0.0,0.0,0.0,0.0,0.0,0.0,0.0,0.0,0.0,0.0,0.0,0.0,0.0,0.0,0.0,0.0,0.0,0.0,0.0,0.0,0.0,0.0,0.0,0.0,0.0,0.0,0.0,0.0,0.0,0.0,0.0,0.0,0.0,0.0,0.0,0.0,0.0,0.0,0.0,0.0,0.0,0.0,0.0,0.0,0.0,0.0,0.0,0.0,0.0,0.0,0.0,0.0,0.0,0.0,0.0,0.0,0.0,0.0,0.0,0.0,0.0,0.0,0.0,0.0,0.0,0.0,0.0,0.0,0.0,0.0,0.0,0.0,0.0,0.0,0.0,0.0,0.0,0.0,0.0,0.0,0.0,0.0,0.0,0.0,0.0,0.0,0.0,0.0,0.0,0.0,0.0,0.0,0.0,0.0,0.0,0.0,0.0,0.0,0.0,0.0,0.0,0.0,0.0,0.0,0.0,0.0,0.0,0.0,0.0,0.0,0.0,0.0,0.0,0.0,0.0,0.0,0.0,0.0,0.0,0.0,0.0,0.0,0.0,0.0,0.0,0.0,0.0,0.0,0.0,0.0,0.0,0.0,0.0,0.0,0.0,0.0,0.0,0.0,0.0,0.0,0.0,0.0,0.0,0.0,0.0,0.0,0.0,0.0,0.0,0.0,0.0,0.0,0.0,0.0,0.0,0.0,0.0,0.0,0.0,0.0,0.0,0.0,0.0,0.0,0.0,0.0,0.0,0.0,0.0,0.0,0.0,0.0,0.0,0.0,0.0,0.0,0.0,0.0,0.0,0.0,0.0,0.0,0.0,0.0,0.0,0.0,0.0,0.0,0.0,0.0,0.0,0.0,0.0,0.0,0.0,0.0,0.0,0.0,0.0,0.0,0.0,0.0,0.0,0.0,0.0,0.0,0.0,0.0,0.0,0.0,0.0,0.0,0.0,0.0,0.0,0.0,0.0,0.0,0.0,0.0,0.0,0.0,0.0,0.0,0.0,0.0,0.0,0.0,0.0,0.0,0.0,0.0,0.0,0.0,0.0,0.0,0.0,0.0,0.0,0.0,0.0,0.0,0.0,0.0,0.0,0.0,0.0,0.0,0.0,0.0,0.0,0.0,0.0,0.0,0.0,0.0,0.0,0.0,0.0,0.0,0.0,0.0,0.0,0.0,0.0,0.0,0.0,0.0,0.0,0.0,0.0,0.0,0.0,0.0,0.0,0.0,0.0,0.0,0.0,0.0,0.0,0.0,0.0,0.0,0.0,0.0,0.0,0.0,0.0,0.0,0.0,0.0,0.0,0.0,0.0,0.0,0.0,0.0,0.0,0.0,0.0,0.0,0.0,0.0,0.0,0.0,0.0,0.0,0.0,0.0,0.0,0.0,0.0,0.0,0.0,0.0,0.0,0.0,0.0,0.0,0.0,0.0,0.0,0.0,0.0,0.0,0.0,0.0,0.0,0.0,0.0,0.0,0.0,0.0,0.0,0.0,0.0,0.0,0.0,0.0,0.0,0.0,0.0,0.0,0.0,0.0,0.0,0.0,0.0,0.0,0.0,0.0,0.0,0.0,0.0,0.0,0.0,0.0,0.0,0.0,0.0,0.0,0.0,0.0,0.0,0.0,0.0,0.0,0.0,0.0,0.0,0.0,0.0,0.0,0.0,0.0,0.0,0.0,0.0,0.0,0.0,0.0,0.0,0.0,0.0,0.0,0.0,0.0,0.0,0.0,0.0,0.0,0.0,0.0,0.0,0.0,0.0,0.0,0.0,0.0,0.0,0.0,0.0,0.0,0.0,0.0,0.0,0.0,0.0,0.0,0.0,0.0,0.0,0.0,0.0,0.0,0.0,0.0,0.0,0.0,0.0,0.0,0.0,0.0,0.0,0.0,0.0,0.0,0.0,0.0,0.0,0.0,0.0,0.0,0.0,0.0,0.0,0.0,0.0,0.0,0.0,0.0,0.0,0.0,0.0,0.0,0.0,0.0,0.0,0.0,0.0,0.0,0.0,0.0,0.0,0.0,0.0,0.0,0.0,0.0,0.0,0.0,0.0,0.0,0.0,0.0,0.0,0.0,0.0,0.0,0.0,0.0,0.0,0.0,0.0,0.0,0.0,0.0,0.0,0.0,0.0,0.0,0.0,0.0,0.0,0.0,0.0,0.0,0.0,0.0,0.0,0.0,0.0,0.0,0.0,0.0,0.0,0.0,0.0,0.0,0.0,0.0,0.0,0.0,0.0,0.0,0.0,0.0,0.0,0.0,0.0,0.0,0.0,0.0,0.0,0.0,0.0,0.0,0.0,0.0,0.0,0.0,0.0,0.0,0.0,0.0,0.0,0.0,0.0,0.0,0.0,0.0,0.0,0.0,0.0,0.0,0.0,0.0,0.0,0.0,0.0,0.0,0.0,0.0,0.0,0.0,0.0,0.0,0.0,0.0,0.0,0.0,0.0,0.0,0.0,0.0,0.0,0.0,0.0,0.0,0.0,0.0,0.0,0.0,0.0,0.0,0.0,0.0,0.0,0.0,0.0,0.0,0.0,0.0,0.0,0.0,0.0,0.0,0.0,0.0,0.0,0.0,0.0,0.0,0.0,0.0,0.0,0.0,0.0,0.0,0.0,0.0,0.0,0.0,0.0,0.0,0.0,0.0,0.0,0.0,0.0,0.0,0.0,0.0,0.0,0.0,0.0,0.0,0.0,0.0,0.0,0.0,0.0,0.0,0.0,0.0,0.0,0.0,0.0,0.0,0.0,0.0,0.0,0.0,0.0,0.0,0.0,0.0,0.0,0.0,0.0,0.0,0.0,0.0,0.0,0.0,0.0,0.0,0.0,0.0,0.0,0.0,0.0,0.0,0.0,0.0,0.0,0.0,0.0,0.0,0.0,0.0,0.0,0.0,0.0,0.0,0.0,0.0,0.0,0.0,0.0,0.0,0.0,0.0,0.0,0.0,0.0,0.0,0.0,0.0,0.0,0.0,0.0,0.0,0.0,0.0,0.0,0.0,0.0,0.0,0.0,0.0,0.0,0.0,0.0,0.0,0.0,0.0,0.0,0.0,0.0,0.0,0.0,0.0,0.0,0.0,0.0,0.0,0.0,0.0,0.0,0.0,0.0,0.0,0.0,0.0,0.0,0.0,0.0,0.0,0.0,0.0,0.0,0.0,0.0,0.0,0.0,0.0,0.0,0.0,0.0,0.0,0.0,0.0,0.0,0.0,0.0,0.0,0.0,0.0,0.0,0.0,0.0,0.0,0.0,0.0,0.0,0.0,0.0,0.0,0.0,0.0,0.0,0.0,0.0,0.0,0.0,0.0,0.0,0.0,0.0,0.0,0.0,0.0,0.0,0.0,0.0,0.0,0.0,0.0,0.0,0.0,0.0,0.0,0.0,0.0,0.0,0.0,0.0,0.0,0.0,0.0,0.0,0.0,0.0,0.0,0.0,0.0,0.0,0.0,0.0,0.0,0.0,0.0,0.0,0.0,0.0,0.0,0.0,0.0,0.0,0.0,0.0,0.0,0.0,0.0,0.0,0.0,0.0,0.0,0.0,0.0,0.0,0.0,0.0,0.0,0.0,0.0,0.0,0.0,0.0,0.0,0.0,0.0,0.0,0.0,0.0,0.0,0.0,0.0,0.0,0.0,0.0,0.0,0.0,0.0,0.0,0.0,0.0,0.0,0.0,0.0,0.0,0.0,0.0,0.0,0.0,0.0,0.0,0.0,0.0,0.0,0.0,0.0,0.0,0.0,0.0,0.0,0.0,0.0,0.0,0.0,0.0,0.0,0.0,0.0,0.0,0.0,0.0,0.0,0.0,0.0,0.0,0.0,0.0,0.0,0.0,0.0,0.0,0.0,0.0,0.0,0.0,0.0,0.0,0.0,0.0,0.0,0.0,0.0,0.0,0.0,-0.703,0.0,0.0,0.0,0.0,0.0,0.0,0.0,0.0,0.0,0.0,0.0,0.0,0.0,0.0,0.0,0.0,0.0,0.0,0.0,0.0,0.0,0.0,0.0,0.0,0.0,0.0,0.0,0.0,0.0,0.0,0.0,0.0,0.0,0.0,0.0,0.0,0.0,0.0,0.0,0.0,0.0,0.0,0.0,0.0,0.0,0.0,0.0,0.0,0.0,0.0,0.0,0.0,0.0,0.0,0.0,0.0,0.0,0.0,0.0,0.0,0.0,0.0,0.0,0.0,0.0,0.0,0.0,0.0,0.0,0.0,0.0,0.0,0.0,0.0,0.0,0.0,0.0,0.0,0.0,0.0,0.0,0.0,0.0,0.0,0.0,0.0,0.0,0.0,0.0,0.0,0.0,0.0,0.0,0.0,0.0,0.0,0.0,0.0,0.0,0.0,0.0,0.0,0.0,0.0,0.0,0.0,0.0,0.0,0.0,0.0,-0.7329,-0.7173,-0.7093,-0.7026,-0.6927,0.0,0.0,0.0,0.0,0.0,0.0,0.0,0.0,0.0,0.0,0.0,0.0,0.0,0.0,0.0,0.0,0.0,0.0,0.0,0.0,0.0,0.0,0.0,0.0,0.0,0.0,0.0,0.0,0.0,0.0,0.0,0.0,0.0,0.0,0.0,0.0,0.0,0.0,0.0,0.0,0.0,0.0,0.0,0.0,0.0,0.0,0.0,0.0,0.0,0.0,0.0,0.0,0.0,0.0,0.0,0.0,0.0,0.0,0.0,0.0,0.0,0.0,0.0,0.0,0.0,0.0,0.0,0.0,0.0,0.0,0.0,0.0,0.0,0.0,0.0,0.0,0.0,0.0,0.0,0.0,0.0,0.0,0.0,0.0,0.0,0.0,0.0,0.0,0.0,0.0,0.0,0.0,0.0,0.0,0.0,0.0,0.0,0.0,0.0,0.0,0.0,0.0,0.0,0.0,0.0,0.0,0.0,0.0,0.0,0.0,0.0,0.0,-0.704,-0.6967,-0.6932,0.0,0.0,0.0,0.0,0.0,0.0,0.0,0.0,0.0,0.0,0.0,0.0,0.0,0.0,0.0,0.0,0.0,0.0,0.0,0.0,0.0,0.0,0.0,0.0,0.0,0.0,0.0,0.0,0.0,0.0,0.0,0.0,0.0,0.0,0.0,0.0,0.0,0.0,0.0,0.0,0.0,0.0,0.0,0.0,0.0,0.0,0.0,0.0,0.0,0.0,0.0,0.0,0.0,0.0,0.0,0.0,0.0,0.0,0.0,0.0,0.0,0.0,0.0,0.0,0.0,0.0,0.0,0.0,0.0,0.0,0.0,0.0,0.0,0.0,0.0,0.0,0.0,0.0,0.0,0.0,0.0,0.0,0.0,0.0,0.0,0.0,0.0,0.0,0.0,0.0,0.0,0.0,0.0,0.0,0.0,0.0,0.0,0.0,0.0,0.0,0.0,0.0,0.0,0.0,0.0,0.0,0.0,0.0,0.0,0.0,-0.714,-0.7363,-0.7471,0.0,-0.7332,0.0,0.0,0.0,0.0,0.0,0.0,0.0,0.0,0.0,0.0,0.0,0.0,0.0,0.0,0.0,0.0,0.0,0.0,0.0,0.0,0.0,0.0,0.0,0.0,0.0,0.0,0.0,0.0,0.0,0.0,0.0,0.0,0.0,0.0,0.0,0.0,0.0,0.0,0.0,0.0,0.0,0.0,0.0,0.0,0.0,0.0,0.0,0.0,0.0,0.0,0.0,0.0,0.0,0.0,0.0,0.0,0.0,0.0,0.0,0.0,0.0,0.0,0.0,0.0,0.0,0.0,0.0,0.0,0.0,0.0,0.0,0.0,0.0,0.0,0.0,0.0,0.0,0.0,0.0,0.0,0.0,0.0,0.0,0.0,0.0,0.0,0.0,0.0,0.0,0.0,0.0,0.0,0.0,0.0,0.0,0.0,0.0,0.0,0.0,0.0,0.0,0.0,0.0,0.0,0.0,0.0,0.0,0.0,0.0,0.0,-0.7009,-0.7381,-0.7413,-0.7199,0.0,0.0,0.0,0.0,0.0,0.0,0.0,0.0,0.0,0.0,0.0,0.0,0.0,0.0,0.0,0.0,0.0,0.0,0.0,0.0,0.0,0.0,0.0,0.0,0.0,0.0,0.0,0.0,0.0,0.0,0.0,0.0,0.0,0.0,0.0,0.0,0.0,0.0,0.0,0.0,0.0,0.0,0.0,0.0,0.0,0.0,0.0,0.0,0.0,0.0,0.0,0.0,0.0,0.0,0.0,0.0,0.0,0.0,0.0,0.0,0.0,0.0,0.0,0.0,0.0,0.0,0.0,0.0,0.0,0.0,0.0,0.0,0.0,0.0,0.0,0.0,0.0,0.0,0.0,0.0,0.0,0.0,0.0,0.0,0.0,0.0,0.0,0.0,0.0,0.0,0.0,0.0,0.0,0.0,0.0,0.0,0.0,0.0,0.0,0.0,0.0,0.0,0.0,0.0,0.0,0.0,0.0,0.0,0.0,0.0,-0.6893,-0.6916,-0.7356,-0.7129,-0.6863,-0.6529,0.0,0.0,0.0,0.0,0.0,0.0,0.0,0.0,0.0,0.0,0.0,0.0,0.0,0.0,0.0,0.0,0.0,0.0,0.0,0.0,0.0,0.0,0.0,0.0,0.0,0.0,0.0,0.0,0.0,0.0,0.0,0.0,0.0,0.0,0.0,0.0,0.0,0.0,0.0,0.0,0.0,0.0,0.0,0.0,0.0,0.0,0.0,0.0,0.0,0.0,0.0,0.0,0.0,0.0,0.0,0.0,0.0,0.0,0.0,0.0,0.0,0.0,0.0,0.0,0.0,0.0,0.0,0.0,0.0,0.0,0.0,0.0,0.0,0.0,0.0,0.0,0.0,0.0,0.0,0.0,0.0,0.0,0.0,0.0,0.0,0.0,0.0,0.0,0.0,0.0,0.0,0.0,0.0,0.0,0.0,0.0,0.0,0.0,0.0,0.0,0.0,0.0,0.0,0.0,0.0,0.0,0.0,0.0,-0.8098,-0.7156,-0.6862,-0.7312,-0.6657,-0.6498,0.0,0.0,0.0,0.0,0.0,0.0,0.0,0.0,0.0,0.0,0.0,0.0,0.0,0.0,0.0,0.0,0.0,0.0,0.0,0.0,0.0,0.0,0.0,0.0,0.0,0.0,0.0,0.0,0.0,0.0,0.0,0.0,0.0,0.0,0.0,0.0,0.0,0.0,0.0,0.0,0.0,0.0,0.0,0.0,0.0,0.0,0.0,0.0,0.0,0.0,0.0,0.0,0.0,0.0,0.0,0.0,0.0,0.0,0.0,0.0,0.0,0.0,0.0,0.0,0.0,0.0,0.0,0.0,0.0,0.0,0.0,0.0,0.0,0.0,0.0,0.0,0.0,0.0,0.0,0.0,0.0,0.0,0.0,0.0,0.0,0.0,0.0,0.0,0.0,0.0,0.0,0.0,0.0,0.0,0.0,0.0,0.0,0.0,0.0,0.0,0.0,0.0,0.0,0.0,0.0,0.0,0.0,0.0,0.0,-0.6042,-0.6165,-0.6141,-0.589,-0.6238,-0.6355,0.0,0.0,0.0,0.0,0.0,0.0,0.0,0.0,0.0,0.0,0.0,0.0,0.0,0.0,0.0,0.0,0.0,0.0,0.0,0.0,0.0,0.0,0.0,0.0,0.0,0.0,0.0,0.0,0.0,0.0,0.0,0.0,0.0,0.0,0.0,0.0,0.0,0.0,0.0,0.0,0.0,0.0,0.0,0.0,0.0,0.0,0.0,0.0,0.0,0.0,0.0,0.0,0.0,0.0,0.0,0.0,0.0,0.0,0.0,0.0,0.0,0.0,0.0,0.0,0.0,0.0,0.0,0.0,0.0,0.0,0.0,0.0,0.0,0.0,0.0,0.0,0.0,0.0,0.0,0.0,0.0,0.0,0.0,0.0,0.0,0.0,0.0,0.0,0.0,0.0,0.0,0.0,0.0,0.0,0.0,0.0,0.0,0.0,0.0,0.0,0.0,0.0,0.0,0.0,0.0,0.0,0.0,0.0,0.0,-0.5105,0.0,-0.6112,-0.5445,-0.5982,-0.6055,0.0,0.0,0.0,0.0,0.0,0.0,0.0,0.0,0.0,0.0,0.0,0.0,0.0,0.0,0.0,0.0,0.0,0.0,0.0,0.0,0.0,0.0,0.0,0.0,0.0,0.0,0.0,0.0,0.0,0.0,0.0,0.0,0.0,0.0,0.0,0.0,0.0,0.0,0.0,0.0,0.0,0.0,0.0,0.0,0.0,0.0,0.0,0.0,0.0,0.0,0.0,0.0,0.0,0.0,0.0,0.0,0.0,0.0,0.0,0.0,0.0,0.0,0.0,0.0,0.0,0.0,0.0,0.0,0.0,0.0,0.0,0.0,0.0,0.0,0.0,0.0,0.0,0.0,0.0,0.0,0.0,0.0,0.0,0.0,0.0,0.0,0.0,0.0,0.0,0.0,0.0,0.0,0.0,0.0,0.0,0.0,0.0,0.0,0.0,0.0,0.0,0.0,0.0,0.0,0.0,0.0,0.0,0.0,-0.5706,-0.5715,-0.662,-0.6727,-0.6183,-0.5856,-0.5627,0.0,0.0,0.0,0.0,0.0,0.0,0.0,0.0,0.0,0.0,0.0,0.0,0.0,0.0,0.0,0.0,0.0,0.0,0.0,0.0,0.0,0.0,0.0,0.0,0.0,0.0,0.0,0.0,0.0,0.0,0.0,0.0,0.0,0.0,0.0,0.0,0.0,0.0,0.0,0.0,0.0,0.0,0.0,0.0,0.0,0.0,0.0,0.0,0.0,0.0,0.0,0.0,0.0,0.0,0.0,0.0,0.0,0.0,0.0,0.0,0.0,0.0,0.0,0.0,0.0,0.0,0.0,0.0,0.0,0.0,0.0,0.0,0.0,0.0,0.0,0.0,0.0,0.0,0.0,0.0,0.0,0.0,0.0,0.0,0.0,0.0,0.0,0.0,0.0,0.0,0.0,0.0,0.0,0.0,0.0,0.0,0.0,0.0,0.0,0.0,0.0,0.0,0.0,0.0,0.0,0.0,0.0,0.0,0.0,-0.5505,-0.5433,-0.5465,-0.5563,-0.5396,-0.5422,0.0,0.0,0.0,0.0,0.0,0.0,0.0,0.0,0.0,0.0,0.0,0.0,0.0,0.0,0.0,0.0,0.0,0.0,0.0,0.0,0.0,0.0,0.0,0.0,0.0,0.0,0.0,0.0,0.0,0.0,0.0,0.0,0.0,0.0,0.0,0.0,0.0,0.0,0.0,0.0,0.0,0.0,0.0,0.0,0.0,0.0,0.0,0.0,0.0,0.0,0.0,0.0,0.0,0.0,0.0,0.0,0.0,0.0,0.0,0.0,0.0,0.0,0.0,0.0,0.0,0.0,0.0,0.0,0.0,0.0,0.0,0.0,0.0,0.0,0.0,0.0,0.0,0.0,0.0,0.0,0.0,0.0,0.0,0.0,0.0,0.0,0.0,0.0,0.0,0.0,0.0,0.0,0.0,0.0,0.0,0.0,0.0,0.0,0.0,0.0,0.0,0.0,0.0,0.0,0.0,0.0,0.0,0.0,0.0,-0.5813,-0.5315,-0.5237,-0.5643,-0.5333,-0.5274,-0.5518,0.0,0.0,0.0,0.0,0.0,0.0,0.0,0.0,0.0,0.0,0.0,0.0,0.0,0.0,0.0,0.0,0.0,0.0,0.0,0.0,0.0,0.0,0.0,0.0,0.0,0.0,0.0,0.0,0.0,0.0,0.0,0.0,0.0,0.0,0.0,0.0,0.0,0.0,0.0,0.0,0.0,0.0,0.0,0.0,0.0,0.0,0.0,0.0,0.0,0.0,0.0,0.0,0.0,0.0,0.0,0.0,0.0,0.0,0.0,0.0,0.0,0.0,0.0,0.0,0.0,0.0,0.0,0.0,0.0,0.0,0.0,0.0,0.0,0.0,0.0,0.0,0.0,0.0,0.0,0.0,0.0,0.0,0.0,0.0,0.0,0.0,0.0,0.0,0.0,0.0,0.0,0.0,0.0,0.0,0.0,0.0,0.0,0.0,0.0,0.0,0.0,0.0,0.0,0.0,0.0,0.0,0.0,0.0,-0.6487,-0.6081,-0.5963,-0.6201,-0.5654,-0.5263,0.0,0.0,0.0,0.0,0.0,0.0,0.0,0.0,0.0,0.0,0.0,0.0,0.0,0.0,0.0,0.0,0.0,0.0,0.0,0.0,0.0,0.0,0.0,0.0,0.0,0.0,0.0,0.0,0.0,0.0,0.0,0.0,0.0,0.0,0.0,0.0,0.0,0.0,0.0,0.0,0.0,0.0,0.0,0.0,0.0,0.0,0.0,0.0,0.0,0.0,0.0,0.0,0.0,0.0,0.0,0.0,0.0,0.0,0.0,0.0,0.0,0.0,0.0,0.0,0.0,0.0,0.0,0.0,0.0,0.0,0.0,0.0,0.0,0.0,0.0,0.0,0.0,0.0,0.0,0.0,0.0,0.0,0.0,0.0,0.0,0.0,0.0,0.0,0.0,0.0,0.0,0.0,0.0,0.0,0.0,0.0,0.0,0.0,0.0,0.0,0.0,0.0,0.0,0.0,0.0,0.0,0.0,0.0,0.0,-0.6287,-0.6346,-0.6409,-0.6475,-0.5972,-0.5648,0.0,0.0,0.0,0.0,0.0,0.0,0.0,0.0,0.0,0.0,0.0,0.0,0.0,0.0,0.0,0.0,0.0,0.0,0.0,0.0,0.0,0.0,0.0,0.0,0.0,0.0,0.0,0.0,0.0,0.0,0.0,0.0,0.0,0.0,0.0,0.0,0.0,0.0,0.0,0.0,0.0,0.0,0.0,0.0,0.0,0.0,0.0,0.0,0.0,0.0,0.0,0.0,0.0,0.0,0.0,0.0,0.0,0.0,0.0,0.0,0.0,0.0,0.0,0.0,0.0,0.0,0.0,0.0,0.0,0.0,0.0,0.0,0.0,0.0,0.0,0.0,0.0,0.0,0.0,0.0,0.0,0.0,0.0,0.0,0.0,0.0,0.0,0.0,0.0,0.0,0.0,0.0,0.0,0.0,0.0,0.0,0.0,0.0,0.0,0.0,0.0,0.0,0.0,0.0,0.0,0.0,0.0,0.0,-0.6595,-0.6551,-0.69,-0.6989,-0.681,-0.6514,-0.6217,0.0,0.0,0.0,0.0,0.0,0.0,0.0,0.0,0.0,0.0,0.0,0.0,0.0,0.0,0.0,0.0,0.0,0.0,0.0,0.0,0.0,0.0,0.0,0.0,0.0,0.0,0.0,0.0,0.0,0.0,0.0,0.0,0.0,0.0,0.0,0.0,0.0,0.0,0.0,0.0,0.0,0.0,0.0,0.0,0.0,0.0,0.0,0.0,0.0,0.0,0.0,0.0,0.0,0.0,0.0,0.0,0.0,0.0,0.0,0.0,0.0,0.0,0.0,0.0,0.0,0.0,0.0,0.0,0.0,0.0,0.0,0.0,0.0,0.0,0.0,0.0,0.0,0.0,0.0,0.0,0.0,0.0,0.0,0.0,0.0,0.0,0.0,0.0,0.0,0.0,0.0,0.0,0.0,0.0,0.0,0.0,0.0,0.0,0.0,0.0,0.0,0.0,0.0,0.0,0.0,0.0,0.0,0.0,-0.6858,-0.6963,-0.744,-0.7511,-0.7178,-0.7129,-0.6761,0.0,0.0,0.0,0.0,0.0,0.0,0.0,0.0,0.0,0.0,0.0,0.0,0.0,0.0,0.0,0.0,0.0,0.0,0.0,0.0,0.0,0.0,0.0,0.0,0.0,0.0,0.0,0.0,0.0,0.0,0.0,0.0,0.0,0.0,0.0,0.0,0.0,0.0,0.0,0.0,0.0,0.0,0.0,0.0,0.0,0.0,0.0,0.0,0.0,0.0,0.0,0.0,0.0,0.0,0.0,0.0,0.0,0.0,0.0,0.0,0.0,0.0,0.0,0.0,0.0,0.0,0.0,0.0,0.0,0.0,0.0,0.0,0.0,0.0,0.0,0.0,0.0,0.0,0.0,0.0,0.0,0.0,0.0,0.0,0.0,0.0,0.0,0.0,0.0,0.0,0.0,0.0,0.0,0.0,0.0,0.0,0.0,0.0,0.0,0.0,0.0,0.0,0.0,0.0,0.0,0.0,0.0,0.0,-0.6905,-0.6786,-0.7375,-0.7647,-0.7588,-0.7275,-0.6703,0.0,0.0,0.0,0.0,0.0,0.0,0.0,0.0,0.0,0.0,0.0,0.0,0.0,0.0,0.0,0.0,0.0,0.0,0.0,0.0,0.0,0.0,0.0,0.0,0.0,0.0,0.0,0.0,0.0,0.0,0.0,0.0,0.0,0.0,0.0,0.0,0.0,0.0,0.0,0.0,0.0,0.0,0.0,0.0,0.0,0.0,0.0,0.0,-0.3842,0.0,0.0,0.0,0.0,0.0,0.0,0.0,0.0,0.0,0.0,0.0,0.0,0.0,0.0,0.0,0.0,0.0,0.0,0.0,0.0,0.0,0.0,0.0,0.0,0.0,0.0,0.0,0.0,0.0,0.0,0.0,0.0,0.0,0.0,0.0,0.0,0.0,0.0,0.0,0.0,0.0,0.0,0.0,0.0,0.0,0.0,0.0,0.0,0.0,0.0,0.0,0.0,0.0,0.0,0.0,0.0,0.0,0.0,0.0,-0.7,-0.7195,-0.754,-0.7695,-0.7676,-0.7324,-0.6946,0.0,0.0,0.0,0.0,0.0,0.0,0.0,0.0,0.0,0.0,0.0,0.0,0.0,0.0,0.0,0.0,0.0,0.0,0.0,0.0,0.0,0.0,0.0,0.0,0.0,0.0,0.0,0.0,0.0,0.0,0.0,0.0,0.0,0.0,0.0,0.0,0.0,0.0,0.0,0.0,0.0,0.0,0.0,0.0,0.0,0.0,0.0,0.0,0.0,0.0,0.0,0.0,0.0,0.0,0.0,0.0,0.0,0.0,0.0,0.0,0.0,0.0,0.0,0.0,0.0,0.0,0.0,0.0,0.0,0.0,0.0,0.0,0.0,0.0,0.0,0.0,0.0,0.0,0.0,0.0,0.0,0.0,0.0,0.0,0.0,0.0,0.0,0.0,0.0,0.0,0.0,0.0,0.0,0.0,0.0,0.0,0.0,0.0,0.0,0.0,0.0,0.0,0.0,0.0,0.0,0.0,0.0,-0.6978,-0.7167,-0.7834,-0.7756,-0.7695,-0.7695,-0.7383,-0.727,-0.7413,0.0,0.0,0.0,0.0,0.0,0.0,0.0,0.0,0.0,0.0,0.0,0.0,0.0,0.0,0.0,0.0,0.0,0.0,0.0,0.0,0.0,0.0,0.0,0.0,0.0,0.0,0.0,0.0,0.0,0.0,0.0,0.0,0.0,0.0,0.0,0.0,0.0,0.0,-0.4797,-0.5379,0.0,0.0,0.0,0.0,0.0,0.0,0.0,0.0,-0.4227,0.0,0.0,0.0,0.0,0.0,0.0,0.0,0.0,0.0,0.0,0.0,0.0,0.0,0.0,0.0,0.0,0.0,0.0,0.0,0.0,0.0,0.0,0.0,0.0,0.0,0.0,0.0,0.0,0.0,0.0,0.0,0.0,0.0,0.0,0.0,0.0,0.0,0.0,0.0,0.0,0.0,0.0,0.0,0.0,0.0,0.0,0.0,0.0,0.0,0.0,0.0,0.0,0.0,0.0,0.0,0.0,-0.8145,-0.7328,-0.7289,-0.8108,-0.7859,-0.7695,-0.7695,-0.7637,-0.7627,-0.7579,0.0,0.0,0.0,0.0,0.0,0.0,0.0,0.0,0.0,0.0,0.0,0.0,0.0,0.0,0.0,0.0,0.0,0.0,0.0,0.0,0.0,0.0,0.0,0.0,0.0,0.0,0.0,0.0,0.0,0.0,0.0,0.0,0.0,0.0,0.0,0.0,0.0,0.0,0.0,-0.6242,-0.6498,0.0,0.0,0.0,0.0,0.0,0.0,0.0,0.0,-0.4354,0.0,0.0,0.0,0.0,0.0,0.0,0.0,0.0,0.0,0.0,0.0,0.0,0.0,0.0,0.0,0.0,0.0,0.0,0.0,0.0,0.0,0.0,0.0,0.0,0.0,0.0,0.0,0.0,0.0,0.0,0.0,0.0,0.0,0.0,0.0,0.0,0.0,0.0,0.0,0.0,0.0,0.0,0.0,0.0,0.0,0.0,0.0,0.0,0.0,0.0,0.0,0.0,0.0,0.0,0.0,-0.7693,-0.7135,-0.7073,-0.7597,-0.7289,-0.7094,-0.7014,-0.7014,-0.7121,0.0,0.0,0.0,0.0,0.0,0.0,0.0,0.0,0.0,0.0,0.0,0.0,0.0,0.0,0.0,0.0,0.0,0.0,0.0,0.0,0.0,0.0,0.0,0.0,0.0,0.0,0.0,0.0,0.0,0.0,0.0,0.0,0.0,0.0,0.0,0.0,0.0,0.0,0.0,0.0,-0.6166,-0.6197,-0.5943,0.0,0.0,0.0,0.0,0.0,0.0,-0.494,-0.4866,0.0,0.0,0.0,0.0,0.0,0.0,0.0,0.0,0.0,0.0,0.0,0.0,0.0,0.0,0.0,0.0,0.0,0.0,0.0,0.0,0.0,0.0,0.0,0.0,0.0,0.0,0.0,0.0,0.0,0.0,0.0,0.0,0.0,0.0,0.0,0.0,0.0,0.0,0.0,0.0,0.0,0.0,0.0,0.0,0.0,0.0,0.0,0.0,0.0,0.0,0.0,0.0,0.0,0.0,0.0,-0.7154,-0.681,-0.6749,-0.7014,-0.6729,-0.6513,-0.6416,-0.6504,-0.6719,0.0,0.0,0.0,0.0,0.0,0.0,0.0,0.0,0.0,0.0,0.0,0.0,0.0,0.0,0.0,0.0,0.0,0.0,0.0,0.0,0.0,0.0,0.0,0.0,0.0,0.0,0.0,0.0,0.0,0.0,0.0,0.0,0.0,0.0,0.0,0.0,0.0,0.0,0.0,0.0,0.0,-0.5974,-0.5674,-0.5902,0.0,0.0,0.0,0.0,-0.5584,-0.5655,0.0,0.0,0.0,0.0,0.0,0.0,0.0,0.0,0.0,0.0,0.0,0.0,0.0,0.0,0.0,0.0,0.0,0.0,0.0,0.0,0.0,0.0,0.0,0.0,0.0,0.0,0.0,0.0,0.0,0.0,0.0,0.0,0.0,0.0,0.0,0.0,0.0,0.0,0.0,0.0,0.0,0.0,0.0,0.0,0.0,0.0,0.0,0.0,0.0,0.0,0.0,0.0,0.0,0.0,0.0,0.0,-0.7158,-0.663,-0.6499,-0.6803,-0.6551,-0.6406,-0.6416,-0.6807,-0.7041,0.0,0.0,0.0,0.0,0.0,0.0,0.0,0.0,0.0,0.0,0.0,0.0,0.0,0.0,0.0,0.0,0.0,0.0,0.0,0.0,0.0,0.0,0.0,0.0,0.0,0.0,0.0,0.0,0.0,0.0,0.0,0.0,0.0,0.0,0.0,0.0,0.0,0.0,0.0,0.0,0.0,-0.6582,-0.6012,-0.6279,-0.6424,0.0,0.0,0.0,-0.6371,-0.6874,0.0,0.0,0.0,0.0,0.0,0.0,0.0,0.0,0.0,0.0,0.0,0.0,0.0,0.0,0.0,0.0,0.0,0.0,0.0,0.0,0.0,0.0,0.0,0.0,0.0,0.0,0.0,0.0,0.0,0.0,0.0,0.0,0.0,0.0,0.0,0.0,0.0,0.0,0.0,0.0,0.0,0.0,0.0,0.0,0.0,0.0,0.0,0.0,0.0,0.0,0.0,0.0,0.0,0.0,0.0,-0.6497,-0.707,-0.6403,-0.605,-0.6045,-0.5865,-0.5866,-0.6045,-0.6475,-0.6836,0.0,0.0,0.0,0.0,0.0,0.0,0.0,0.0,0.0,0.0,0.0,0.0,0.0,0.0,0.0,0.0,0.0,0.0,0.0,0.0,0.0,0.0,0.0,0.0,0.0,0.0,0.0,0.0,0.0,0.0,0.0,0.0,0.0,0.0,0.0,0.0,0.0,0.0,0.0,0.0,0.0,0.0,-0.6395,-0.6613,0.0,0.0,0.0,-0.682,-0.678,0.0,0.0,0.0,0.0,0.0,0.0,0.0,0.0,0.0,0.0,0.0,0.0,0.0,0.0,0.0,0.0,0.0,0.0,0.0,0.0,0.0,0.0,0.0,0.0,0.0,0.0,0.0,0.0,0.0,0.0,0.0,0.0,0.0,0.0,0.0,0.0,0.0,0.0,0.0,0.0,0.0,0.0,0.0,0.0,0.0,0.0,0.0,0.0,0.0,0.0,0.0,0.0,0.0,0.0,0.0,0.0,0.0,-0.7017,-0.6187,-0.5644,-0.5454,-0.5421,-0.5552,-0.5793,-0.6289,0.0,0.0,0.0,0.0,0.0,0.0,0.0,0.0,0.0,0.0,0.0,0.0,0.0,0.0,0.0,0.0,0.0,0.0,0.0,0.0,0.0,0.0,0.0,0.0,0.0,0.0,0.0,-0.4428,0.0,0.0,0.0,0.0,0.0,0.0,0.0,0.0,0.0,0.0,0.0,0.0,0.0,0.0,-0.6732,-0.6687,-0.7014,-0.7204,0.0,0.0,-0.7308,-0.7161,-0.7402,-0.7588,0.0,0.0,0.0,0.0,0.0,0.0,0.0,0.0,0.0,0.0,0.0,0.0,0.0,0.0,0.0,0.0,0.0,0.0,0.0,0.0,0.0,0.0,0.0,0.0,0.0,0.0,0.0,0.0,0.0,0.0,0.0,0.0,0.0,0.0,0.0,0.0,0.0,0.0,0.0,0.0,0.0,0.0,0.0,0.0,0.0,0.0,0.0,0.0,0.0,0.0,0.0,0.0,0.0,0.0,0.0,-0.6861,-0.5992,-0.5454,-0.535,-0.5621,-0.5774,-0.5813,-0.6602,-0.707,0.0,0.0,0.0,0.0,0.0,0.0,0.0,0.0,0.0,0.0,0.0,0.0,0.0,0.0,0.0,0.0,0.0,0.0,0.0,0.0,0.0,0.0,0.0,0.0,0.0,0.0,0.0,0.0,0.0,0.0,0.0,0.0,0.0,0.0,0.0,0.0,0.0,0.0,0.0,0.0,0.0,-0.6687,-0.6954,-0.745,-0.7822,0.0,0.0,-0.809,-0.7567,-0.8444,-0.8606,-0.663,0.0,0.0,0.0,0.0,0.0,0.0,0.0,0.0,0.0,0.0,0.0,0.0,0.0,0.0,0.0,0.0,0.0,0.0,0.0,0.0,0.0,0.0,0.0,0.0,0.0,0.0,0.0,0.0,0.0,0.0,0.0,0.0,0.0,0.0,0.0,0.0,0.0,0.0,0.0,0.0,0.0,0.0,0.0,0.0,0.0,0.0,0.0,0.0,0.0,0.0,0.0,0.0,0.0,-0.6083,-0.6955,-0.6157,-0.5714,-0.564,-0.5992,-0.6309,-0.6592,-0.6924,-0.7227,0.0,0.0,0.0,0.0,0.0,0.0,0.0,0.0,0.0,0.0,0.0,0.0,0.0,0.0,0.0,0.0,0.0,0.0,0.0,0.0,0.0,0.0,0.0,0.0,0.0,0.0,0.0,0.0,-0.4329,-0.454,-0.4712,0.0,0.0,0.0,0.0,0.0,0.0,0.0,0.0,0.0,0.0,-0.7306,-0.7809,-0.8056,0.0,0.0,-0.8417,-0.8363,-0.8303,-0.8504,-0.824,-0.6909,-0.7622,0.0,0.0,0.0,0.0,0.0,0.0,0.0,0.0,0.0,0.0,0.0,0.0,0.0,0.0,0.0,0.0,0.0,0.0,0.0,0.0,0.0,0.0,0.0,0.0,0.0,0.0,0.0,0.0,0.0,0.0,0.0,0.0,0.0,0.0,0.0,0.0,0.0,0.0,0.0,0.0,0.0,0.0,0.0,0.0,0.0,0.0,0.0,0.0,0.0,0.0,0.0,0.0,-0.622,-0.7114,-0.6416,-0.6009,-0.5982,-0.6377,-0.6768,-0.709,-0.7217,-0.7404,0.0,0.0,0.0,0.0,0.0,0.0,0.0,0.0,0.0,0.0,0.0,0.0,0.0,0.0,0.0,0.0,0.0,0.0,0.0,0.0,0.0,0.0,0.0,0.0,0.0,0.0,0.0,0.0,-0.4565,-0.4756,-0.5003,0.0,0.0,0.0,0.0,0.0,0.0,0.0,0.0,0.0,0.0,-0.7716,-0.8306,-0.8501,-0.8571,-0.8778,-0.8637,-0.8517,-0.8537,-0.8464,-0.8034,-0.7026,0.0,0.0,0.0,0.0,0.0,0.0,0.0,0.0,0.0,0.0,0.0,0.0,0.0,0.0,0.0,0.0,0.0,0.0,0.0,0.0,0.0,0.0,0.0,0.0,0.0,0.0,0.0,0.0,0.0,0.0,0.0,0.0,0.0,0.0,0.0,0.0,0.0,0.0,0.0,0.0,0.0,0.0,0.0,0.0,0.0,0.0,0.0,0.0,0.0,0.0,0.0,0.0,0.0,-0.6959,-0.7367,-0.6725,-0.6405,-0.6412,-0.6831,-0.709,-0.7119,-0.7472,-0.7686,-0.7695,0.0,0.0,0.0,0.0,0.0,0.0,0.0,0.0,0.0,0.0,0.0,0.0,0.0,0.0,0.0,0.0,0.0,0.0,0.0,0.0,0.0,0.0,0.0,0.0,0.0,0.0,-0.5631,-0.543,-0.5272,0.0,0.0,0.0,0.0,0.0,0.0,0.0,0.0,0.0,0.0,-0.7492,-0.7728,-0.829,-0.8617,-0.8791,-0.8804,-0.8798,-0.8604,-0.8021,-0.843,-0.8276,0.0,0.0,0.0,0.0,0.0,0.0,0.0,0.0,0.0,0.0,0.0,0.0,0.0,0.0,0.0,0.0,0.0,0.0,0.0,0.0,0.0,0.0,0.0,0.0,0.0,0.0,0.0,0.0,0.0,0.0,0.0,0.0,0.0,0.0,0.0,0.0,0.0,0.0,0.0,0.0,-1.0854,-1.0722,0.0,0.0,0.0,0.0,0.0,0.0,0.0,0.0,0.0,0.0,0.0,0.0,-0.6927,-0.7179,-0.7123,-0.7,-0.6875,-0.7295,-0.7481,-0.7529,-0.7618,-0.7695,-0.7695,0.0,0.0,0.0,0.0,0.0,0.0,0.0,0.0,0.0,0.0,0.0,0.0,0.0,0.0,0.0,0.0,0.0,0.0,0.0,0.0,0.0,0.0,0.0,0.0,0.0,-0.572,0.0,0.0,0.0,0.0,0.0,0.0,0.0,0.0,0.0,0.0,0.0,-0.6994,-0.7148,-0.7633,-0.8058,-0.8373,-0.8617,-0.8804,0.0,0.0,0.0,0.0,0.0,0.0,0.0,0.0,0.0,0.0,0.0,0.0,0.0,0.0,-0.8571,-0.7218,-0.6807,-0.6687,-0.6806,0.0,0.0,0.0,0.0,0.0,0.0,0.0,0.0,0.0,0.0,0.0,0.0,0.0,0.0,0.0,0.0,-1.027,0.0,0.0,0.0,0.0,0.0,0.0,0.0,0.0,-1.1194,-1.1412,-1.1605,-1.1605,-1.1588,0.0,-1.1226,-1.0355,0.0,0.0,0.0,0.0,0.0,0.0,0.0,0.0,-0.7255,-0.7467,-0.7511,-0.742,-0.7326,-0.7577,-0.7695,-0.7695,-0.7695,-0.7695,-0.7695,-0.7695,-0.7433,0.0,0.0,0.0,0.0,0.0,0.0,0.0,0.0,0.0,0.0,0.0,0.0,0.0,0.0,0.0,0.0,0.0,0.0,0.0,0.0,0.0,0.0,0.0,-0.6042,0.0,0.0,0.0,0.0,0.0,0.0,0.0,0.0,0.0,-0.6433,-0.6955,-0.7454,-0.7582,-0.7997,-0.8337,-0.8535,0.0,0.0,0.0,0.0,0.0,0.0,0.0,-0.823,-0.8301,-0.8286,-0.837,-0.867,-0.9099,-0.9359,-0.9203,0.0,0.0,-0.807,-0.7736,-0.7689,-0.7822,-0.7896,-0.7936,-0.7936,-0.8084,-0.816,0.0,0.0,0.0,0.0,0.0,0.0,0.0,0.0,-1.1308,-1.1343,0.0,0.0,0.0,0.0,0.0,0.0,0.0,0.0,0.0,0.0,-1.2215,-1.219,-1.1751,-1.1761,-1.1668,0.0,-1.1947,-1.1682,-1.0834,-0.9796,0.0,0.0,0.0,0.0,0.0,0.0,-0.7939,-0.8228,-0.7949,-0.7744,-0.7724,-0.7734,-0.7715,-0.7695,-0.7695,-0.7695,-0.7695,-0.7695,-0.7695,-0.7686,-0.7686,0.0,0.0,0.0,0.0,0.0,0.0,0.0,0.0,0.0,0.0,0.0,0.0,0.0,0.0,0.0,0.0,0.0,0.0,0.0,0.0,-0.6643,0.0,0.0,0.0,0.0,0.0,0.0,0.0,0.0,0.0,0.0,-0.8236,-0.7817,-0.7764,-0.8637,0.0,0.0,0.0,0.0,-0.8811,-0.8824,-0.9058,-0.909,-0.8884,-0.8838,-0.868,-0.8305,0.0,0.0,-0.9559,-0.9593,-0.9633,-0.9345,-0.9552,-0.9653,-0.9446,-0.9058,-0.8925,-0.9265,-0.9065,-0.8864,-0.8831,-0.8889,-0.8917,-1.366,0.0,0.0,0.0,0.0,-1.2917,-1.2857,-1.2906,-1.2479,-1.225,-1.2165,-1.2002,0.0,0.0,0.0,0.0,0.0,0.0,-1.2346,-1.2747,-1.3333,-1.3745,-1.3946,-1.3968,-1.3934,-1.3868,-1.3225,-1.2753,-1.2465,-1.1431,-1.0338,-0.9267,0.0,0.0,0.0,0.0,-0.9549,-0.9214,-0.9214,-0.8943,-0.8345,-0.8239,-0.8037,-0.7705,-0.7695,-0.7695,-0.7695,-0.7695,-0.7695,-0.7695,-0.7695,0.0,0.0,0.0,0.0,0.0,0.0,0.0,0.0,0.0,0.0,0.0,0.0,0.0,0.0,0.0,0.0,0.0,0.0,0.0,-0.5881,-0.6276,-0.6468,0.0,0.0,0.0,0.0,0.0,0.0,0.0,0.0,0.0,-0.7938,-0.8034,-0.8228,0.0,0.0,-0.8637,-0.851,-0.8677,-0.8878,-0.9085,0.0,0.0,0.0,-0.9432,-0.9381,-0.9281,-0.9774,-1.0197,-1.0254,-1.0335,-1.0281,-1.0187,-1.0254,-1.0287,-1.0275,-0.9793,-0.9546,-0.9733,-0.9766,-0.974,-0.974,-0.9931,-1.0037,-1.5896,-1.5278,-1.4528,-1.4199,-1.4232,-1.4366,-1.4456,-1.4508,-1.4119,-1.3914,-1.3872,-1.3403,-1.3068,-1.2736,-1.2405,0.0,0.0,0.0,-1.3358,-1.3898,-1.4261,-1.4588,-1.4865,-1.4898,-1.4899,-1.4862,-1.4212,-1.3877,-1.3873,-1.2994,-1.2073,-1.1018,0.0,0.0,-1.0091,-1.0138,-1.0102,-0.9994,-0.9655,-0.9423,-0.9273,-0.8682,-0.8252,-0.7998,-0.7783,-0.7695,-0.7695,-0.7695,-0.7695,-0.7695,-0.7695,-0.7367,0.0,0.0,0.0,0.0,0.0,0.0,0.0,0.0,0.0,0.0,0.0,-0.4686,0.0,0.0,0.0,0.0,-0.6098,-0.6529,-0.6011,-0.6584,0.0,0.0,0.0,0.0,0.0,0.0,0.0,-0.7273,-0.763,-0.787,-0.7854,-0.8146,-0.8468,-0.8744,-0.8804,-0.8744,-0.8571,0.0,-0.8991,-0.9157,-0.9376,-0.9633,-0.978,-0.9933,-1.0087,-1.0033,-1.017,-1.0325,-1.0555,-1.0618,-1.0618,-1.0618,-1.0618,-1.0618,-1.0618,-1.0329,-1.006,-1.0187,-1.0254,-1.0294,-1.0294,-1.0504,-1.0501,-1.8206,-1.7612,-1.5873,-1.5109,-1.5141,-1.6158,-1.6413,-1.6175,-1.5915,-1.5971,-1.614,-1.5114,-1.4628,-1.453,-1.3725,0.0,0.0,-1.4198,-1.4488,-1.4966,-1.5016,-1.5003,-1.5041,-1.5003,-1.5041,-1.5028,-1.4988,-1.4964,-1.4926,-1.4425,-1.3835,-1.3248,-1.1932,-1.1132,-1.088,-1.0276,-1.019,-1.0673,-0.9711,-0.9545,-1.0225,-0.9076,-0.8447,-0.8401,-0.7988,-0.7734,-0.7695,-0.7695,-0.7715,-0.7744,-0.7715,-0.7224,-0.6193,0.0,0.0,0.0,0.0,0.0,0.0,0.0,0.0,0.0,0.0,0.0,0.0,0.0,0.0,0.0,-0.7114,0.0,-0.6416,-0.7284,0.0,0.0,0.0,-0.6959,-0.7069,-0.7373,-0.7559,-0.7461,0.0,0.0,0.0,0.0,-0.851,-0.8771,-0.8804,-0.8804,-0.8804,-0.9018,-0.9157,-0.9176,-0.9693,-1.002,-0.9973,-1.0329,-1.0564,-1.0564,-1.0618,-1.0555,-1.0618,-1.0618,-1.0618,-1.0618,-1.0618,-1.0618,-1.0618,-1.0598,-1.0618,-1.0598,-1.0604,-1.0611,-1.0604,-1.0618,-1.0618,-1.8874,-1.8238,-1.8064,-1.7618,-1.7025,-1.7181,-1.7104,-1.6857,-1.6684,-1.6535,-1.6403,-1.5973,-1.5558,-1.5166,-1.4962,-1.4814,-1.4727,-1.5116,-1.5379,-1.553,-1.5932,-1.612,-1.612,-1.6132,-1.612,-1.6078,-1.5697,-1.5526,-1.547,-1.4947,-1.4437,-1.3896,-1.3513,-1.293,-1.2049,-1.1892,-1.1745,-1.1533,-1.0845,-1.0266,-0.9776,-0.9485,-0.9023,-0.8389,-0.8303,-0.8066,-0.7705,-0.7695,-0.7851,-0.8193,-0.79,-0.787,-0.8213,-0.6247,0.0,0.0,0.0,0.0,0.0,0.0,0.0,0.0,0.0,-0.6183,-0.5139,0.0,-0.6235,0.0,-0.6164,-0.6606,-0.6746,-0.699,0.0,0.0,-0.7024,-0.7106,-0.778,-0.7595,-0.7572,-0.7963,-0.8227,-0.845,-0.8571,-0.8664,-0.8724,-0.8798,-0.8804,-0.8804,-0.8811,-0.8858,-0.8931,-0.9157,-0.9446,-0.9659,-0.994,-1.0301,-1.0555,-1.0618,-1.0618,-1.0618,-1.0618,-1.0618,-1.0618,-1.0618,-1.0618,-1.0618,-1.0618,-1.0618,-1.0618,-1.0618,-1.0618,-1.0618,-1.0618,-1.0618,-1.0618,-2.0575,-1.9923,-1.9672,-1.9253,-1.8767,-1.8548,-1.8411,-1.8223,-1.8077,-1.7935,-1.7748,-1.7399,-1.6965,-1.6441,-1.631,-1.6074,-1.5805,-1.5973,-1.6057,-1.6082,-1.6371,-1.6534,-1.6534,-1.6534,-1.6534,-1.6479,-1.6182,-1.6046,-1.604,-1.5524,-1.5004,-1.4462,-1.4211,-1.3657,-1.2785,-1.2575,-1.2389,-1.2187,-1.1502,-1.0764,-1.0071,-0.9763,-0.9369,-0.8955,-0.875,-0.8545,-0.8301,-0.8269,-0.8408,-0.8623,-0.8418,-0.8299,-0.8396,-0.7803,-0.7215,0.0,0.0,0.0,0.0,0.0,0.0,0.0,0.0,0.0,0.0,0.0,-0.7122,0.0,0.0,0.0,-0.7406,-0.7614,-0.7843,-0.8051,-0.7654,-0.7594,-0.8168,-0.8006,-0.799,-0.8417,-0.853,-0.8624,-0.8784,-0.8804,-0.8804,-0.8804,-0.8804,-0.8804,-0.8824,-0.8911,-0.9004,-0.9163,-0.9472,-0.9679,-0.984,-1.0036,-1.0268,-1.0548,-1.0618,-1.0618,-1.0618,-1.0618,-1.0618,-1.0618,-1.0618,-1.0618,-1.0618,-1.0618,-1.0618,-1.0618,-1.0618,-1.0618,-1.0618,-1.0618,-1.0618,-2.2525,-2.1879,-2.0908,-2.0354,-2.0065,-1.9908,-1.9765,-1.969,-1.9508,-1.9472,-1.9494,-1.9027,-1.8551,-1.8045,-1.7705,-1.7402,-1.7148,-1.6807,-1.6627,-1.6565,-1.6597,-1.6584,-1.6534,-1.6534,-1.6534,-1.6534,-1.6534,-1.6534,-1.6466,-1.6032,-1.5517,-1.5004,-1.4538,-1.3997,-1.3323,-1.2888,-1.2663,-1.2603,-1.176,-1.1105,-1.0649,-1.0024,-0.9651,-0.9583,-0.9268,-0.9053,-0.9004,-0.9004,-0.9033,-0.9082,-0.9033,-0.8711,-0.8094,-0.9473,-0.9464,0.0,-0.7354,0.0,0.0,0.0,0.0,0.0,0.0,0.0,0.0,-0.7521,-0.7824,-0.8059,-0.7968,-0.7957,-0.8125,-0.8496,-0.873,-0.8566,-0.8349,-0.8219,-0.8389,-0.8477,-0.8585,-0.8778,-0.8804,-0.8857,-0.8811,-0.8804,-0.8804,-0.8804,-0.8804,-0.8804,-0.8824,-0.8951,-0.9145,-0.913,-0.9546,-0.9646,-0.9599,-0.9556,-0.9778,-1.0226,-1.0416,-1.049,-1.0436,-1.0497,-1.0557,-1.0557,-1.0521,-1.0618,-1.0618,-1.0618,-1.0618,-1.0618,-1.0618,-1.0618,-1.0618,-1.0618,-1.0618,-2.3291,-2.2313,-2.17,-2.0911,-2.0111,-2.0399,-2.0198,-1.969,-1.9654,-1.9842,-2.0194,-2.0118,-2.0081,-1.9978,-1.9252,-1.8755,-1.8421,-1.7891,-1.7372,-1.6879,-1.7131,-1.6961,-1.6547,-1.6534,-1.6534,-1.6534,-1.6534,-1.6534,-1.6522,-1.6421,-1.6082,-1.5542,-1.5429,-1.4928,0.0,0.0,0.0,0.0,-1.1612,-1.1195,-1.0922,-1.0426,-1.0,-0.9612,-0.9515,0.0,-0.9033,-0.9004,-0.917,-0.9482,-0.9199,0.0,0.0,0.0,0.0,0.0,0.0,0.0,0.0,0.0,0.0,0.0,-0.7918,-0.7685,-0.7525,-0.7739,-0.8024,-0.8429,-0.807,-0.7923,-0.8242,-0.8386,-0.8497,-0.8518,-0.8505,-0.854,-0.8658,-0.8813,-0.8933,-0.8823,-0.9015,-0.9061,-0.8857,-0.8804,-0.8804,-0.8804,-0.8804,-0.8804,-0.8804,-0.8864,-0.8891,-0.8905,-0.9031,-0.9038,-0.8978,-0.8982,-0.9066,-0.9185,-0.9566,-0.9825,-0.9719,-0.9987,-1.02,-1.0227,-1.0394,-1.0618,-1.0618,-1.0618,-1.0618,-1.0618,-1.0618,-1.0618,-1.0618,-1.0618,-1.0618,-2.4478,0.0,-2.311,-2.228,0.0,0.0,-2.1243,-2.0677,-2.0677,-2.0833,-2.1069,-2.103,-2.0995,-2.0849,-2.0312,-1.9921,-1.9572,-1.8983,-1.8473,-1.8053,-1.7978,-1.7624,-1.6936,-1.6946,-1.6764,-1.6534,-1.6534,-1.6534,-1.6534,-1.6534,-1.6233,-1.5693,-1.5693,-1.5279,-1.4513,-1.4488,-1.3816,-1.2449,-1.2107,-1.1656,-1.1159,-1.084,-1.0434,-0.9961,0.0,0.0,0.0,0.0,0.0,0.0,0.0,0.0,0.0,0.0,0.0,-1.0312,-0.9714,-0.9327,-0.9152,-0.9143,-0.9114,-0.9039,-0.8668,-0.8277,-0.8023,-0.8278,-0.8357,-0.8173,-0.8176,-0.8253,-0.8356,-0.8412,-0.8483,-0.8708,-0.8798,-0.8893,-0.9127,-0.9278,-0.9351,-0.9325,-0.9271,-0.9159,-0.9106,-0.891,-0.8804,-0.8804,-0.8804,-0.8804,-0.8804,-0.8804,-0.8804,-0.8804,-0.8804,-0.8811,-0.8804,-0.8804,-0.8804,-0.8858,-0.9234,-0.9562,-0.9697,-0.9879,-1.01,-1.0281,-1.0461,-1.0618,-1.0618,-1.0618,-1.0501,-1.0409,-1.049,-1.045,-1.0188,-1.0342,-1.0445,-2.5646,-2.533,-2.4448,-2.3699,-2.3012,-2.2744,-2.2448,-2.2089,0.0,0.0,0.0,-2.1859,-2.1798,-2.1571,-2.1289,-2.1023,-2.0727,-2.0108,-1.9601,-1.9119,-1.895,-1.8349,-1.7498,-1.7445,-1.7145,-1.6683,-1.6547,-1.6534,-1.6534,-1.6534,-1.6283,-1.5869,-1.5844,-1.5555,-1.5079,-1.4953,-1.435,-1.3203,-1.2794,-1.223,-1.1468,-1.1094,-1.0764,-1.0351,-1.0322,-1.0322,-1.0322,-1.0322,-1.0322,-1.0322,-1.0322,-1.0322,-1.0322,-1.0322,-1.0322,-1.0322,-1.0322,-1.0322,-1.0322,-1.0322,-1.0156,-0.9808,-0.9327,-0.8904,-0.8422,-0.879,-0.884,-0.8238,-0.8542,-0.87,-0.8646,-0.8472,-0.8563,-0.8936,-0.8996,-0.9178,-0.9614,-0.9666,-0.971,-0.9873,-0.9569,-0.9309,-0.9309,-0.9001,-0.8804,-0.8804,-0.8804,-0.8804,-0.8804,-0.8804,-0.8804,-0.8804,-0.8804,-0.8804,-0.8804,-0.8804,-0.8804,-0.8811,-0.9063,-0.943,-0.9726,-0.9883,-1.002,-1.0367,-1.0474,-1.0494,-1.0604,-1.0488,-1.0347,-1.004,-1.01,-1.0094,-0.9619,-0.9833,-1.0099,-2.6084,-2.5363,-2.5012,-2.4345,-2.3517,-2.3633,-2.3717,-2.3655,-2.2295,-2.2009,-2.2532,-2.2589,-2.2832,-2.3253,-2.2505,-2.2184,-2.2085,-2.1455,-2.0469,0.0,-1.9664,-1.9114,-1.7841,-1.7519,-1.7364,-1.7226,-1.6764,-1.6534,-1.6534,-1.6534,-1.6471,-1.6396,-1.6396,-1.612,-1.558,-1.5142,-1.4802,-1.46,-1.345,-1.2577,-1.2016,-1.1105,-1.0621,-1.0544,-1.039,-1.0322,-1.0322,-1.0322,-1.0322,-1.0322,-1.0322,-1.0322,-1.0322,-1.0322,-1.0322,-1.0322,-1.0322,-1.0322,-1.0322,-1.0322,-1.0321,-1.0349,-1.0303,-0.9742,-0.8528,-0.8913,-0.9508,-1.0083,-0.9649,-0.9265,-0.9391,-0.8959,-0.8768,-0.8997,-0.9056,-0.9375,-1.0026,-1.0035,-0.9984,-1.0123,-0.9821,-0.9406,-0.9263,-0.9015,-0.8804,-0.8804,-0.8804,-0.8804,-0.8804,-0.8804,-0.8804,-0.8804,-0.8804,-0.8804,-0.8804,-0.8804,-0.8804,-0.8804,-0.8864,-0.9052,-0.9375,-0.9455,-0.9629,-1.0114,-1.0241,-1.0314,-1.0557,-1.0342,-1.0114,-0.9973,-0.9639,-0.9252,-0.9312,-0.9279,-0.9256,-2.6472,-2.6118,-2.5984,-2.5528,-2.4868,-2.4687,-2.4469,-2.4236,-2.3488,-2.3167,-2.3161,-2.3176,-2.3325,-2.3565,-2.321,-2.3033,-2.3033,-2.2542,-2.1916,-2.1139,-2.068,-1.9953,-1.9048,-1.8393,-1.7999,-1.7796,-1.7549,-1.7276,-1.699,-1.6973,-1.6823,-1.6547,-1.6534,-1.6396,-1.6145,-1.5894,-1.5618,-1.5316,-1.4455,-1.3486,-1.2539,-1.2101,-1.1446,-1.0631,-1.0505,-1.04,-1.0322,-1.0322,-1.0322,-1.0322,-1.0322,-1.0322,-1.0322,-1.0322,-1.0322,-1.0322,-1.0322,-1.0322,-1.0322,-1.0498,-1.0591,-1.0512,-1.0686,-1.0474,-0.9667,-0.9106,-0.9657,-1.1593,-1.1453,-1.094,-1.0237,-0.9856,-0.9785,-1.0131,-1.0171,-1.0303,-1.057,-1.0454,-1.0241,-1.0079,-0.9673,-0.9361,-0.9211,-0.8956,-0.8804,-0.8804,-0.8804,-0.8804,-0.8804,-0.8804,-0.8804,-0.8804,-0.8804,-0.8804,-0.8804,-0.8804,-0.8804,-0.8804,-0.8804,-0.8998,-0.9336,-0.9538,-0.9806,-1.0226,-1.0354,-1.0408,-1.0604,-1.049,-1.0234,-1.002,-0.9646,-0.9339,-0.9132,-0.8918,-0.9072,-2.6708,-2.6708,-2.6708,-2.6436,-2.6049,-2.5561,-2.5067,-2.4592,-2.4471,-2.4116,-2.3739,-2.3638,-2.3595,-2.3595,-2.3595,-2.3595,-2.3566,-2.3334,-2.2981,-2.2553,-2.1744,-2.0974,-2.0261,-1.9384,-1.8833,-1.8565,-1.8336,-1.7959,-1.7612,-1.7446,-1.7087,-1.6541,-1.6534,-1.6534,-1.6534,-1.6534,-1.6308,-1.5881,-1.5467,-1.459,-1.3302,-1.3151,-1.2407,-1.1085,-1.0928,-1.0722,-1.0322,-1.0322,-1.0322,-1.0322,-1.0322,-1.0322,-1.0322,-1.0322,-1.0322,-1.0332,-1.0381,-1.0469,-1.0616,-1.0869,-1.1019,-1.0889,-1.1183,-1.1301,-1.1058,-1.0083,-1.0339,-1.2493,-1.2832,-1.2282,-1.1086,-1.066,-1.0677,-1.091,-1.0971,-1.0945,-1.104,-1.0761,-1.0506,-1.0198,-0.9681,-0.9309,-0.9263,-0.9008,-0.8804,-0.8804,-0.8804,-0.8804,-0.8804,-0.8804,-0.8804,-0.8804,-0.8804,-0.8804,-0.8804,-0.8804,-0.8804,-0.8804,-0.8804,-0.8985,-0.9419,-0.9747,-1.0043,-1.0299,-1.0388,-1.0423,-1.0367,-1.0334,-1.0167,-0.9866,-0.9633,-0.9419,-0.8945,-0.8831,-0.8978,-2.6708,-2.6708,-2.6708,-2.6556,-2.6349,-2.6033,-2.5631,-2.5098,-2.4632,-2.4256,-2.3952,-2.3696,-2.3595,-2.3595,-2.3595,-2.3595,-2.3595,-2.3551,-2.3139,-2.2553,-2.2526,-2.2081,-2.1223,-2.0309,-1.9863,-1.9687,-1.878,-1.8295,-1.8089,-1.7632,-1.7099,-1.6584,-1.6534,-1.6547,-1.6547,-1.6534,-1.6441,-1.6446,-1.6384,-1.5691,-1.4317,-1.3835,-1.3111,-1.2077,-1.1869,-1.1313,-1.043,-1.0322,-1.0332,-1.0322,-1.0332,-1.0322,-1.0322,-1.0322,-1.0332,-1.0361,-1.0645,-1.1016,-1.143,-1.1518,-1.167,-1.2015,-1.2037,-1.2221,-1.257,-1.2512,-1.2512,-1.2881,-1.2891,-1.2503,-1.1677,-1.1049,-1.0711,-1.0733,-1.068,-1.0694,-1.0981,-1.0769,-1.0616,-1.0972,-1.0087,-0.9562,-0.9465,-0.9113,-0.8811,-0.8804,-0.8804,-0.8804,-0.8804,-0.8804,-0.8804,-0.8804,-0.8804,-0.8804,-0.8804,-0.8804,-0.8804,-0.8804,-0.8804,-0.8971,-0.9267,-0.9656,-0.9994,-0.994,-1.0013,-1.0074,-0.9907,-0.9766,-0.9733,-0.9653,-0.9492,-0.9319,-0.8931,-0.8804,-0.8978,-2.6708,-2.6708,-2.6708,-2.6674,-2.6539,-2.6436,-2.6139,-2.5668,-2.5449,-2.4989,-2.4405,-2.4158,-2.3921,-2.3595,-2.3595,-2.3595,-2.3595,-2.3595,-2.3417,-2.3063,-2.2716,-2.2381,-2.2112,-2.1282,-2.0711,-2.0489,-1.9964,-1.9366,-1.8717,-1.8151,-1.7739,-1.7501,-1.72,-1.7024,-1.7011,-1.6685,-1.6534,-1.6534,-1.6534,-1.6211,-1.5662,-1.4974,-1.4105,-1.3006,-1.2615,-1.2088,-1.1439,-1.117,-1.0959,-1.0684,-1.0645,-1.0537,-1.0303,-1.0518,-1.0771,-1.1057,-1.1234,-1.142,-1.1596,-1.1807,-1.2041,-1.218,-1.2471,-1.2705,-1.2852,-1.2891,-1.2891,-1.2891,-1.2891,-1.2638,-1.2119,-1.1759,-1.1492,-1.1305,-1.143,-1.1442,-1.1091,-1.0964,-1.0863,-1.0506,-0.9984,-0.9621,-0.9577,-0.9292,-0.8983,-0.8864,-0.8804,-0.8804,-0.8804,-0.8804,-0.8804,-0.8804,-0.8804,-0.8804,-0.8804,-0.8804,-0.8804,-0.8804,-0.8804,-0.8858,-0.9161,-0.9196,-0.9372,-0.9633,-0.9833,-0.988,-0.974,-0.9686,-0.9646,-0.9566,-0.9532,-0.9419,-0.8911,-0.8804,-0.8898,-2.6708,-2.6708,-2.6708,-2.6708,-2.6708,-2.6708,-2.6436,-2.6085,-2.5997,-2.5561,-2.491,-2.4552,-2.4199,-2.3837,-2.3681,-2.3595,-2.3595,-2.3595,-2.3595,-2.355,-2.2988,-2.2818,-2.2848,-2.2119,-2.1595,-2.1326,-2.1083,-2.0409,-1.9309,-1.8707,-1.8355,-1.8166,-1.779,-1.7539,-1.735,-1.6936,-1.6672,-1.6534,-1.6534,-1.6534,-1.6416,-1.5952,-1.5054,-1.3917,-1.3401,-1.2882,-1.2244,-1.1814,-1.1416,-1.1103,-1.1084,-1.084,-1.0381,-1.0781,-1.1279,-1.1689,-1.1738,-1.1851,-1.1959,-1.2227,-1.2402,-1.2432,-1.2715,-1.2891,-1.2891,-1.2891,-1.2891,-1.2891,-1.2891,-1.2774,-1.2529,-1.2471,-1.2274,-1.1918,-1.2175,-1.2026,-1.1368,-1.1217,-1.0956,-1.0403,-1.0043,-0.9681,-0.9591,-0.9449,-0.9239,-0.9015,-0.891,-0.8857,-0.8804,-0.8804,-0.8804,-0.8804,-0.8804,-0.8804,-0.8804,-0.8804,-0.8804,-0.8804,-0.8811,-0.889,-0.915,-0.9072,-0.9105,-0.9737,-0.9786,-0.9813,-0.974,-0.9706,-0.9786,-0.9766,-0.9693,-0.9532,-0.9205,-0.8985,-0.8918,-2.6708,-2.6708,-2.6708,-2.6708,-2.6708,-2.6708,-2.6556,-2.6279,-2.6085,-2.5815,-2.5373,-2.4776,-2.4389,-2.4307,-2.3879,-2.3595,-2.3595,-2.3595,-2.3595,-2.3595,-2.358,-2.358,-2.3522,-2.2949,-2.2658,-2.2569,-2.2016,-2.1117,-1.9948,-1.9302,-1.8719,-1.8267,-1.8204,-1.7915,-1.7526,-1.74,-1.7074,-1.6635,-1.6584,-1.6534,-1.6522,-1.6441,-1.5916,-1.4989,-1.4336,-1.3531,-1.2605,-1.192,-1.1606,-1.1577,-1.1577,-1.1204,-1.0518,-1.1136,-1.1768,-1.2139,-1.2197,-1.2373,-1.2705,-1.2793,-1.2812,-1.2832,-1.2852,-1.2891,-1.2891,-1.2891,-1.2891,-1.2891,-1.2891,-1.2891,-1.2832,-1.2735,-1.2578,-1.2224,-1.2283,-1.2076,-1.1719,-1.1377,-1.1167,-1.1065,-1.0454,-0.9947,-0.9673,-0.9562,-0.9465,-0.9263,-0.9218,-0.9113,-0.891,-0.8804,-0.8804,-0.8804,-0.8804,-0.8804,-0.8804,-0.8804,-0.8804,-0.8811,-0.8858,-0.889,-0.9253,-0.9524,-0.9686,-0.9811,-1.0073,-1.0053,-0.9846,-0.9833,-0.9967,-0.9927,-0.9686,-0.9492,-0.9252,-0.9045,-0.9118,-2.6858,-2.6691,-2.6708,-2.6708,-2.6708,-2.6708,-2.6657,-2.6556,-2.647,-2.6262,-2.5961,-2.5577,-2.5105,-2.4536,-2.4282,-2.3921,-2.3595,-2.3595,-2.3595,-2.3655,-2.4044,-2.4253,-2.4268,-2.4403,-2.4327,-2.3924,-2.327,-2.2125,-2.0594,-2.0025,-1.9585,-1.9208,-1.8882,-1.8618,-1.8405,-1.8078,-1.7626,-1.7124,-1.7074,-1.6898,-1.6559,-1.6534,-1.6336,-1.5936,-1.5019,-1.4227,-1.3647,-1.2858,-1.2322,-1.2002,-1.1992,-1.1728,-1.1312,-1.1969,-1.2518,-1.2617,-1.2646,-1.2715,-1.2861,-1.2891,-1.2891,-1.2891,-1.2891,-1.2891,-1.2891,-1.2891,-1.2891,-1.2891,-1.2891,-1.2891,-1.2832,-1.2686,-1.2372,-1.2026,-1.2126,-1.2175,-1.1828,-1.1778,-1.1728,-1.1318,-1.0718,-1.0205,-0.9947,-0.9836,-0.9777,-0.9517,-0.9458,-0.9309,-0.9113,-0.9061,-0.9022,-0.8864,-0.8804,-0.8804,-0.8804,-0.8804,-0.8811,-0.8871,-0.8938,-0.9084,-0.9352,-0.9674,-0.9877,-0.984,-1.01,-1.012,-0.986,-0.9947,-1.008,-0.9947,-0.9713,-0.9626,-0.9192,-0.9205,-0.9573,-2.7011,-2.703,-2.6793,-2.6843,-2.7029,-2.6793,-2.6708,-2.6708,-2.6708,-2.659,-2.6418,-2.612,-2.5631,-2.5005,-2.4592,-2.4296,-2.4023,-2.3758,-2.3699,-2.3954,-2.4373,-2.4701,-2.4986,-2.5362,-2.5394,-2.4882,-2.4084,-2.2791,-2.1229,-2.061,-2.0207,-1.9761,-1.9434,-1.9183,-1.8995,-1.8656,-1.8191,-1.7739,-1.7476,-1.7174,-1.681,-1.6597,-1.6534,-1.6392,-1.5511,-1.4789,-1.4444,-1.361,-1.2926,-1.2537,-1.2441,-1.2295,-1.2135,-1.2596,-1.2891,-1.2891,-1.2881,-1.2891,-1.2891,-1.2891,-1.2891,-1.2891,-1.2891,-1.2891,-1.2891,-1.2891,-1.2891,-1.2891,-1.2891,-1.2891,-1.2832,-1.2676,-1.2382,-1.2175,-1.2323,-1.2372,-1.2135,-1.2234,-1.1977,-1.1377,-1.0828,-1.0419,-1.0213,-1.0154,-1.0095,-0.9932,-0.9836,-0.9621,-0.9316,-0.9309,-0.9252,-0.9012,-0.9072,-0.9005,-0.8985,-0.9005,-0.9147,-0.9269,-0.9179,-0.9322,-0.9518,-0.9839,-0.9994,-1.0006,-0.9947,-0.9953,-1.0,-1.0087,-1.0114,-0.9967,-1.004,-1.006,-0.9746,-0.9512,-0.9853,-2.7097,-2.7571,-2.6996,-2.7063,-2.7486,-2.6962,-2.6708,-2.6708,-2.6708,-2.6691,-2.659,-2.6227,-2.5905,-2.5551,-2.4926,-2.4724,-2.4811,-2.4189,-2.4118,-2.4567,-2.4701,-2.5106,-2.5615,-2.5774,-2.5744,-2.5571,-2.4373,-2.311,-2.1842,-2.1265,-2.0628,-2.0041,-1.9874,-1.9623,-1.9108,-1.907,-1.8769,-1.8254,-1.779,-1.7463,-1.7325,-1.6923,-1.666,-1.6498,-1.5981,-1.5367,-1.4755,-1.4097,-1.3447,-1.2939,-1.2842,-1.2871,-1.2783,-1.2861,-1.2891,-1.2891,-1.2891,-1.2891,-1.2891,-1.2891,-1.2891,-1.2891,-1.2891,-1.2891,-1.2891,-1.2891,-1.2891,-1.2891,-1.2891,-1.2891,-1.2891,-1.2881,-1.2822,-1.2881,-1.2832,-1.2783,-1.2735,-1.2529,-1.2076,-1.1477,-1.0922,-1.0573,-1.0522,-1.0419,-1.0419,-1.036,-1.0154,-0.9844,-0.9501,-0.9535,-0.9522,-0.9369,-0.9345,-0.9345,-0.9285,-0.925,-0.9531,-0.9701,-0.9572,-0.9529,-0.9754,-1.004,-1.0249,-1.0287,-1.0287,-1.0287,-1.0281,-1.0416,-1.045,-1.0416,-1.051,-1.049,-1.0221,-1.0,-1.002,-2.6994,-2.7029,-2.6793,-2.681,-2.7012,-2.6793,-2.6708,-2.6708,-2.6708,-2.6708,-2.6657,-2.6539,-2.6262,-2.5963,-2.5678,-2.5519,-2.5287,-2.5032,-2.5106,-2.536,-2.5749,-2.6048,-2.6333,-2.6747,-2.6718,-2.6243,-2.5633,-2.4582,-2.335,-2.26,-2.1983,-2.1335,-2.0658,-2.0378,-2.01,-1.9773,-1.9296,-1.8819,-1.8606,-1.8355,-1.799,-1.7765,-1.7501,-1.7149,-1.6921,-1.6377,-1.5355,-1.4318,-1.3589,-1.3132,-1.2968,-1.2891,-1.2891,-1.2891,-1.2891,-1.2891,-1.2891,-1.2891,-1.2891,-1.2891,-1.2891,-1.2891,-1.2891,-1.2891,-1.2891,-1.2891,-1.2891,-1.2891,-1.2891,-1.2891,-1.2891,-1.2891,-1.2891,-1.2891,-1.2891,-1.2891,-1.2891,-1.2783,-1.248,-1.1918,-1.1392,-1.0931,-1.0608,-1.0522,-1.0522,-1.0522,-1.036,-1.0205,-0.9993,-0.9921,-0.9933,-0.9756,-0.9756,-0.9805,-0.9733,-0.9753,-0.9939,-1.0011,-0.9932,-0.9838,-1.0058,-1.0199,-1.0408,-1.0485,-1.0555,-1.0618,-1.0618,-1.0618,-1.0618,-1.0618,-1.0584,-1.0571,-1.0584,-1.0524,-1.0374,-2.7964,-2.7926,-2.7655,-2.7723,-2.7909,-2.7672,-2.7368,-2.7148,-2.7114,-2.6962,-2.6776,-2.6996,-2.6942,-2.6634,-2.6471,-2.6411,-2.6302,-2.5986,-2.601,-2.6258,-2.6422,-2.6707,-2.6946,-2.74,-2.7265,-2.6681,-2.6348,-2.5443,-2.4055,-2.3458,-2.2804,-2.1998,-2.1104,-2.0693,-2.0668,-2.01,-1.961,-1.9334,-1.912,-1.8808,-1.8543,-1.8317,-1.7953,-1.7463,-1.7375,-1.6839,-1.5804,-1.4789,-1.4014,-1.3494,-1.3104,-1.2939,-1.2891,-1.2891,-1.2891,-1.2891,-1.2891,-1.2891,-1.2891,-1.2891,-1.2891,-1.29,-1.3018,-1.3027,-1.2939,-1.2891,-1.2891,-1.2891,-1.2891,-1.2891,-1.2891,-1.2891,-1.2891,-1.2891,-1.2891,-1.2891,-1.2891,-1.2891,-1.2783,-1.2363,-1.1913,-1.1308,-1.0694,-1.0648,-1.0648,-1.0581,-1.0522,-1.047,-1.0298,-1.0286,-1.0225,-1.0179,-1.0127,-1.0167,-1.0235,-1.0254,-1.0341,-1.0361,-1.0315,-1.0296,-1.0329,-1.0401,-1.0555,-1.0555,-1.0618,-1.0618,-1.0618,-1.0618,-1.0618,-1.0618,-1.0618,-1.0611,-1.0604,-1.0611,-1.0551,-2.9638,-2.9939,-2.9262,-2.9228,-2.9685,-2.9127,-2.8467,-2.796,-2.7892,-2.7537,-2.7182,-2.7638,-2.7786,-2.757,-2.7306,-2.7388,-2.7687,-2.6902,-2.6743,-2.712,-2.7036,-2.6991,-2.7475,-2.758,-2.728,-2.6834,-2.6708,-2.5821,-2.4467,-2.402,-2.3149,-2.2221,-2.131,-2.0743,-2.0577,-2.0087,-1.9786,-1.9673,-1.9321,-1.9046,-1.9045,-1.8631,-1.8116,-1.7614,-1.7576,-1.7202,-1.6374,-1.5531,-1.4695,-1.3836,-1.32,-1.2891,-1.2891,-1.2891,-1.2891,-1.2959,-1.293,-1.2998,-1.2969,-1.3008,-1.2978,-1.3008,-1.3252,-1.333,-1.2969,-1.2891,-1.2891,-1.2891,-1.2891,-1.2891,-1.2891,-1.2891,-1.2891,-1.2891,-1.2891,-1.2891,-1.2891,-1.2891,-1.2832,-1.2764,-1.2395,-1.1809,-1.0905,-1.1073,-1.0869,-1.0691,-1.0616,-1.0565,-1.0486,-1.0486,-1.0526,-1.0479,-1.0474,-1.0397,-1.0381,-1.0394,-1.0461,-1.051,-1.0477,-1.0461,-1.0451,-1.0541,-1.0618,-1.0618,-1.0618,-1.0618,-1.0618,-1.0618,-1.0618,-1.0618,-1.0618,-1.0618,-1.0618,-1.0618,-1.0618,-2.954,-2.9282,-2.9076,-2.9093,-2.9245,-2.9042,-2.8926,-2.8687,-2.867,-2.8535,-2.8433,-2.8586,-2.8634,-2.8612,-2.8555,-2.8493,-2.8176,-2.7906,-2.7664,-2.757,-2.7475,-2.7445,-2.7545,-2.756,-2.752,-2.7325,-2.7255,-2.6762,-2.5759,-2.5045,-2.4163,-2.2959,-2.1835,-2.1054,-2.0706,-2.0125,-1.9823,-1.9798,-1.9698,-1.9585,-1.9547,-1.9447,-1.9133,-1.8656,-1.8555,-1.8232,-1.7533,-1.6349,-1.4915,-1.3467,-1.3094,-1.2891,-1.291,-1.293,-1.3057,-1.3262,-1.334,-1.3477,-1.3643,-1.3506,-1.3359,-1.334,-1.3496,-1.332,-1.293,-1.2891,-1.2891,-1.2891,-1.2891,-1.2939,-1.2939,-1.2891,-1.2891,-1.2891,-1.2891,-1.2891,-1.2891,-1.2891,-1.2891,-1.2871,-1.2492,-1.2258,-1.2107,-1.1586,-1.1192,-1.0879,-1.082,-1.082,-1.0753,-1.0694,-1.0691,-1.0712,-1.0668,-1.0609,-1.0604,-1.0604,-1.0541,-1.0534,-1.0584,-1.0577,-1.0541,-1.0548,-1.0618,-1.0618,-1.0618,-1.0618,-1.0618,-1.0618,-1.0618,-1.0618,-1.0618,-1.0618,-1.0618,-1.0618,-1.0618,-3.0419,-2.9905,-2.9905,-2.9905,-2.9905,-2.9922,-2.9753,-2.9499,-2.9448,-2.9245,-2.911,-2.9347,-2.9448,-2.9445,-2.9281,-2.9081,-2.8738,-2.831,-2.7865,-2.766,-2.7545,-2.756,-2.756,-2.756,-2.756,-2.756,-2.756,-2.7093,-2.6313,-2.57,-2.4747,-2.3594,-2.2451,-2.1556,-2.1083,-2.0464,-2.0012,-1.9849,-1.9798,-1.9798,-1.9798,-1.9798,-1.951,-1.9133,-1.897,-1.872,-1.7918,-1.6884,-1.5564,-1.4146,-1.332,-1.2949,-1.3145,-1.333,-1.3437,-1.3545,-1.3662,-1.3776,-1.3776,-1.3779,-1.3701,-1.3643,-1.3779,-1.3809,-1.3555,-1.3478,-1.358,-1.3193,-1.3204,-1.3144,-1.2949,-1.2891,-1.2891,-1.2891,-1.2891,-1.2891,-1.2891,-1.2891,-1.2891,-1.2822,-1.2696,-1.2618,-1.2881,-1.2076,-1.1528,-1.1175,-1.1023,-1.1015,-1.1031,-1.0941,-1.0831,-1.0834,-1.0759,-1.0636,-1.0584,-1.0618,-1.0618,-1.0618,-1.0618,-1.0618,-1.0618,-1.0618,-1.0618,-1.0618,-1.0618,-1.0618,-1.0618,-1.0618,-1.0618,-1.0618,-1.0618,-1.0618,-1.0618,-1.0618,-1.0618,-3.1711,-3.119,-3.119,-3.119,-3.1123,-3.1157,-3.0734,-3.0294,-3.0209,-2.9888,-2.955,-2.9956,-3.0209,-3.0188,-2.9888,-2.9508,-2.9326,-2.8432,-2.7839,-2.7625,-2.756,-2.756,-2.756,-2.756,-2.756,-2.756,-2.756,-2.7086,-2.6361,-2.5659,-2.4896,-2.3809,-2.2719,-2.1952,-2.1204,-2.074,-2.03,-1.9886,-1.9798,-1.9798,-1.9798,-1.9786,-1.9597,-1.9296,-1.9158,-1.8759,-1.8044,-1.7264,-1.6425,-1.5137,-1.3818,-1.3472,-1.3696,-1.3998,-1.3984,-1.3838,-1.4033,-1.4038,-1.3867,-1.4131,-1.4019,-1.3916,-1.4394,-1.458,-1.4189,-1.4267,-1.4301,-1.3613,-1.3701,-1.3561,-1.3254,-1.3066,-1.3125,-1.3164,-1.3096,-1.3037,-1.2988,-1.2939,-1.2891,-1.2891,-1.2881,-1.2881,-1.2744,-1.237,-1.1781,-1.1276,-1.1175,-1.1175,-1.1114,-1.1032,-1.0908,-1.0895,-1.0798,-1.0643,-1.0622,-1.0618,-1.0618,-1.0618,-1.0618,-1.0618,-1.0618,-1.0618,-1.0618,-1.0618,-1.0618,-1.0618,-1.0618,-1.0618,-1.0618,-1.0618,-1.0618,-1.0618,-1.0618,-1.0618,-1.0618,-3.1711,-3.119,-3.119,-3.119,-3.119,-3.119,-3.1106,-3.0937,-3.0954,-3.0784,-3.0751,-3.0886,-3.092,-3.0937,-3.0639,-3.0303,-2.9419,-2.8898,-2.8529,-2.7615,-2.756,-2.756,-2.756,-2.756,-2.756,-2.756,-2.756,-2.7137,-2.6322,-2.5645,-2.4734,-2.3489,-2.2559,-2.1418,-2.097,-2.0489,-1.9962,-1.9811,-1.9798,-1.9798,-1.9798,-1.9798,-1.9736,-1.9585,-1.9597,-1.9296,-1.8697,-1.7975,-1.7345,-1.6575,-1.5412,-1.4501,-1.432,-1.4228,-1.4268,-1.4434,-1.4551,-1.4727,-1.4883,-1.4707,-1.4609,-1.4502,-1.4619,-1.46,-1.4248,-1.4831,-1.4763,-1.4209,-1.4205,-1.4208,-1.3831,-1.3838,-1.3789,-1.375,-1.3769,-1.3789,-1.374,-1.3271,-1.2969,-1.293,-1.292,-1.2891,-1.2891,-1.2419,-1.1913,-1.1436,-1.1276,-1.1276,-1.1206,-1.107,-1.1012,-1.0899,-1.0761,-1.067,-1.0642,-1.0618,-1.0618,-1.0618,-1.0618,-1.0618,-1.0618,-1.0618,-1.0618,-1.0618,-1.0618,-1.0618,-1.0618,-1.0618,-1.0618,-1.0618,-1.0618,-1.0618,-1.0618,-1.0618,-1.0618,-3.1657,-3.119,-3.119,-3.119,-3.119,-3.119,-3.119,-3.119,-3.119,-3.119,-3.119,-3.119,-3.119,-3.11,-3.0576,-2.9905,-2.9403,-2.8764,-2.8207,-2.766,-2.756,-2.756,-2.756,-2.756,-2.756,-2.756,-2.756,-2.7086,-2.639,-2.5755,-2.4969,-2.3782,-2.2834,-2.2078,-2.1209,-2.069,-2.0326,-1.9886,-1.9798,-1.9798,-1.9798,-1.9798,-1.9798,-1.9798,-1.9798,-1.9635,-1.9308,-1.8618,-1.8148,-1.7645,-1.6708,-1.5612,-1.5002,-1.4775,-1.4766,-1.4766,-1.501,-1.5019,-1.5078,-1.5098,-1.498,-1.4805,-1.4951,-1.4941,-1.4844,-1.5195,-1.5068,-1.4678,-1.47,-1.4769,-1.4209,-1.4077,-1.4087,-1.4087,-1.4097,-1.4009,-1.3828,-1.3428,-1.3213,-1.3242,-1.3242,-1.3076,-1.285,-1.2607,-1.2,-1.1488,-1.1276,-1.1285,-1.1226,-1.1109,-1.1036,-1.0887,-1.0759,-1.0691,-1.0607,-1.0618,-1.0618,-1.0618,-1.0618,-1.0618,-1.0618,-1.0618,-1.0618,-1.0618,-1.0618,-1.0618,-1.0618,-1.0618,-1.0618,-1.0618,-1.0618,-1.0618,-1.0618,-1.0618,-1.0618,-3.1637,-3.119,-3.119,-3.119,-3.119,-3.119,-3.119,-3.119,-3.119,-3.119,-3.119,-3.119,-3.119,-3.0977,-3.0125,-2.958,-2.9053,-2.8255,-2.766,-2.761,-2.756,-2.756,-2.756,-2.756,-2.756,-2.756,-2.756,-2.7137,-2.6491,-2.5903,-2.512,-2.4239,-2.3508,-2.2515,-2.1687,-2.1317,-2.074,-1.9911,-1.9798,-1.9798,-1.9798,-1.9798,-1.9798,-1.9798,-1.9798,-1.9734,-1.9465,-1.8967,-1.8471,-1.8387,-1.7711,-1.6639,-1.569,-1.5308,-1.5283,-1.4912,-1.5205,-1.5234,-1.5127,-1.5195,-1.5234,-1.4902,-1.5166,-1.5371,-1.5381,-1.5342,-1.5225,-1.5146,-1.5068,-1.5068,-1.4379,-1.4389,-1.4414,-1.434,-1.4311,-1.416,-1.3887,-1.374,-1.373,-1.3623,-1.3525,-1.3369,-1.3285,-1.3072,-1.228,-1.1591,-1.1429,-1.1277,-1.1277,-1.1153,-1.1028,-1.0892,-1.0767,-1.0671,-1.0577,-1.0618,-1.0618,-1.0618,-1.0618,-1.0618,-1.0618,-1.0618,-1.0618,-1.0618,-1.0618,-1.0618,-1.0618,-1.0618,-1.0618,-1.0618,-1.0618,-1.0618,-1.0618,-1.0618,-1.0618,-3.1466,-3.119,-3.119,-3.119,-3.119,-3.119,-3.119,-3.119,-3.119,-3.119,-3.119,-3.119,-3.119,-3.1044,-3.073,-2.9913,-2.8825,-2.7947,-2.756,-2.756,-2.756,-2.756,-2.756,-2.756,-2.756,-2.756,-2.756,-2.7268,-2.6674,-2.5926,-2.5273,-2.446,-2.3322,-2.2274,-2.1625,-2.1054,-2.0602,-1.9924,-1.9798,-1.9798,-1.9798,-1.9798,-1.9798,-1.9798,-1.9798,-1.9643,-1.9331,-1.8869,-1.8278,-1.7667,-1.7434,-1.6754,-1.5924,-1.5535,-1.5352,-1.5312,-1.5342,-1.5342,-1.5293,-1.5332,-1.5381,-1.5332,-1.5371,-1.54,-1.542,-1.542,-1.5352,-1.5342,-1.5322,-1.5322,-1.5244,-1.5068,-1.5156,-1.5166,-1.5098,-1.5049,-1.4893,-1.458,-1.417,-1.383,-1.3747,-1.3723,-1.3733,-1.3355,-1.2413,-1.1731,-1.1456,-1.1361,-1.1339,-1.1207,-1.0986,-1.0886,-1.0807,-1.0698,-1.0618,-1.0618,-1.0618,-1.0618,-1.0618,-1.0618,-1.0618,-1.0618,-1.0618,-1.0618,-1.0618,-1.0618,-1.0618,-1.0618,-1.0618,-1.0618,-1.0618,-1.0618,-1.0618,-1.0618,-1.0618,-3.1445,-3.119,-3.119,-3.119,-3.119,-3.119,-3.119,-3.119,-3.119,-3.119,-3.119,-3.119,-3.119,-3.0954,-3.0103,-2.9113,-2.8124,-2.7803,-2.7595,-2.756,-2.756,-2.756,-2.756,-2.756,-2.756,-2.756,-2.756,-2.7339,-2.6864,-2.6261,-2.5439,-2.4627,-2.3631,-2.2668,-2.1687,-2.1255,-2.0589,-2.0037,-1.9798,-1.9798,-1.9798,-1.9798,-1.9798,-1.9798,-1.9798,-1.9695,-1.9436,-1.8869,-1.8387,-1.7776,-1.7123,-1.6524,-1.6056,-1.5642,-1.542,-1.542,-1.542,-1.542,-1.542,-1.542,-1.541,-1.541,-1.542,-1.542,-1.542,-1.542,-1.542,-1.542,-1.542,-1.542,-1.5381,-1.542,-1.542,-1.542,-1.541,-1.5312,-1.5107,-1.4844,-1.446,-1.4016,-1.3761,-1.3885,-1.4279,-1.3679,-1.258,-1.1954,-1.154,-1.1458,-1.1411,-1.1161,-1.0886,-1.0823,-1.0753,-1.0669,-1.0618,-1.0618,-1.0618,-1.0618,-1.0618,-1.0618,-1.0618,-1.0618,-1.0618,-1.0618,-1.0618,-1.0618,-1.0618,-1.0618,-1.0618,-1.0618,-1.0618,-1.0618,-1.0618,-1.0618,-1.0618,-3.1406,-3.119,-3.119,-3.119,-3.119,-3.119,-3.119,-3.119,-3.119,-3.119,-3.119,-3.119,-3.1151,-3.0744,-2.9632,-2.8345,-2.7326,-2.7545,-2.7595,-2.756,-2.756,-2.756,-2.756,-2.756,-2.756,-2.756,-2.756,-2.7369,-2.685,-2.6265,-2.555,-2.4711,-2.4221,-2.3154,-2.1794,-2.143,-2.0765,-2.015,-1.9798,-1.9798,-1.9798,-1.9798,-1.9798,-1.9798,-1.9798,-1.9708,-1.9396,-1.8934,-1.8278,-1.7611,-1.6899,-1.6228,-1.6009,-1.5594,-1.542,-1.542,-1.542,-1.542,-1.542,-1.542,-1.542,-1.542,-1.542,-1.542,-1.542,-1.542,-1.542,-1.542,-1.542,-1.542,-1.542,-1.542,-1.542,-1.542,-1.5391,-1.5312,-1.5117,-1.4971,-1.4877,-1.443,-1.3912,-1.382,-1.4087,-1.3754,-1.2664,-1.2036,-1.163,-1.1524,-1.1456,-1.1058,-1.0828,-1.0735,-1.0643,-1.0627,-1.0618,-1.0618,-1.0618,-1.0618,-1.0618,-1.0618,-1.0618,-1.0618,-1.0618,-1.0618,-1.0618,-1.0618,-1.0618,-1.0618,-1.0618,-1.0618,-1.0618,-1.0618,-1.0618,-1.0618,-1.0618,-3.123,-3.119,-3.119,-3.119,-3.119,-3.119,-3.119,-3.119,-3.119,-3.119,-3.119,-3.11,-3.0965,-3.0394,-2.9432,-2.8529,-2.7966,-2.765,-2.756,-2.756,-2.756,-2.756,-2.756,-2.756,-2.756,-2.756,-2.756,-2.7307,-2.6756,-2.5934,-2.5287,-2.461,-2.3735,-2.2669,-2.1763,-2.1619,-2.0903,-2.0037,-1.9849,-1.9823,-1.9798,-1.9798,-1.9798,-1.9798,-1.9747,-1.9552,-1.9028,-1.8667,-1.817,-1.7134,-1.6627,-1.6239,-1.5951,-1.5594,-1.5478,-1.542,-1.542,-1.542,-1.542,-1.542,-1.542,-1.542,-1.542,-1.542,-1.542,-1.542,-1.542,-1.542,-1.542,-1.542,-1.542,-1.542,-1.542,-1.542,-1.541,-1.54,-1.5283,-1.5166,-1.5071,-1.4685,-1.4108,-1.3711,-1.3614,-1.3253,-1.2762,-1.2233,-1.1752,-1.1613,-1.1395,-1.0975,-1.0735,-1.0698,-1.0622,-1.0591,-1.0618,-1.0618,-1.0618,-1.0618,-1.0618,-1.0618,-1.0618,-1.0618,-1.0618,-1.0618,-1.0618,-1.0618,-1.0618,-1.0618,-1.0618,-1.0618,-1.0618,-1.0618,-1.0618,-1.0624,-1.0638,-3.119,-3.119,-3.119,-3.119,-3.119,-3.119,-3.119,-3.119,-3.119,-3.119,-3.105,-3.051,-2.9847,-2.9189,-2.8653,-2.8334,-2.7825,-2.7625,-2.756,-2.756,-2.756,-2.756,-2.756,-2.756,-2.756,-2.756,-2.7473,-2.7003,-2.6412,-2.5867,-2.5273,-2.4452,-2.3728,-2.2964,-2.1958,-2.1933,-2.1493,-2.0916,-2.0476,-2.0125,-1.9886,-1.9798,-1.9798,-1.9798,-1.9798,-1.9436,-1.9028,-1.8667,-1.817,-1.729,-1.6909,-1.6457,-1.5884,-1.5478,-1.542,-1.542,-1.542,-1.542,-1.542,-1.542,-1.542,-1.542,-1.542,-1.542,-1.542,-1.542,-1.542,-1.542,-1.542,-1.542,-1.542,-1.542,-1.542,-1.542,-1.542,-1.542,-1.542,-1.5352,-1.5196,-1.4756,-1.43,-1.3761,-1.3277,-1.2962,-1.2662,-1.2289,-1.1826,-1.1542,-1.1301,-1.0898,-1.0712,-1.0607,-1.0591,-1.0611,-1.0618,-1.0618,-1.0618,-1.0618,-1.0618,-1.0618,-1.0618,-1.0618,-1.0618,-1.0618,-1.0618,-1.0618,-1.0618,-1.0618,-1.0618,-1.0618,-1.0618,-1.0648,-1.0722,-1.0678,-1.0725,-3.0852,-3.119,-3.119,-3.119,-3.119,-3.119,-3.119,-3.119,-3.119,-3.1089,-3.0684,-2.9882,-2.889,-2.8257,-2.8294,-2.8122,-2.761,-2.756,-2.756,-2.756,-2.756,-2.756,-2.756,-2.756,-2.756,-2.7575,-2.7395,-2.677,-2.603,-2.5439,-2.4937,-2.4105,-2.3443,-2.2908,-2.248,-2.2221,-2.1907,-2.138,-2.092,-2.0504,-2.0125,-1.9874,-1.9823,-1.9798,-1.9747,-1.9527,-1.9081,-1.8643,-1.805,-1.7346,-1.7256,-1.6751,-1.5931,-1.5526,-1.542,-1.542,-1.542,-1.542,-1.542,-1.542,-1.542,-1.542,-1.542,-1.542,-1.542,-1.542,-1.542,-1.542,-1.542,-1.542,-1.542,-1.542,-1.542,-1.542,-1.542,-1.542,-1.542,-1.5362,-1.5294,-1.5001,-1.441,-1.3528,-1.3103,-1.2744,-1.2485,-1.2286,-1.1968,-1.1526,-1.1146,-1.0795,-1.0725,-1.0618,-1.0618,-1.0618,-1.0618,-1.0618,-1.0618,-1.0618,-1.0618,-1.0618,-1.0618,-1.0618,-1.0618,-1.0618,-1.0581,-1.0618,-1.0618,-1.0618,-1.0618,-1.0618,-1.0608,-1.0842,-1.0909,-1.0873,-1.0779,-2.9939,-3.119,-3.1173,-3.1157,-3.119,-3.119,-3.119,-3.1089,-3.1173,-3.0779,-3.0062,-2.928,-2.887,-2.8591,-2.813,-2.789,-2.756,-2.756,-2.756,-2.756,-2.756,-2.756,-2.756,-2.756,-2.756,-2.7473,-2.7195,-2.6415,-2.555,-2.4856,-2.4341,-2.3636,-2.3073,-2.2556,-2.2397,-2.2435,-2.2146,-2.1656,-2.1222,-2.0869,-2.0517,-2.015,-1.9861,-1.9811,-1.9747,-1.9436,-1.8721,-1.8375,-1.7776,-1.6965,-1.7043,-1.6931,-1.6171,-1.5642,-1.541,-1.542,-1.542,-1.542,-1.542,-1.542,-1.542,-1.542,-1.5449,-1.5478,-1.542,-1.542,-1.542,-1.542,-1.542,-1.542,-1.542,-1.542,-1.542,-1.542,-1.542,-1.542,-1.542,-1.542,-1.5294,-1.5177,-1.4529,-1.364,-1.2989,-1.2683,-1.2498,-1.2316,-1.1745,-1.1301,-1.0967,-1.0634,-1.0647,-1.0618,-1.0618,-1.0618,-1.0618,-1.0618,-1.0618,-1.0618,-1.0618,-1.0618,-1.0618,-1.0618,-1.0624,-1.0641,-1.0675,-1.0615,-1.0624,-1.0638,-1.0638,-1.0624,-1.0655,-1.0875,-1.1169,-1.1249,-1.1022,-2.9296,-2.982,-2.9837,-3.0362,-3.119,-3.119,-3.0937,-3.0649,-3.0987,-3.0419,-2.9239,-2.9103,-2.8553,-2.792,-2.7838,-2.7725,-2.7625,-2.756,-2.756,-2.756,-2.756,-2.756,-2.756,-2.7515,-2.7449,-2.7151,-2.6722,-2.6036,-2.497,-2.4323,-2.3793,-2.3255,-2.2921,-2.2874,-2.2824,-2.2736,-2.246,-2.2096,-2.1732,-2.1499,-2.0731,-2.0542,-2.0162,-1.9811,-1.9798,-1.9267,-1.8471,-1.8201,-1.7446,-1.6853,-1.6684,-1.6467,-1.6239,-1.57,-1.5468,-1.542,-1.542,-1.542,-1.542,-1.542,-1.542,-1.5478,-1.5615,-1.5713,-1.5527,-1.5449,-1.542,-1.542,-1.5488,-1.5566,-1.5439,-1.543,-1.542,-1.542,-1.542,-1.542,-1.5439,-1.5459,-1.5302,-1.5112,-1.4423,-1.364,-1.3103,-1.2621,-1.2436,-1.2228,-1.1677,-1.1185,-1.0807,-1.0618,-1.0618,-1.0618,-1.0618,-1.0618,-1.0618,-1.0618,-1.0624,-1.0624,-1.0624,-1.0685,-1.0712,-1.0624,-1.0651,-1.0688,-1.0822,-1.0842,-1.0788,-1.0719,-1.0678,-1.0641,-1.0742,-1.0895,-1.1216,-1.1563,-1.1403,-2.8605,-2.8924,-2.8738,-2.9499,-3.0784,-3.0869,-3.0717,-3.0531,-3.0622,-2.9995,-2.8624,-2.8658,-2.8216,-2.7479,-2.747,-2.761,-2.7625,-2.756,-2.756,-2.7485,-2.738,-2.732,-2.729,-2.7175,-2.695,-2.6594,-2.6295,-2.5666,-2.4609,-2.3804,-2.3438,-2.3229,-2.3125,-2.31,-2.31,-2.31,-2.2924,-2.2636,-2.2284,-2.1907,-2.1016,-2.0702,-2.0351,-1.9899,-1.9798,-1.9331,-1.859,-1.8159,-1.7501,-1.6673,-1.6171,-1.6056,-1.5874,-1.57,-1.5478,-1.542,-1.542,-1.542,-1.542,-1.542,-1.5478,-1.5664,-1.585,-1.5908,-1.579,-1.578,-1.6013,-1.5759,-1.5829,-1.5879,-1.5811,-1.5791,-1.5703,-1.5713,-1.5459,-1.543,-1.5508,-1.5557,-1.5257,-1.499,-1.4425,-1.4037,-1.3099,-1.2547,-1.2173,-1.1971,-1.156,-1.1059,-1.0744,-1.0618,-1.0618,-1.0618,-1.0618,-1.0618,-1.0618,-1.0645,-1.0672,-1.0841,-1.0876,-1.0897,-1.0846,-1.0819,-1.0828,-1.1015,-1.1122,-1.1122,-1.1002,-1.0828,-1.0768,-1.0748,-1.1002,-1.1349,-1.1243,-1.1557,-1.1677,-2.7638,-2.8822,-2.8129,-2.8721,-3.0006,-3.0125,-3.0412,-3.0526,-3.0,-2.9156,-2.8174,-2.7522,-2.7456,-2.7598,-2.7405,-2.734,-2.741,-2.744,-2.7395,-2.72,-2.6961,-2.6722,-2.6673,-2.6599,-2.6356,-2.5805,-2.5536,-2.5122,-2.4292,-2.3747,-2.3339,-2.316,-2.3125,-2.3125,-2.3125,-2.3125,-2.3113,-2.3025,-2.2573,-2.2071,-2.1518,-2.1041,-2.0514,-2.0087,-1.9836,-1.9344,-1.8483,-1.8093,-1.7379,-1.6332,-1.5758,-1.5584,-1.5526,-1.5468,-1.542,-1.542,-1.542,-1.542,-1.542,-1.542,-1.5596,-1.5898,-1.6094,-1.6169,-1.6355,-1.6587,-1.684,-1.6553,-1.6689,-1.6763,-1.6641,-1.6318,-1.6133,-1.5986,-1.5752,-1.5693,-1.5811,-1.5689,-1.5425,-1.5005,-1.4942,-1.4642,-1.3421,-1.2488,-1.1989,-1.1641,-1.1331,-1.1003,-1.0701,-1.0575,-1.0645,-1.0655,-1.0668,-1.0722,-1.0735,-1.0732,-1.0776,-1.0946,-1.1083,-1.112,-1.1149,-1.1145,-1.1273,-1.1374,-1.1423,-1.1423,-1.1216,-1.0989,-1.1102,-1.1283,-1.167,-1.1897,-1.169,-1.1563,-1.173,-2.6979,-2.7435,-2.7165,-2.7655,-2.8602,-2.9161,-2.9262,-2.8868,-2.826,-2.7696,-2.7182,-2.6717,-2.6749,-2.6892,-2.6654,-2.6557,-2.6871,-2.6901,-2.6811,-2.6333,-2.6422,-2.6602,-2.6494,-2.6128,-2.5791,-2.5563,-2.523,-2.4583,-2.3837,-2.3454,-2.3271,-2.3138,-2.3125,-2.3125,-2.3125,-2.3125,-2.3125,-2.304,-2.2899,-2.2598,-2.2046,-2.1481,-2.0941,-2.0388,-2.0049,-1.9223,-1.8182,-1.7963,-1.709,-1.6036,-1.5468,-1.5478,-1.542,-1.542,-1.542,-1.542,-1.542,-1.542,-1.542,-1.5449,-1.5615,-1.5986,-1.6328,-1.6461,-1.6612,-1.7307,-1.7453,-1.7406,-1.7473,-1.7353,-1.6826,-1.665,-1.6504,-1.6504,-1.6377,-1.6377,-1.6364,-1.6008,-1.5696,-1.5186,-1.4894,-1.4469,-1.3573,-1.2717,-1.2152,-1.1661,-1.1424,-1.1015,-1.0725,-1.0635,-1.0635,-1.0768,-1.0842,-1.0909,-1.0949,-1.1042,-1.1163,-1.1318,-1.1334,-1.1286,-1.1364,-1.1533,-1.1598,-1.168,-1.1737,-1.1703,-1.157,-1.1503,-1.1677,-1.1911,-1.2084,-1.2191,-1.2037,-1.1891,-1.1897,-2.6708,-2.6708,-2.6708,-2.6962,-2.752,-2.8247,-2.8157,-2.7431,-2.6934,-2.6486,-2.6103,-2.6022,-2.6138,-2.6086,-2.5899,-2.5749,-2.6243,-2.6243,-2.6168,-2.5674,-2.6004,-2.6153,-2.6033,-2.5759,-2.5429,-2.5199,-2.4687,-2.4,-2.3457,-2.3236,-2.3138,-2.3138,-2.3125,-2.3125,-2.3125,-2.3125,-2.3125,-2.3125,-2.3012,-2.2811,-2.2334,-2.1895,-2.1506,-2.0899,-2.0167,-1.9198,-1.8299,-1.7534,-1.6866,-1.5931,-1.5526,-1.5536,-1.5478,-1.542,-1.542,-1.542,-1.542,-1.542,-1.542,-1.542,-1.5703,-1.6289,-1.6592,-1.6865,-1.7119,-1.7686,-1.7871,-1.7949,-1.8008,-1.7725,-1.7275,-1.7109,-1.6953,-1.6953,-1.6826,-1.6807,-1.666,-1.6341,-1.6225,-1.5638,-1.5149,-1.4522,-1.3759,-1.2991,-1.234,-1.1921,-1.1514,-1.1166,-1.0835,-1.0828,-1.0862,-1.0995,-1.1089,-1.1162,-1.1349,-1.1583,-1.1655,-1.1753,-1.1701,-1.155,-1.1735,-1.188,-1.1933,-1.1985,-1.1952,-1.2004,-1.2011,-1.2037,-1.2051,-1.2058,-1.2111,-1.2204,-1.2278,-1.2211,-1.2091,-2.6708,-2.6708,-2.6708,-2.6691,-2.6809,-2.7363,-2.7221,-2.6678,-2.6174,-2.5603,-2.5068,-2.5024,-2.5243,-2.5511,-2.551,-2.5495,-2.557,-2.5585,-2.5435,-2.551,-2.5615,-2.5612,-2.558,-2.5381,-2.5038,-2.4615,-2.4142,-2.3679,-2.3163,-2.3138,-2.3138,-2.3125,-2.3125,-2.3125,-2.3125,-2.3125,-2.3125,-2.3125,-2.31,-2.2887,-2.2535,-2.2284,-2.1818,-2.1163,-2.0317,-1.93,-1.8385,-1.7608,-1.6722,-1.6066,-1.5816,-1.5642,-1.5536,-1.542,-1.542,-1.542,-1.542,-1.542,-1.543,-1.543,-1.5898,-1.6484,-1.6738,-1.7227,-1.7656,-1.791,-1.7969,-1.8008,-1.8008,-1.8008,-1.7881,-1.7637,-1.7402,-1.7266,-1.708,-1.7041,-1.6938,-1.684,-1.6779,-1.6386,-1.5954,-1.5247,-1.4079,-1.3269,-1.2826,-1.245,-1.2137,-1.175,-1.1471,-1.1223,-1.1263,-1.1349,-1.1423,-1.1436,-1.165,-1.1924,-1.1948,-1.2019,-1.1943,-1.183,-1.2032,-1.2144,-1.2158,-1.2131,-1.2265,-1.2258,-1.2191,-1.2198,-1.2251,-1.2251,-1.2198,-1.2225,-1.2305,-1.2305,-1.2231,-2.6708,-2.6708,-2.6708,-2.6607,-2.633,-2.5826,-2.5486,-2.529,-2.4954,-2.4575,-2.4053,-2.401,-2.4402,-2.4852,-2.4418,-2.4552,-2.4762,-2.4837,-2.4537,-2.4672,-2.5133,-2.5136,-2.4989,-2.482,-2.4526,-2.4231,-2.378,-2.3444,-2.3163,-2.3125,-2.3125,-2.3125,-2.3125,-2.3125,-2.3125,-2.3125,-2.3125,-2.3125,-2.3125,-2.3,-2.2786,-2.2548,-2.1968,-2.1183,-2.0399,-1.9298,-1.8035,-1.7376,-1.6506,-1.574,-1.5594,-1.5478,-1.5478,-1.542,-1.542,-1.542,-1.542,-1.542,-1.5459,-1.5703,-1.6133,-1.6689,-1.6992,-1.7432,-1.7832,-1.8008,-1.8008,-1.8008,-1.8008,-1.8008,-1.8008,-1.7842,-1.7725,-1.7617,-1.749,-1.748,-1.7385,-1.7168,-1.7013,-1.6419,-1.5992,-1.5371,-1.4222,-1.3861,-1.3424,-1.3113,-1.2684,-1.2342,-1.1968,-1.1767,-1.163,-1.171,-1.173,-1.1737,-1.1924,-1.2178,-1.2164,-1.217,-1.2089,-1.2042,-1.2164,-1.2231,-1.2305,-1.2305,-1.2305,-1.2305,-1.2291,-1.2305,-1.2305,-1.2305,-1.2271,-1.2291,-1.2305,-1.2305,-1.2305,-2.6708,-2.6708,-2.6708,-2.6436,-2.5852,-2.4973,-2.4511,-2.442,-2.4199,-2.3879,-2.3595,-2.361,-2.3834,-2.4118,-2.3864,-2.3864,-2.4208,-2.4208,-2.4029,-2.4119,-2.465,-2.4747,-2.4592,-2.4362,-2.4368,-2.4035,-2.3606,-2.3163,-2.3125,-2.3125,-2.3125,-2.3125,-2.3125,-2.3125,-2.3125,-2.3125,-2.3125,-2.3125,-2.3125,-2.3125,-2.2975,-2.2739,-2.2138,-2.1284,-2.0488,-1.9,-1.7603,-1.7137,-1.6077,-1.5508,-1.542,-1.542,-1.542,-1.542,-1.542,-1.542,-1.542,-1.5547,-1.5703,-1.5898,-1.6377,-1.6855,-1.7236,-1.7559,-1.7822,-1.8008,-1.8008,-1.8008,-1.8008,-1.8008,-1.8008,-1.7998,-1.7998,-1.7978,-1.7978,-1.7978,-1.7696,-1.7413,-1.6853,-1.6201,-1.5641,-1.5114,-1.4601,-1.4339,-1.3988,-1.3598,-1.315,-1.2701,-1.2428,-1.2096,-1.2049,-1.2024,-1.2024,-1.2031,-1.2218,-1.2305,-1.2271,-1.2238,-1.2218,-1.2211,-1.2305,-1.2305,-1.2305,-1.2305,-1.2305,-1.2305,-1.2305,-1.2305,-1.2305,-1.2305,-1.2305,-1.2305,-1.2305,-1.2305,-1.2305,-2.6691,-2.6657,-2.659,-2.6104,-2.5389,-2.4672,-2.423,-2.3982,-2.3782,-2.3595,-2.3595,-2.3595,-2.364,-2.3729,-2.3625,-2.361,-2.3759,-2.3759,-2.3731,-2.3611,-2.4119,-2.433,-2.4193,-2.4242,-2.404,-2.3887,-2.356,-2.3125,-2.3125,-2.3125,-2.3125,-2.3125,-2.3125,-2.3125,-2.3125,-2.3125,-2.3125,-2.3125,-2.3125,-2.3125,-2.3125,-2.298,-2.2665,-2.1614,-2.0308,-1.8857,-1.7746,-1.6618,-1.5459,-1.5469,-1.542,-1.543,-1.542,-1.542,-1.542,-1.5478,-1.5508,-1.5703,-1.5967,-1.6282,-1.667,-1.709,-1.7422,-1.7666,-1.79,-1.8008,-1.8008,-1.8008,-1.8008,-1.8008,-1.8008,-1.8008,-1.8008,-1.8008,-1.8008,-1.8008,-1.7872,-1.7451,-1.6751,-1.6088,-1.5413,-1.4972,-1.4657,-1.4314,-1.4171,-1.3905,-1.355,-1.3039,-1.2645,-1.2364,-1.2291,-1.2238,-1.2204,-1.2178,-1.2238,-1.2305,-1.2305,-1.2298,-1.2305,-1.2305,-1.2305,-1.2305,-1.2305,-1.2305,-1.2305,-1.2305,-1.2305,-1.2305,-1.2305,-1.2305,-1.2305,-1.2305,-1.2305,-1.2305,-1.2305,-2.6624,-2.6418,-2.5815,-2.5275,-2.4871,-2.4313,-2.4051,-2.3982,-2.3739,-2.3595,-2.3595,-2.3595,-2.3595,-2.3595,-2.3595,-2.3595,-2.3595,-2.3595,-2.3523,-2.3452,-2.3743,-2.3695,-2.3502,-2.3537,-2.3519,-2.3352,-2.316,-2.3125,-2.3125,-2.3125,-2.3125,-2.3125,-2.3125,-2.3125,-2.3065,-2.3053,-2.305,-2.3053,-2.2949,-2.3025,-2.3125,-2.2884,-2.247,-2.1241,-1.9901,-1.8835,-1.7729,-1.6614,-1.6016,-1.5889,-1.5557,-1.5449,-1.542,-1.542,-1.542,-1.5469,-1.5693,-1.5928,-1.6211,-1.6592,-1.709,-1.7353,-1.7637,-1.7842,-1.7978,-1.7998,-1.8008,-1.8008,-1.8008,-1.8008,-1.8008,-1.8008,-1.8008,-1.8008,-1.8008,-1.8008,-1.794,-1.7314,-1.6621,-1.5948,-1.5263,-1.4925,-1.4617,-1.4489,-1.4274,-1.3985,-1.3702,-1.3266,-1.2673,-1.2345,-1.2338,-1.2278,-1.2285,-1.2278,-1.2305,-1.2305,-1.2305,-1.2305,-1.2305,-1.2305,-1.2305,-1.2305,-1.2305,-1.2305,-1.2305,-1.2305,-1.2305,-1.2305,-1.2305,-1.2305,-1.2305,-1.2305,-1.2305,-1.2305,-1.2305,-2.6521,-2.6314,-2.5427,-2.4887,-2.4511,-2.4036,-2.3839,-2.3782,-2.3653,-2.3595,-2.3595,-2.3595,-2.3595,-2.3595,-2.3595,-2.3595,-2.3595,-2.3595,-2.3334,-2.3214,-2.3065,-2.3009,-2.2938,-2.2842,-2.3063,-2.3015,-2.3053,-2.3125,-2.3125,-2.3125,-2.3125,-2.3125,-2.3125,-2.3065,-2.304,-2.2902,-2.2877,-2.304,-2.2761,-2.2702,-2.2905,-2.2616,-2.1865,-2.0647,-1.9606,-1.8553,-1.7519,-1.6416,-1.6055,-1.5811,-1.5498,-1.5439,-1.542,-1.542,-1.542,-1.5537,-1.5781,-1.6152,-1.6494,-1.6943,-1.7471,-1.7676,-1.7793,-1.7988,-1.7988,-1.8008,-1.8008,-1.8008,-1.8008,-1.8008,-1.8008,-1.8008,-1.8008,-1.8008,-1.7872,-1.7794,-1.7373,-1.6742,-1.6044,-1.5267,-1.4816,-1.4744,-1.4561,-1.4561,-1.4346,-1.3992,-1.3702,-1.3339,-1.282,-1.2378,-1.2305,-1.2305,-1.2305,-1.2305,-1.2305,-1.2305,-1.2305,-1.2305,-1.2305,-1.2305,-1.2305,-1.2305,-1.2305,-1.2345,-1.2345,-1.2305,-1.2305,-1.2371,-1.2325,-1.2305,-1.2305,-1.2305,-1.2305,-1.2305,-1.2305,-2.6232,-2.6052,-2.516,-2.4608,-2.4266,-2.3794,-2.3595,-2.3595,-2.3595,-2.3595,-2.3595,-2.3595,-2.3595,-2.3595,-2.3595,-2.3595,-2.3508,-2.3377,-2.3068,-2.2732,-2.2428,-2.2282,-2.2192,-2.2154,-2.2422,-2.2693,-2.288,-2.3015,-2.3125,-2.3125,-2.3125,-2.3125,-2.3125,-2.3125,-2.2987,-2.2799,-2.2677,-2.2802,-2.2652,-2.2405,-2.2332,-2.22,-2.1295,-2.0176,-1.9116,-1.8004,-1.709,-1.6357,-1.5928,-1.5713,-1.5557,-1.543,-1.5566,-1.5625,-1.5635,-1.5762,-1.6162,-1.6514,-1.6836,-1.7256,-1.7637,-1.7891,-1.7978,-1.8008,-1.8008,-1.8008,-1.8008,-1.8008,-1.8008,-1.8008,-1.8008,-1.8008,-1.8008,-1.794,-1.7794,-1.751,-1.6872,-1.6306,-1.5551,-1.4784,-1.4641,-1.4569,-1.4569,-1.4569,-1.4425,-1.3992,-1.363,-1.3339,-1.2973,-1.2526,-1.2305,-1.2305,-1.2305,-1.2305,-1.2305,-1.2305,-1.2305,-1.2305,-1.2305,-1.2305,-1.2305,-1.2305,-1.2345,-1.2432,-1.2418,-1.2465,-1.2485,-1.2552,-1.2472,-1.2378,-1.2311,-1.2311,-1.2305,-1.2305,-1.2305,-2.5382,-2.5121,-2.4502,-2.4048,-2.3767,-2.3638,-2.3595,-2.3595,-2.3595,-2.3595,-2.3595,-2.3595,-2.3595,-2.3595,-2.3595,-2.3551,-2.3465,-2.3201,-2.2785,-2.2399,-2.1683,-2.1491,-2.1483,-2.1554,-2.1744,-2.2081,-2.2496,-2.2685,-2.279,-2.2975,-2.3113,-2.3015,-2.3125,-2.3125,-2.3113,-2.2949,-2.2815,-2.2767,-2.2501,-2.2161,-2.191,-2.1628,-2.1063,-2.0135,-1.9286,-1.8489,-1.7635,-1.6674,-1.6406,-1.6191,-1.5811,-1.5508,-1.5615,-1.5928,-1.6084,-1.6074,-1.6494,-1.6914,-1.7256,-1.7578,-1.79,-1.7959,-1.8008,-1.8008,-1.8008,-1.8008,-1.8008,-1.8008,-1.8008,-1.8008,-1.8008,-1.8008,-1.8008,-1.7794,-1.7647,-1.7079,-1.6515,-1.6035,-1.5409,-1.4919,-1.4641,-1.4569,-1.4569,-1.4569,-1.4569,-1.4209,-1.3848,-1.3484,-1.2966,-1.2599,-1.2378,-1.2305,-1.2305,-1.2305,-1.2305,-1.2305,-1.2305,-1.2305,-1.2305,-1.2305,-1.2305,-1.2305,-1.2358,-1.2425,-1.2632,-1.2759,-1.2779,-1.2645,-1.2659,-1.2559,-1.2385,-1.2311,-1.2311,-1.2331,-1.2345]}]]